[[{"header":{"parameterUnit":"m.s-1","parameterCategory":1,"la1":30.6,"la2":28.766,"lo1":-90.7593,"lo2":-88.6598,"dy":0.0162,"dx":0.0183,"nx":116,"ny":114,"refTime":"2023-04-28T18:00:00:Z","depth":0,"parameterNumber":2,"parameterNumberName":"U-component_of_WINDS"},"data":[0.0,0.0,0.0,0.0,0.0,0.0,0.0,0.0,0.0,0.0,0.0,0.0,0.0,0.0,0.0,0.0,0.0,0.0,0.0,0.0,0.0,0.0,0.0,0.0,0.0,0.0,0.0,0.0,0.0,0.0,0.0,0.0,0.0,0.0,0.0,0.0,0.0,0.0,0.0,0.0,0.0,0.0,0.0,0.0,0.0,0.0,0.0,0.0,0.0,0.0,0.0,0.0,0.0,0.0,0.0,0.0,0.0,0.0,0.0,0.0,0.0,0.0,0.0,0.0,0.0,0.0,0.0,0.0,0.0,0.0,0.0,0.0,0.0,0.0,0.0,0.0,0.0,0.0,0.0,0.0,0.0,0.0,0.0,0.0,0.0,0.0,0.0,0.0,0.0,0.0,0.0,0.0,0.0,0.0,0.0,0.0,0.0,0.0,0.0,0.0,0.0,0.0,0.0,0.0,0.0,0.0,0.0,0.0,0.0,0.0,0.0,0.0,0.0,0.0,0.0,0.0,0.0,0.0,0.0,0.0,0.0,0.0,0.0,0.0,0.0,0.0,0.0,0.0,0.0,0.0,0.0,0.0,0.0,0.0,0.0,0.0,0.0,0.0,0.0,0.0,0.0,0.0,0.0,0.0,0.0,0.0,0.0,0.0,0.0,0.0,0.0,0.0,0.0,0.0,0.0,0.0,0.0,0.0,0.0,0.0,0.0,0.0,0.0,0.0,0.0,0.0,0.0,0.0,0.0,0.0,0.0,0.0,0.0,0.0,0.0,0.0,0.0,0.0,0.0,0.0,0.0,0.0,0.0,0.0,0.0,0.0,0.0,0.0,0.0,0.0,0.0,0.0,0.0,0.0,0.0,0.0,0.0,0.0,0.0,0.0,0.0,0.0,0.0,0.0,0.0,0.0,0.0,0.0,0.0,0.0,0.0,0.0,0.0,0.0,0.0,0.0,0.0,0.0,0.0,0.0,0.0,0.0,0.0,0.0,0.0,0.0,0.0,0.0,0.0,0.0,0.0,0.0,0.0,0.0,0.0,0.0,0.0,0.0,0.0,0.0,0.0,0.0,0.0,0.0,0.0,0.0,0.0,0.0,0.0,0.0,0.0,0.0,0.0,0.0,0.0,0.0,0.0,0.0,0.0,0.0,0.0,0.0,0.0,0.0,0.0,0.0,0.0,0.0,0.0,0.0,0.0,0.0,0.0,0.0,0.0,0.0,0.0,0.0,0.0,0.0,0.0,0.0,0.0,0.0,0.0,0.0,0.0,0.0,0.0,0.0,0.0,0.0,0.0,0.0,0.0,0.0,0.0,0.0,0.0,0.0,0.0,0.0,0.0,0.0,0.0,0.0,0.0,0.0,0.0,0.0,0.0,0.0,0.0,0.0,0.0,0.0,0.0,0.0,0.0,0.0,0.0,0.0,0.0,0.0,0.0,0.0,0.0,0.0,0.0,0.0,0.0,0.0,0.0,0.0,0.0,0.0,0.0,0.0,0.0,0.0,0.0,0.0,0.0,0.0,0.0,0.0,0.0,0.0,0.0,0.0,0.0,0.0,0.0,0.0,0.0,0.0,0.0,0.0,0.0,0.0,0.0,0.0,0.0,0.0,0.0,0.0,0.0,0.0,0.0,0.0,0.0,0.0,0.0,0.0,0.0,0.0,0.0,0.0,0.0,0.0,0.0,0.0,0.0,0.0,0.0,0.0,0.0,0.0,0.0,0.0,0.0,0.0,0.0,0.0,0.0,0.0,0.0,0.0,0.0,0.0,0.0,0.0,0.0,0.0,0.0,0.0,0.0,0.0,0.0,0.0,0.0,0.0,0.0,0.0,0.0,0.0,0.0,0.0,0.0,0.0,0.0,0.0,0.0,0.0,0.0,0.0,0.0,0.0,0.0,0.0,0.0,0.0,0.0,0.0,0.0,0.0,0.0,0.0,0.0,0.0,0.0,0.0,0.0,0.0,0.0,0.0,0.0,0.0,0.0,0.0,0.0,0.0,0.0,0.0,0.0,0.0,0.0,0.0,0.0,0.0,0.0,0.0,0.0,0.0,0.0,0.0,0.0,0.0,0.0,0.0,0.0,0.0,0.0,0.0,0.0,0.0,0.0,0.0,0.0,0.0,0.0,0.0,0.0,0.0,0.0,0.0,0.0,0.0,0.0,0.0,0.0,0.0,0.0,0.0,0.0,0.0,0.0,0.0,0.0,0.0,0.0,0.0,0.0,0.0,0.0,0.0,0.0,0.0,0.0,0.0,0.0,0.0,0.0,0.0,0.0,0.0,0.0,0.0,0.0,0.0,0.0,0.0,0.0,0.0,0.0,0.0,0.0,0.0,0.0,0.0,0.0,0.0,0.0,0.0,0.0,0.0,0.0,0.0,0.0,0.0,0.0,0.0,0.0,0.0,0.0,0.0,0.0,0.0,0.0,0.0,0.0,0.0,0.0,0.0,0.0,0.0,0.0,0.0,0.0,0.0,0.0,0.0,0.0,0.0,0.0,0.0,0.0,0.0,0.0,0.0,0.0,0.0,0.0,0.0,0.0,0.0,0.0,0.0,0.0,0.0,0.0,0.0,0.0,0.0,0.0,0.0,0.0,0.0,0.0,0.0,0.0,0.0,0.0,0.0,0.0,0.0,0.0,0.0,0.0,0.0,0.0,0.0,0.0,0.0,0.0,0.0,0.0,0.0,0.0,0.0,0.0,0.0,0.0,0.0,0.0,0.0,0.0,0.0,0.0,0.0,0.0,0.0,0.0,0.0,0.0,0.0,0.0,0.0,0.0,0.0,0.0,0.0,0.0,0.0,0.0,0.0,0.0,0.0,0.0,0.0,0.0,0.0,0.0,0.0,0.0,0.0,0.0,0.0,0.0,0.0,0.0,0.0,0.0,0.0,0.0,0.0,0.0,0.0,0.0,0.0,0.0,0.0,0.0,0.0,0.0,0.0,0.0,0.0,0.0,0.0,0.0,0.0,0.0,0.0,0.0,0.0,0.0,0.0,0.0,0.0,0.0,0.0,0.0,0.0,0.0,0.0,0.0,0.0,0.0,0.0,0.0,0.0,0.0,0.0,0.0,0.0,0.0,0.0,0.0,0.0,0.0,0.0,0.0,0.0,0.0,0.0,0.0,0.0,0.0,0.0,0.0,0.0,0.0,0.0,0.0,0.0,0.0,0.0,0.0,0.0,0.0,0.0,0.0,0.0,0.0,0.0,0.0,0.0,0.0,0.0,0.0,0.0,0.0,0.0,0.0,0.0,0.0,0.0,0.0,0.0,0.0,0.0,0.0,0.0,0.0,0.0,0.0,0.0,0.0,0.0,0.0,0.0,0.0,0.0,0.0,0.0,0.0,0.0,0.0,0.0,0.0,0.0,0.0,0.0,0.0,0.0,0.0,0.0,0.0,0.0,0.0,0.0,0.0,0.0,0.0,0.0,0.0,0.0,0.0,0.0,0.0,0.0,0.0,0.0,0.0,0.0,0.0,0.0,0.0,0.0,0.0,0.0,0.0,0.0,0.0,0.0,0.0,0.0,0.0,0.0,0.0,0.0,0.0,0.0,0.0,0.0,0.0,0.0,0.0,0.0,0.0,0.0,0.0,0.0,0.0,0.0,0.0,0.0,0.0,0.0,0.0,0.0,0.0,0.0,0.0,0.0,0.0,0.0,0.0,0.0,0.0,0.0,0.0,0.0,0.0,0.0,0.0,0.0,0.0,0.0,0.0,0.0,0.0,0.0,0.0,0.0,0.0,0.0,0.0,0.0,0.0,0.0,0.0,0.0,0.0,0.0,0.0,0.0,0.0,0.0,0.0,0.0,0.0,0.0,0.0,0.0,0.0,0.0,0.0,0.0,0.0,0.0,0.0,0.0,0.0,0.0,0.0,0.0,0.0,0.0,0.0,0.0,0.0,0.0,0.0,0.0,0.0,0.0,0.0,0.0,0.0,0.0,0.0,0.0,0.0,0.0,0.0,0.0,0.0,0.0,0.0,0.0,0.0,0.0,0.0,0.0,0.0,0.0,0.0,0.0,0.0,0.0,0.0,0.0,0.0,0.0,0.0,0.0,0.0,0.0,0.0,0.0,0.0,0.0,0.0,0.0,0.0,0.0,0.0,0.0,0.0,0.0,0.0,0.0,0.0,0.0,0.0,0.0,0.0,0.0,0.0,0.0,0.0,0.0,0.0,0.0,0.0,0.0,0.0,0.0,0.0,0.0,0.0,0.0,0.0,0.0,0.0,0.0,0.0,0.0,0.0,0.0,0.0,0.0,0.0,0.0,0.0,0.0,0.0,0.0,0.0,0.0,0.0,0.0,0.0,0.0,0.0,0.0,0.0,0.0,0.0,0.0,0.0,0.0,0.0,0.0,0.0,0.0,0.0,0.0,0.0,0.0,0.0,0.0,0.0,0.0,0.0,0.0,0.0,0.0,0.0,0.0,0.0,0.0,0.0,0.0,0.0,0.0,0.0,0.0,0.0,0.0,0.0,0.0,0.0,0.0,0.0,0.0,0.0,0.0,0.0,0.0,0.0,0.0,0.0,0.0,0.0,0.0,0.0,0.0,0.0,0.0,0.0,0.0,0.0,0.0,0.0,0.0,0.0,0.0,0.0,0.0,0.0,0.0,0.0,0.0,0.0,0.0,0.0,0.0,0.0,0.0,0.0,0.0,0.0,0.0,0.0,0.0,0.0,0.0,0.0,0.0,0.0,0.0,0.0,0.0,0.0,0.0,0.0,0.0,0.0,0.0,0.0,0.0,0.0,0.0,0.0,0.0,0.0,0.0,0.0,0.0,0.0,0.0,0.0,0.0,0.0,0.0,0.0,0.0,0.0,0.0,0.0,0.0,0.0,0.0,0.0,0.0,0.0,0.0,0.0,0.0,0.0,0.0,0.0,0.0,0.0,0.0,0.0,0.0,0.0,0.0,0.0,0.0,0.0,0.0,0.0,0.0,0.0,0.0,0.0,0.0,0.0,0.0,0.0,0.0,0.0,0.0,0.0,0.0,0.0,0.0,0.0,0.0,0.0,0.0,0.0,0.0,0.0,0.0,0.0,0.0,0.0,0.0,0.0,0.0,0.0,0.0,0.0,0.0,0.0,0.0,0.0,0.0,0.0,0.0,0.0,0.0,0.0,0.0,0.0,0.0,0.0,0.0,0.0,0.0,0.0,0.0,0.0,0.0,0.0,0.0,0.0,0.0,0.0,0.0,0.0,0.0,0.0,0.0,0.0,0.0,0.0,0.0,0.0,0.0,0.0,0.0,0.0,0.0,0.0,0.0,0.0,0.0,0.0,0.0,0.0,0.0,0.0,0.0,0.0,0.0,0.0,0.0,0.0,0.0,0.0,0.0,0.0,0.0,0.0,0.0,0.0,0.0,0.0,0.0,0.0,0.0,0.0,0.0,0.0,0.0,0.0,0.0,0.0,0.0,0.0,0.0,0.0,0.0,0.0,0.0,0.0,0.0,0.0,0.0,0.0,0.0,0.0,0.0,0.0,0.0,0.0,0.0,0.0,0.0,0.0,0.0,0.0,0.0,0.0,0.0,0.0,0.0,0.0,0.0,0.0,0.0,0.0,0.0,0.0,0.0,0.0,0.0,0.0,0.0,0.0,0.0,0.0,0.0,0.0,0.0,0.0,0.0,0.0,0.0,0.0,0.0,0.0,0.0,0.0,0.0,0.0,0.0,0.0,0.0,0.0,0.0,0.0,0.0,0.0,0.0,0.0,0.0,0.0,0.0,0.0,0.0,0.0,0.0,0.0,0.0,0.0,0.0,0.0,0.0,0.0,0.0,0.0,0.0,0.0,0.0,0.0,0.0,0.0,0.0,0.0,0.0,0.0,0.0,0.0,0.0,0.0,0.0,0.0,0.0,0.0,0.0,0.0,0.0,0.0,0.0,0.0,0.0,0.0,0.0,0.0,0.0,0.0,0.0,0.0,0.0,0.0,0.0,0.0,0.0,0.0,0.0,0.0,0.0,0.0,0.0,0.0,0.0,0.0,0.0,0.0,0.0,0.0,0.0,0.0,0.0,0.0,0.0,0.0,0.0,0.0,0.0,0.0,0.0,0.0,0.0,0.0,0.0,0.0,0.0,0.0,0.0,0.0,0.0,-2.8681,-2.6822,0.0,0.0,0.0,0.0,0.0,0.0,0.0,0.0,0.0,0.0,0.0,0.0,0.0,0.0,0.0,0.0,0.0,0.0,0.0,0.0,0.0,0.0,0.0,0.0,0.0,0.0,0.0,0.0,0.0,0.0,0.0,0.0,0.0,0.0,0.0,0.0,0.0,0.0,0.0,0.0,0.0,0.0,0.0,0.0,0.0,0.0,0.0,0.0,0.0,0.0,0.0,0.0,0.0,0.0,0.0,0.0,0.0,0.0,0.0,0.0,0.0,0.0,0.0,0.0,0.0,0.0,0.0,0.0,0.0,0.0,0.0,0.0,0.0,0.0,0.0,0.0,0.0,0.0,0.0,0.0,0.0,0.0,0.0,0.0,0.0,0.0,0.0,0.0,0.0,0.0,0.0,0.0,0.0,0.0,0.0,0.0,0.0,0.0,0.0,0.0,0.0,0.0,0.0,0.0,0.0,0.0,0.0,0.0,0.0,0.0,0.0,0.0,0.0,0.0,-3.0117,-2.9014,0.0,0.0,0.0,0.0,0.0,0.0,0.0,0.0,0.0,0.0,0.0,0.0,0.0,0.0,0.0,0.0,0.0,0.0,0.0,0.0,0.0,0.0,0.0,0.0,0.0,0.0,0.0,0.0,0.0,0.0,0.0,0.0,0.0,0.0,0.0,0.0,0.0,0.0,0.0,0.0,0.0,0.0,0.0,0.0,0.0,0.0,0.0,0.0,0.0,0.0,0.0,0.0,0.0,0.0,0.0,0.0,0.0,0.0,0.0,0.0,0.0,0.0,0.0,0.0,0.0,0.0,0.0,0.0,0.0,0.0,0.0,0.0,0.0,0.0,0.0,0.0,0.0,0.0,0.0,0.0,0.0,0.0,0.0,0.0,0.0,0.0,0.0,0.0,0.0,0.0,0.0,0.0,0.0,0.0,0.0,0.0,0.0,0.0,0.0,0.0,0.0,0.0,0.0,0.0,0.0,0.0,0.0,0.0,-3.1471,-3.1534,-3.1495,-3.1441,-3.2126,-3.3275,-3.1732,-3.1546,-3.2101,-2.9339,0.0,0.0,0.0,0.0,0.0,0.0,0.0,0.0,0.0,0.0,0.0,0.0,0.0,0.0,0.0,0.0,0.0,0.0,0.0,0.0,0.0,0.0,0.0,0.0,0.0,0.0,0.0,0.0,0.0,0.0,0.0,0.0,0.0,0.0,0.0,0.0,0.0,0.0,0.0,0.0,0.0,0.0,0.0,0.0,0.0,0.0,0.0,0.0,0.0,0.0,0.0,0.0,0.0,0.0,0.0,0.0,0.0,0.0,0.0,0.0,0.0,0.0,0.0,0.0,0.0,0.0,0.0,0.0,0.0,0.0,0.0,0.0,0.0,0.0,0.0,0.0,0.0,0.0,0.0,0.0,0.0,0.0,0.0,0.0,0.0,0.0,-2.7303,-2.769,0.0,0.0,0.0,0.0,0.0,0.0,0.0,0.0,0.0,0.0,0.0,0.0,0.0,-3.0267,-3.0673,-3.1955,-3.2716,-3.291,-3.4298,-3.4974,-3.5022,-3.5016,-3.5111,-3.5231,-3.4969,0.0,-3.2755,-3.2084,0.0,0.0,0.0,0.0,0.0,0.0,0.0,0.0,0.0,0.0,0.0,0.0,0.0,0.0,0.0,0.0,0.0,0.0,0.0,0.0,0.0,0.0,0.0,0.0,0.0,0.0,0.0,0.0,0.0,0.0,0.0,0.0,0.0,0.0,0.0,0.0,0.0,0.0,0.0,0.0,0.0,0.0,0.0,0.0,0.0,0.0,0.0,0.0,0.0,0.0,0.0,0.0,0.0,0.0,0.0,0.0,0.0,0.0,0.0,0.0,0.0,0.0,0.0,0.0,0.0,0.0,0.0,0.0,0.0,0.0,0.0,0.0,0.0,0.0,0.0,0.0,0.0,0.0,0.0,0.0,0.0,0.0,0.0,0.0,0.0,-2.5135,-2.6179,-2.6552,-2.5697,-2.4863,0.0,0.0,0.0,0.0,0.0,0.0,0.0,0.0,0.0,-3.114,-3.1522,-3.2165,-3.313,-3.4035,-3.452,-3.4605,-3.533,-3.564,-3.5641,-3.5641,-3.5636,-3.56,-3.56,-3.5162,-3.4391,-3.3218,-3.193,-3.0641,0.0,0.0,0.0,0.0,-2.9172,-2.8849,0.0,0.0,0.0,0.0,0.0,0.0,0.0,0.0,0.0,0.0,0.0,0.0,0.0,0.0,0.0,0.0,0.0,0.0,0.0,0.0,0.0,0.0,0.0,0.0,0.0,0.0,0.0,0.0,0.0,0.0,0.0,0.0,0.0,0.0,0.0,0.0,0.0,0.0,0.0,0.0,0.0,0.0,0.0,0.0,0.0,0.0,0.0,0.0,0.0,0.0,0.0,0.0,0.0,0.0,0.0,0.0,0.0,0.0,0.0,0.0,0.0,0.0,0.0,0.0,0.0,0.0,0.0,0.0,0.0,0.0,0.0,0.0,0.0,0.0,0.0,0.0,0.0,-2.5062,-2.6033,-2.6055,-2.6138,-2.5714,0.0,0.0,0.0,0.0,0.0,0.0,-2.9683,-2.986,-3.0756,-3.2486,-3.2985,-3.3815,-3.5055,-3.538,-3.5562,-3.5568,-3.5632,-3.5658,-3.563,-3.563,-3.5611,-3.5597,-3.5597,-3.563,-3.5567,-3.4167,-3.3338,-3.2817,-3.1537,-3.0794,-3.0412,-3.0402,-3.0538,-3.0814,0.0,0.0,0.0,0.0,0.0,0.0,0.0,0.0,0.0,0.0,0.0,0.0,0.0,0.0,0.0,0.0,0.0,0.0,0.0,0.0,0.0,0.0,0.0,0.0,0.0,0.0,0.0,0.0,0.0,0.0,0.0,0.0,0.0,0.0,0.0,0.0,0.0,0.0,0.0,0.0,0.0,0.0,0.0,0.0,0.0,0.0,0.0,0.0,0.0,0.0,0.0,0.0,0.0,0.0,0.0,0.0,0.0,0.0,0.0,0.0,0.0,0.0,0.0,0.0,0.0,0.0,0.0,0.0,0.0,0.0,0.0,0.0,0.0,0.0,0.0,0.0,0.0,0.0,0.0,-2.743,-2.8511,0.0,0.0,0.0,0.0,-2.8363,-2.8761,-2.9779,-3.1555,-3.1669,-3.2564,-3.4504,-3.4582,-3.464,-3.4715,-3.4997,-3.5155,-3.5226,-3.548,-3.5648,-3.5691,-3.5691,-3.566,-3.5594,-3.5594,-3.5605,-3.5596,-3.551,-3.4526,-3.3074,-3.2868,-3.1795,-3.0559,-3.187,-3.2365,-3.2545,0.0,0.0,0.0,0.0,0.0,0.0,0.0,0.0,0.0,0.0,0.0,0.0,0.0,0.0,0.0,0.0,0.0,0.0,0.0,0.0,0.0,0.0,0.0,0.0,0.0,0.0,0.0,0.0,0.0,0.0,0.0,0.0,0.0,0.0,0.0,0.0,0.0,0.0,0.0,0.0,0.0,0.0,0.0,0.0,0.0,0.0,0.0,0.0,0.0,0.0,0.0,0.0,0.0,0.0,0.0,0.0,0.0,0.0,0.0,0.0,0.0,0.0,0.0,0.0,0.0,0.0,0.0,0.0,0.0,0.0,0.0,0.0,0.0,0.0,0.0,0.0,0.0,0.0,0.0,-2.711,-2.8288,0.0,-2.7333,-2.8296,-2.9061,-2.9198,-3.0751,-3.1992,-3.2657,-3.2948,-3.3395,-3.4093,-3.4307,-3.4379,-3.4379,-3.4675,-3.4851,-3.4867,-3.4973,-3.512,-3.5309,-3.5309,-3.5419,-3.5601,-3.5601,-3.5612,-3.5659,-3.5625,-3.5268,-3.4766,-3.4725,-3.4304,-3.3804,-3.4115,-3.4333,-3.4446,0.0,0.0,0.0,0.0,0.0,0.0,0.0,0.0,0.0,0.0,0.0,0.0,0.0,0.0,0.0,0.0,0.0,0.0,0.0,0.0,0.0,0.0,0.0,0.0,0.0,0.0,0.0,0.0,0.0,0.0,0.0,0.0,0.0,0.0,0.0,0.0,0.0,0.0,0.0,0.0,0.0,0.0,-3.0641,0.0,0.0,0.0,0.0,0.0,0.0,0.0,0.0,0.0,0.0,0.0,0.0,0.0,0.0,0.0,0.0,0.0,0.0,0.0,0.0,0.0,0.0,0.0,0.0,0.0,0.0,0.0,0.0,0.0,0.0,0.0,0.0,0.0,0.0,-2.6211,-2.7651,-2.6253,-2.7881,-2.8686,-2.7485,-2.9024,-3.0214,-3.0555,-3.2062,-3.2952,-3.2952,-3.3361,-3.3606,-3.3606,-3.3891,-3.4068,-3.4068,-3.4375,-3.4529,-3.4529,-3.4653,-3.4793,-3.4963,-3.4963,-3.513,-3.5432,-3.5432,-3.5521,-3.5659,-3.5619,-3.5645,-3.5706,-3.5675,-3.5632,-3.5585,-3.5416,-3.5438,-3.55,0.0,0.0,0.0,0.0,0.0,0.0,0.0,0.0,0.0,0.0,0.0,0.0,0.0,0.0,0.0,0.0,0.0,0.0,0.0,0.0,0.0,0.0,0.0,0.0,0.0,0.0,0.0,0.0,0.0,0.0,0.0,0.0,0.0,0.0,0.0,0.0,0.0,0.0,0.0,0.0,0.0,0.0,-3.2664,0.0,0.0,0.0,0.0,0.0,0.0,0.0,0.0,0.0,0.0,0.0,0.0,0.0,0.0,0.0,0.0,0.0,0.0,0.0,0.0,0.0,0.0,0.0,0.0,0.0,0.0,0.0,0.0,0.0,0.0,0.0,0.0,0.0,-2.4544,-2.5644,-2.6217,-2.514,-2.7599,-2.9205,-2.8777,-3.0087,-3.135,-3.2366,-3.2433,-3.2451,-3.2484,-3.2903,-3.3184,-3.3184,-3.355,-3.378,-3.3762,-3.4043,-3.4195,-3.4176,-3.4508,-3.4674,-3.4674,-3.4674,-3.4832,-3.5088,-3.5088,-3.5268,-3.5581,-3.5581,-3.5639,-3.5684,-3.5624,-3.5594,-3.5607,-3.5669,-3.5697,-3.5658,0.0,0.0,0.0,0.0,0.0,0.0,0.0,0.0,0.0,0.0,0.0,0.0,0.0,0.0,0.0,0.0,0.0,0.0,0.0,0.0,0.0,0.0,0.0,0.0,0.0,0.0,0.0,0.0,0.0,0.0,0.0,0.0,0.0,0.0,0.0,0.0,0.0,0.0,0.0,0.0,0.0,0.0,-3.2473,0.0,0.0,0.0,0.0,0.0,0.0,0.0,0.0,0.0,0.0,0.0,0.0,0.0,0.0,0.0,0.0,0.0,0.0,0.0,0.0,0.0,0.0,0.0,0.0,0.0,0.0,0.0,0.0,0.0,0.0,0.0,-2.3501,-2.5235,-2.5793,-2.7457,-2.8494,-2.82,-2.8898,-2.9364,-2.9248,-2.9615,-3.0143,-3.0841,-3.1181,-3.1539,-3.1951,-3.2451,-3.2681,-3.2681,-3.2809,-3.3027,-3.3361,-3.3458,-3.3625,-3.3928,-3.3986,-3.4141,-3.4334,-3.4334,-3.451,-3.4793,-3.4793,-3.4961,-3.5243,-3.5243,-3.5359,-3.5566,-3.5638,-3.5636,-3.5599,-3.5623,-3.5638,-3.5626,0.0,0.0,0.0,0.0,0.0,0.0,0.0,0.0,0.0,0.0,0.0,0.0,0.0,0.0,0.0,0.0,0.0,0.0,0.0,0.0,0.0,0.0,0.0,0.0,0.0,0.0,0.0,0.0,0.0,0.0,0.0,0.0,0.0,0.0,0.0,0.0,0.0,0.0,0.0,0.0,0.0,0.0,-1.9351,-1.9841,-2.3122,-2.7629,-2.87,-2.9135,-2.9181,-2.8925,0.0,0.0,0.0,0.0,0.0,0.0,0.0,0.0,0.0,0.0,0.0,0.0,0.0,0.0,0.0,0.0,0.0,0.0,0.0,0.0,0.0,0.0,0.0,0.0,-2.3724,-2.5155,-2.5914,-2.7511,-2.8638,-2.8638,-2.8638,-2.8764,-2.9012,-2.8996,-2.9271,-2.9892,-3.0168,-3.0549,-3.1133,-3.161,-3.1934,-3.2196,-3.2417,-3.2616,-3.2903,-3.2921,-3.3027,-3.3255,-3.3255,-3.3439,-3.3776,-3.3776,-3.4056,-3.4508,-3.4508,-3.4655,-3.4926,-3.4926,-3.5016,0.0,0.0,0.0,0.0,0.0,-3.5636,-3.5642,0.0,0.0,0.0,0.0,0.0,0.0,0.0,0.0,0.0,0.0,0.0,0.0,0.0,0.0,0.0,0.0,0.0,0.0,0.0,0.0,0.0,0.0,0.0,0.0,0.0,0.0,0.0,0.0,0.0,0.0,0.0,0.0,0.0,0.0,0.0,0.0,0.0,0.0,0.0,0.0,0.0,0.0,0.0501,-1.059,-1.8098,-2.2943,-2.5151,-2.691,-2.8237,-2.8032,0.0,0.0,0.0,0.0,0.0,0.0,0.0,0.0,0.0,0.0,0.0,0.0,0.0,0.0,0.0,0.0,0.0,0.0,0.0,0.0,0.0,0.0,0.0,0.0,-2.4109,-2.5287,-2.5398,-2.6534,-2.7357,-2.7357,-2.7408,-2.7695,-2.8222,-2.8367,-2.8654,-2.9271,-2.9316,-2.954,-3.0166,-3.0549,0.0,0.0,0.0,-3.2298,-3.2417,-3.2417,-3.2451,-3.2484,-3.2484,-3.2713,-3.3105,-3.3105,-3.3478,-3.408,-3.408,-3.4269,-3.4593,-3.4593,-3.4574,-3.4696,-3.5295,-3.5538,-3.556,-3.5618,-3.5621,-3.5601,0.0,0.0,0.0,0.0,0.0,0.0,0.0,0.0,0.0,0.0,0.0,0.0,0.0,0.0,0.0,0.0,0.0,0.0,0.0,0.0,0.0,0.0,0.0,0.0,0.0,0.0,0.0,0.0,0.0,0.0,0.0,0.0,0.0,0.0,0.0,0.0,0.0,0.0,0.0,0.0,0.0,0.0,1.1113,0.0699,-0.8974,-1.7358,-2.0194,-2.1999,-2.3138,-2.3835,-2.3865,-2.3329,-2.1758,0.0,0.0,0.0,0.0,0.0,0.0,0.0,0.0,0.0,0.0,0.0,0.0,0.0,0.0,0.0,0.0,0.0,0.0,0.0,0.0,-2.2484,-2.3681,-2.4738,-2.5342,-2.5673,-2.5837,-2.5837,-2.6336,-2.6774,-2.6864,-2.7444,-2.8042,-2.8654,-2.8685,-2.8919,-2.954,-2.9641,-2.9989,-3.0567,-3.0673,-3.1116,-3.1915,-3.1933,-3.2144,-3.2484,0.0,0.0,-3.2648,-3.2648,-3.2916,-3.3382,-3.3382,-3.3552,-3.3813,-3.3813,-3.3926,-3.4211,-3.4921,-3.5216,-3.5197,-3.5209,-3.5124,-3.497,0.0,0.0,0.0,0.0,0.0,0.0,0.0,0.0,0.0,0.0,0.0,0.0,0.0,0.0,0.0,0.0,0.0,0.0,0.0,0.0,0.0,0.0,0.0,0.0,0.0,0.0,0.0,0.0,0.0,0.0,0.0,0.0,0.0,0.0,0.0,0.0,0.0,0.0,0.0,0.0,0.0,0.0,1.5939,0.9909,0.1219,-0.844,-1.4061,-1.7129,-1.8748,-2.0213,-2.0563,-2.0269,-1.9317,-2.0067,-2.0643,0.0,0.0,0.0,0.0,0.0,0.0,0.0,0.0,0.0,0.0,0.0,0.0,0.0,0.0,-1.9858,-1.9963,0.0,-2.1656,-2.2159,-2.3089,-2.3826,-2.4208,-2.4266,-2.4553,-2.5287,-2.6068,-2.6336,-2.6014,-2.6982,-2.756,-2.7515,-2.783,-2.8319,-2.8919,-2.8966,-2.9225,-2.9805,-2.9848,-3.0074,-3.0566,-3.0606,-3.0847,-3.1405,-3.1405,-3.1681,-3.2127,-3.2127,-3.2417,-3.284,-3.284,-3.2929,-3.3057,-3.3057,-3.3219,-3.3511,-3.4097,-3.4559,-3.4908,-3.4908,-3.4832,-3.4756,0.0,0.0,0.0,0.0,0.0,0.0,0.0,0.0,0.0,0.0,0.0,0.0,0.0,0.0,0.0,0.0,0.0,0.0,0.0,0.0,0.0,0.0,0.0,0.0,0.0,0.0,0.0,0.0,0.0,0.0,0.0,0.0,0.0,0.0,0.0,0.0,0.0,0.0,0.0,0.0,0.0,0.0,1.863,1.5715,0.9241,0.0574,-0.7065,-1.1601,-1.4181,-1.6235,-1.7139,-1.7328,-1.6969,-1.7645,-1.7972,-1.4691,-1.5295,0.0,0.0,0.0,0.0,0.0,0.0,0.0,0.0,-1.6428,-1.7145,-1.8681,-1.9497,-2.0037,-2.0252,-2.0839,-2.1375,-2.1611,-2.2187,-2.2689,-2.2823,-2.2884,-2.3399,-2.4781,-2.5618,-2.5837,-2.5231,-2.6375,-2.693,-2.6336,-2.6982,-2.7595,-2.8076,-2.8271,-2.8591,-2.9225,-2.9225,-2.9271,-2.9406,-2.9406,-2.9629,-3.0123,-3.0123,-3.0534,-3.1329,-3.1329,-3.1573,-3.2022,-3.2161,-3.2213,-3.2213,-3.2332,-3.2426,-3.2572,-3.3161,-3.3736,-3.4297,-3.451,-3.4569,-3.4526,0.0,0.0,0.0,0.0,0.0,0.0,0.0,0.0,0.0,0.0,0.0,0.0,0.0,0.0,0.0,0.0,0.0,0.0,0.0,0.0,0.0,0.0,0.0,0.0,0.0,0.0,0.0,0.0,0.0,0.0,0.0,0.0,0.0,0.0,0.0,0.0,0.0,0.0,0.0,0.0,0.0,0.0,2.1804,1.5122,1.0444,0.6619,0.0747,-0.4395,-0.8802,-1.0755,-1.2579,-1.3855,-1.3026,-1.4138,-1.5235,-1.257,0.0,-1.2645,-1.1353,-1.1657,-1.2858,-1.5066,-1.4801,-1.5031,0.0,-1.8877,-1.8298,-1.999,-2.0443,-2.054,-2.0527,-2.0613,-2.0722,-2.076,-2.0846,-2.1164,-2.1939,-2.2002,-2.2372,-2.3233,-2.4047,-2.4509,-2.4452,-2.5175,-2.5618,-2.5508,-2.6229,-2.6669,-2.6707,-2.7342,-2.7993,-2.8606,-2.8606,-2.8873,-2.9406,-2.9406,-2.9451,-2.9496,-2.9496,-2.9569,-2.9685,-2.9685,-2.9907,-3.0335,-3.0864,-3.1108,-3.1198,-3.1681,-3.1593,-3.123,-3.2228,-3.2677,-3.288,-3.3894,-3.4117,-3.3921,0.0,0.0,0.0,0.0,0.0,0.0,0.0,0.0,0.0,0.0,0.0,0.0,0.0,0.0,0.0,0.0,0.0,0.0,0.0,0.0,0.0,0.0,0.0,0.0,0.0,0.0,0.0,0.0,0.0,0.0,0.0,0.0,0.0,0.0,0.0,0.0,0.0,0.0,0.0,0.0,0.0,0.0,1.6499,1.3462,1.0132,0.655,0.2126,-0.1466,0.0,0.0,-0.9225,-0.9925,-1.0113,-1.1456,-1.2435,-0.9901,-1.0642,0.0,-1.2214,-1.1996,-1.2254,-1.4153,-1.4684,-1.5115,-1.6392,-1.7403,-1.8176,-1.8906,-1.9836,-2.0462,-1.9944,-2.0268,-2.0462,-1.9955,-2.0268,-2.082,-2.1426,-2.1999,-2.2575,-2.3131,-2.4017,-2.4474,-2.4141,-2.5472,-2.613,-2.5719,-2.6362,-2.6763,-2.6763,-2.6776,-2.7122,-2.7795,-2.749,-2.7665,-2.8352,-2.8352,-2.8543,-2.8873,-2.8873,-2.9042,-2.9406,-2.9406,-2.9508,-2.9648,-2.9923,-3.0025,-3.0084,-3.0294,-3.0236,-3.0136,-3.1185,-3.1339,-3.1213,-3.2679,-3.3141,-3.3027,0.0,0.0,0.0,0.0,0.0,0.0,0.0,0.0,0.0,0.0,0.0,0.0,0.0,0.0,0.0,0.0,0.0,0.0,0.0,0.0,0.0,0.0,0.0,0.0,0.0,0.0,0.0,0.0,0.0,0.0,0.0,0.0,0.0,0.0,0.0,0.0,0.0,0.0,0.0,0.0,0.0,0.0,1.1427,1.0832,0.8867,0.5923,0.3303,0.0785,0.0,0.0,-0.6425,-0.6925,-0.761,-0.8742,-0.948,-0.7603,-0.8842,-1.0883,-1.1453,-1.1432,-1.1641,-1.3247,-1.4239,-1.4781,-1.4387,-1.602,-1.7566,-1.7552,-1.8772,-1.9694,-1.9044,-1.9431,-1.9736,-1.921,-1.961,-2.0302,-2.0972,-2.1654,-2.2324,-2.2829,-2.3699,-2.4062,-2.3673,-2.5051,-2.5867,-2.5621,-2.599,-2.6405,-2.6674,-2.653,-2.6703,-2.7187,-2.6676,-2.6648,-2.7231,-2.7277,-2.7545,-2.7963,-2.7963,-2.8288,-2.8904,-2.8904,-2.8996,-2.9134,-2.9134,-2.9134,-2.918,-2.9316,-2.9316,-2.9255,-3.0119,-3.0195,-2.9969,-3.1206,-3.1917,-3.2279,0.0,0.0,0.0,0.0,0.0,0.0,0.0,0.0,0.0,0.0,0.0,0.0,0.0,0.0,0.0,0.0,0.0,0.0,0.0,0.0,0.0,0.0,0.0,0.0,0.0,0.0,0.0,0.0,0.0,0.0,0.0,0.0,0.0,0.0,0.0,0.0,0.0,0.0,0.0,0.0,0.0,0.0,0.9161,0.7229,0.6441,0.6299,0.6211,0.0,0.0,0.0,-0.4154,-0.5439,-0.5505,-0.5807,0.0,-0.6057,-0.6377,-0.6884,-0.7512,-0.8572,-1.0091,-1.2343,-1.3322,-1.3996,-1.4917,-1.5896,-1.6669,-1.6627,-1.7423,-1.8076,-1.8008,-1.8076,-1.8213,-1.8545,-1.8613,-1.9103,-2.0448,-2.0652,-2.1005,-2.184,-2.2402,-2.2753,-2.2741,-2.3142,-2.3833,-2.4743,-2.4618,-2.4887,-2.5893,-2.66,-2.7006,-2.7006,-2.6514,-2.621,-2.621,-2.642,-2.6563,-2.6563,-2.6563,-2.6916,-2.766,-2.766,-2.7944,-2.8511,-2.8511,-2.8511,-2.8559,-2.9134,-2.9058,-2.8606,-2.9225,-2.9435,-2.9435,-2.9496,-3.0401,-3.1707,0.0,0.0,0.0,0.0,0.0,0.0,0.0,0.0,0.0,0.0,0.0,0.0,0.0,0.0,0.0,0.0,0.0,0.0,0.0,0.0,0.0,0.0,0.0,0.0,0.0,0.0,0.0,0.0,0.0,0.0,0.0,0.0,0.0,0.0,0.0,0.0,0.0,0.0,0.0,0.0,0.0,0.0,1.0501,0.7433,0.4572,0.1882,0.0,0.0,0.0,0.0,-0.4361,-0.481,-0.5004,-0.5486,-0.5943,-0.5751,-0.5596,-0.5715,-0.6813,-0.8063,-0.9468,-1.1112,-1.2632,-1.36,-1.331,-1.4514,-1.5649,-1.5649,-1.5608,-1.5806,-1.6606,-1.6796,-1.7004,-1.7366,-1.8337,-1.9291,-2.0062,-2.0699,-2.1313,-2.1901,-2.2732,-2.3195,-2.3195,-2.3338,-2.3815,-2.484,-2.4873,-2.5271,-2.6263,-2.6142,-2.6295,-2.6787,-2.6276,-2.5768,-2.5314,-2.6004,-2.5813,-2.494,-2.5467,-2.5892,-2.6162,-2.6162,-2.6254,-2.6438,-2.6438,-2.6438,-2.6491,-2.7166,-2.7348,-2.7261,-2.8384,-2.8273,-2.762,-2.8919,-2.9143,-2.8984,0.0,0.0,0.0,0.0,0.0,0.0,0.0,0.0,0.0,0.0,0.0,0.0,0.0,0.0,0.0,0.0,0.0,0.0,0.0,0.0,0.0,0.0,0.0,0.0,0.0,0.0,0.0,0.0,0.0,0.0,0.0,0.0,0.0,0.0,0.0,0.0,0.0,0.0,0.0,0.0,0.0,0.0,0.923,0.6509,0.3292,0.0,0.0,0.0,0.0,0.0,-0.4513,-0.4513,-0.4696,-0.5104,-0.5428,-0.5327,-0.5111,-0.5188,-0.6659,-0.7647,-0.8583,-0.9914,-1.1446,-1.2492,-1.1916,-1.3288,-1.4665,-1.4665,-1.4555,-1.4672,-1.5449,-1.6089,-1.6505,-1.6565,-1.7986,-1.9199,-1.9629,-2.0259,-2.0841,-2.1445,-2.2038,-2.2489,-2.2489,-2.2489,-2.301,-2.4337,-2.412,-2.4397,-2.5346,-2.509,-2.5078,-2.5505,-2.5049,-2.4564,-2.4089,-2.4584,-2.4419,-2.3716,-2.4517,-2.477,-2.4557,-2.4827,-2.4939,-2.4939,-2.5259,-2.5398,-2.5453,-2.5906,-2.6122,-2.6162,-2.7078,-2.6872,-2.6269,-2.7525,-2.753,-2.7229,0.0,0.0,0.0,0.0,0.0,0.0,0.0,0.0,0.0,0.0,0.0,0.0,0.0,0.0,0.0,0.0,0.0,0.0,0.0,0.0,0.0,0.0,0.0,0.0,0.0,0.0,0.0,0.0,0.0,0.0,0.0,0.0,0.0,0.0,0.0,0.0,0.0,0.0,0.0,0.0,0.0,0.0,0.5585,0.4461,0.0,0.0,0.0,0.0,0.0,0.0,-0.4529,-0.4546,-0.456,-0.4563,-0.4622,-0.4857,-0.4952,-0.5273,-0.6818,-0.7296,-0.7614,-0.889,-0.9965,-1.0708,-1.0783,-1.2265,-1.3593,-1.365,-1.4135,-1.4552,-1.4536,-1.5773,-1.6578,-1.6102,-1.7546,-1.8877,-1.9287,-1.9355,-1.9648,-2.0469,-2.0566,-2.0566,-2.0566,-2.0566,-2.1385,-2.322,-2.2478,-2.2403,-2.3452,-2.3514,-2.3514,-2.3514,-2.2994,-2.2737,-2.2655,-2.2292,-2.2348,-2.2917,-2.3612,-2.3541,-2.2867,-2.3599,-2.3922,-2.3992,-2.477,-2.5148,-2.5161,-2.5217,-2.5217,-2.5273,-2.5329,-2.5329,-2.5273,-2.5329,-2.563,-2.6332,0.0,0.0,0.0,0.0,0.0,0.0,0.0,0.0,0.0,0.0,0.0,0.0,0.0,0.0,0.0,0.0,0.0,0.0,0.0,0.0,0.0,0.0,0.0,0.0,0.0,0.0,0.0,0.0,0.0,0.0,0.0,0.0,0.0,0.0,0.0,0.0,0.0,0.0,0.0,0.0,0.0,0.0,0.4513,0.0,0.0,0.0,0.0,0.0,0.0,0.0,-0.4673,-0.4966,-0.5126,-0.5195,-0.5212,-0.5226,-0.5406,-0.5679,-0.604,-0.6911,-0.7735,-0.8058,-0.8917,-0.9895,-1.064,-1.1156,-1.1905,-1.314,-1.265,-1.2116,-1.2567,-1.4272,-1.5479,-1.5375,-1.8059,-2.0107,-2.0225,-2.0244,-2.0322,-2.0537,-2.0566,-2.0566,-2.0566,-2.0566,-2.0789,-2.1308,-2.1745,-2.2403,-2.3452,-2.3514,-2.3514,-2.3514,-2.3391,-2.2889,-2.1929,-2.008,-1.9993,-2.1793,-2.1607,-2.1358,-2.1192,-2.142,-2.1471,-2.1471,-2.1732,-2.1794,-2.1856,-2.2408,-2.3022,-2.3651,-2.4204,-2.4103,-2.3709,-2.4204,-2.3793,-2.3027,0.0,0.0,0.0,0.0,0.0,0.0,0.0,0.0,0.0,0.0,0.0,0.0,0.0,0.0,0.0,0.0,0.0,0.0,0.0,0.0,0.0,0.0,0.0,0.0,0.0,0.0,0.0,0.0,0.0,0.0,0.0,0.0,0.0,0.0,0.0,0.0,0.0,0.0,0.0,0.0,0.0,0.0,0.0,0.0,0.0,0.0,0.0,0.0,0.0,0.0,0.0,-0.6419,-0.5774,-0.5533,-0.5564,-0.5579,-0.5671,-0.583,-0.5966,-0.6579,-0.7176,-0.7176,-0.8237,-0.9396,-0.9694,-1.036,-1.1026,-1.1627,-1.1134,-1.0651,-1.078,-1.2876,-1.4555,-1.4545,-1.7207,-1.9307,-1.9307,-1.9763,-1.9822,-1.9228,-2.0001,-2.0235,-1.9274,-1.9599,-1.9923,-1.9923,-2.0837,-2.1593,-2.2199,-2.2188,-2.2188,-2.2188,-2.2188,-2.187,-2.1207,-1.9858,-1.9422,-1.9885,-2.0169,-2.0205,-2.0009,-2.0009,-2.0009,-2.0074,0.0,-2.059,-2.0655,-2.1043,-2.1522,-2.198,-2.242,-2.2299,-2.1968,-2.242,-2.1993,-2.1197,0.0,0.0,0.0,0.0,0.0,0.0,0.0,0.0,0.0,0.0,0.0,0.0,0.0,0.0,0.0,0.0,0.0,0.0,0.0,0.0,0.0,0.0,0.0,0.0,0.0,0.0,0.0,0.0,0.0,0.0,0.0,0.0,0.0,0.0,0.0,0.0,0.0,0.0,0.0,0.0,0.0,0.0,0.0,0.0,0.0,0.0,0.0,0.0,0.0,0.0,-0.8927,-0.8351,-0.6601,-0.6089,-0.6161,-0.6126,-0.6216,-0.628,-0.6485,-0.6486,-0.649,-0.6486,-0.7778,-0.903,-0.8649,-0.9775,-1.0612,-0.9904,-0.9958,-0.9936,-0.9454,-1.1743,-1.3778,-1.3947,-1.5974,-1.7587,-1.7845,-1.8546,-1.857,-1.7429,-1.9027,-1.9432,-1.7496,-1.823,-1.8798,-1.8798,-1.9696,-2.042,-2.0566,-2.0596,-2.0615,-2.0615,-2.0566,-2.0585,-2.0586,-2.0342,-1.9515,-1.8377,-1.9013,-1.9284,-1.9147,-1.8998,-1.9034,-1.9177,-1.9955,-2.0193,-2.0052,-2.0052,-2.0117,-2.0246,-2.0246,-2.0246,-2.0246,-2.0246,-2.0106,-1.9781,0.0,0.0,0.0,0.0,0.0,0.0,0.0,0.0,0.0,0.0,-0.0056,0.0,0.0,0.0,0.0,0.0,0.0,0.0,0.0,0.0,0.0,0.0,0.0,0.0,0.0,0.0,0.0,0.0,0.0,0.0,0.0,0.0,0.0,0.0,0.0,0.0,0.0,0.0,0.0,0.0,0.0,0.0,0.0,0.0,0.0,0.0,0.0,0.0,0.0,0.0,-0.9753,-0.9718,-0.827,-0.8203,-0.8579,-0.8005,-0.8257,-0.852,-0.7736,-0.7536,-0.7548,-0.7528,-0.7766,-0.8355,-0.9428,-0.984,-1.0049,-1.0032,-1.0065,-0.9993,-0.9689,-1.1394,-1.3302,-1.4622,-1.5867,-1.7132,-1.8581,-1.8109,-1.7595,-1.7326,-1.7666,-1.7738,-1.7334,-1.7504,-1.7577,-1.7577,-1.8334,-1.9323,-2.0489,-2.0595,-2.0613,-2.0613,-2.0636,-2.0627,-2.0614,-1.8806,-1.8652,-2.011,-1.7557,-1.7027,-1.8166,-1.7404,-1.7472,-1.8202,-1.8395,0.0,-1.7298,-1.7298,-1.7687,-1.8398,-1.8398,-1.8398,-1.8398,-1.8398,-1.7396,-1.6114,0.0,0.0,0.0,0.0,0.0,0.0,0.0,0.0,0.0,0.0,0.0,0.0,0.0,0.0,0.0,0.0,0.0,0.0,0.0,0.0,0.0,0.0,0.0,0.0,0.0,0.0,0.0,0.0,0.0,0.0,0.0,0.0,0.0,0.0,0.0,0.0,0.0,0.0,0.0,0.0,0.0,0.0,0.0,0.0,0.0,0.0,0.0,0.0,0.0,0.0,-1.0008,-1.0259,-0.9558,-0.9564,-0.9697,-0.9034,-0.9054,-0.9216,-0.8751,-0.8579,-0.8544,-0.856,-0.9003,-0.9383,-0.9621,-0.9989,-0.9943,-0.8974,-0.9379,-0.9603,-0.851,-1.025,-1.2188,-1.3413,-1.4576,-1.5691,-1.669,-1.7095,-1.6918,-1.5943,-1.6877,-1.7199,-1.6212,-1.6683,-1.7008,-1.7008,-1.6531,-1.7155,-1.9304,-2.0212,-2.0614,-2.0614,-2.0557,-1.9507,-1.7266,-1.6149,-1.6206,-1.7178,-1.6723,-1.6313,-1.6024,-1.6258,-1.6617,-1.6963,-1.6682,-1.6473,-1.6298,-1.6026,-1.6123,-1.6513,-1.6513,-1.6513,-1.6513,-1.6513,-1.5974,-1.5234,0.0,0.0,0.0,0.0,0.0,0.0,0.0,0.0,0.0,0.0,0.0,0.0,0.0,0.0,-0.0224,0.0,0.0,0.0,0.0,0.0,0.0,0.0,0.0,0.0,0.0,0.0,0.0,0.7169,0.6612,0.0,0.0,0.0,0.0,0.0,0.5968,0.0,0.0,0.0,0.0,0.0,0.0,0.0,0.0,0.0,0.0,0.0,0.0,0.0,0.0,0.0,-0.9779,-1.0242,-1.0362,-1.0415,-1.0438,-0.9857,-0.9734,-0.9734,-0.9653,-0.9651,-0.9637,-0.9635,-1.0229,-1.0654,-0.9994,-1.0149,-0.9952,-0.8309,-0.8747,-0.9103,-0.7963,-0.9401,-1.1092,-1.2226,-1.3141,-1.4037,-1.4719,-1.5847,-1.608,-1.4649,-1.6093,-1.6579,-1.5109,-1.582,-1.6369,-1.6268,-1.4888,-1.547,-1.8731,-1.9037,-1.9227,-1.9227,-1.919,-1.7573,-1.4151,-1.4097,-1.4095,-1.4135,-1.5825,-1.5739,-1.4208,-1.493,-1.5478,-1.5857,-1.5417,-1.5363,-1.566,-1.5317,-1.5133,-1.4966,-1.4704,-1.4712,-1.4974,-1.5141,-1.4832,-1.4283,0.0,0.0,0.0,0.0,0.0,0.0,0.0,0.0,0.0,0.0,0.0,0.0,0.0,0.0,0.0,0.0,0.0,0.0,0.0,0.0,0.0,0.0,0.0,0.0,0.0,0.0,0.0,0.5712,0.5608,0.0,0.0,0.0,0.0,0.0,0.0,0.3142,0.2362,0.0,0.0,0.0,0.0,0.0,0.0,0.0,0.0,0.0,0.0,0.0,0.0,0.0,0.0,-0.9881,-1.0387,-1.0899,-1.123,-1.1003,-1.1089,-1.1095,-1.0763,-1.0689,-1.0627,-1.0689,-1.0765,-1.0799,-1.0845,-1.0294,-0.974,-0.953,-0.898,-0.8788,-0.9659,-0.9801,-1.0504,-1.2687,-1.2262,-1.2416,-1.4476,-1.4586,-1.4443,-1.4482,-1.4825,-1.4897,-1.4751,-1.5019,-1.4897,-1.4391,-1.4219,-1.5926,-2.0154,-1.6751,-1.471,-1.471,-1.4706,-1.4518,-1.4062,-1.4135,-1.4112,-1.4085,-1.4289,-1.4271,-1.412,-1.3134,-1.3601,-1.5251,-1.5234,-1.4919,0.0,-1.4937,-1.484,-1.416,-1.3049,-1.3302,-1.44,-1.5009,-1.3462,-1.1143,0.0,0.0,0.0,0.0,0.0,0.0,0.0,0.0,0.0,0.0,0.0,0.0,0.0,0.0,-0.0168,0.0,0.0,0.0,0.0,0.0,0.0,0.0,0.0,0.0,0.0,0.0,0.3219,0.349,0.349,0.0,0.0,0.0,0.0,0.0,0.0,0.1549,0.0829,0.0,0.0,0.0,0.0,0.0,0.0,0.0,0.0,0.0,0.0,0.0,-0.7653,0.0,0.0,0.0,-0.8669,-0.9439,0.0,0.0,-1.135,-1.147,-1.1636,-1.1717,-1.1717,-1.1717,-1.1594,-1.1261,-1.058,-1.0084,-0.938,-0.8154,-0.8443,-0.8877,-0.8567,-0.9284,-1.0214,-1.1122,0.0,0.0,-1.2785,-1.36,-1.4287,-1.4776,-1.484,-1.4983,-1.5358,-1.5429,-1.3888,-1.0145,-0.987,-1.1223,-1.4379,-1.4284,-1.4062,-1.4062,-1.4128,-1.4108,-1.4072,-1.4139,-1.4088,-1.4088,-1.4119,-1.409,-1.4093,-1.2863,-1.2711,-1.3418,-1.3462,-1.3294,0.0,-1.3309,-1.3264,-1.2977,-1.2472,-1.2103,-1.1993,-1.3089,-1.2214,-1.0385,0.0,0.0,0.0,0.0,0.0,0.0,0.0,0.0,0.0,0.0,0.0,0.0,0.0,0.0,-0.0227,-0.0728,0.0,0.0,0.0,0.0,0.0,0.0,0.0,0.0,0.0,0.0,0.0,0.156,0.156,0.1336,0.0,0.0,0.089,0.089,0.0,0.0,0.0,0.0,0.0,0.0,0.0,0.0,0.0,0.0,0.0,0.0,0.0,0.0,0.0,0.0,0.0,0.0,0.0,0.0,0.0,0.0,-1.0829,-1.131,-1.1883,-1.2137,-1.2305,-1.2392,-1.197,-1.1303,-1.0438,-0.9592,-0.8555,-0.7353,-0.7837,-0.8382,-0.7777,-0.8545,-0.9352,0.0,0.0,-1.0432,-1.095,-1.2101,-1.3086,-1.3679,-1.4047,-1.4472,-1.5019,-1.4791,-1.2985,-0.8865,-0.7596,-0.7805,-0.945,-1.1094,-1.2032,-1.2003,-1.3414,-1.4064,-1.409,-1.409,-1.409,-1.409,-1.4064,-1.3372,-1.1993,-1.1155,-1.0643,-1.0623,-1.1783,-1.2287,0.0,-1.2317,-1.2276,-1.2166,-1.0998,-0.997,-0.9216,-1.0198,-1.0296,-0.9824,0.0,0.0,0.0,0.0,0.0,0.0,0.0,0.0,0.0,0.0,0.0,0.0,0.0,0.0,0.0,0.0,0.0,0.0,0.0,0.0,0.0,0.0,0.0,0.0,0.0,0.0,0.0,0.0,0.0,-0.0723,-0.2174,-0.2174,-0.2174,-0.2174,0.0,0.0,0.0,0.0,0.0,0.0,0.0,0.0,0.0,0.0,0.0,0.0,0.0,0.0,0.0,0.0,0.0,0.0,0.0,0.0,0.0,0.0,-0.9556,-1.0739,-1.123,-1.1883,-1.2385,-1.2721,-1.1717,-1.0629,-1.0614,-0.8786,-0.7302,-0.7836,-0.7288,-0.7016,-0.7815,-0.7765,-0.7696,-0.8175,0.0,0.0,-0.9243,-0.9873,-1.0312,-1.0573,-1.1791,-1.2734,-1.3182,-1.2425,-1.1945,-1.1816,-0.8942,-0.7096,-0.7098,-0.7146,-0.7135,-0.7163,-1.1635,-1.4117,-1.4117,-1.4117,-1.4117,-1.4117,-1.4117,-1.1696,-0.7202,-0.7199,-0.6862,-0.6574,-1.055,-1.2286,0.0,-1.2283,-1.2283,-1.1866,-0.7929,-0.6352,-0.6352,-0.6352,-0.7647,-0.9,0.0,0.0,0.0,0.0,0.0,0.0,0.0,0.0,0.0,0.0,0.0,0.0,0.0,0.0,0.0,0.0,0.0,0.0,0.0,0.0,0.0,0.0,0.0,0.0,0.0,0.0,0.0,0.0,0.0,-0.1728,-0.2174,-0.2174,-0.2174,-0.2232,-0.2788,-0.3082,0.0,0.0,0.0,0.0,0.0,0.0,0.0,0.0,0.0,0.0,0.0,0.0,0.0,0.0,0.0,0.0,0.0,0.0,0.0,0.0,0.0,0.0,-1.0673,-1.1141,-1.131,-1.0819,-1.0341,-0.9698,-0.8466,-0.746,-0.6684,-0.63,-0.6506,-0.6788,-0.7064,-0.7538,-0.7907,-0.8138,-0.8015,0.0,-0.8208,-0.8147,-0.8146,-0.8206,-0.8559,-0.9018,-0.9555,-0.9368,-0.922,-0.9084,-0.7941,-0.7339,-0.7346,-0.72,-0.7095,-0.7131,-0.8578,-0.9287,-0.9325,-0.9325,-0.9325,-0.9325,-0.9287,-0.8554,-0.7063,-0.7086,-0.7014,-0.6866,-0.7827,-0.822,-0.8174,-0.8174,-0.8197,-0.8075,-0.6798,-0.6266,-0.6294,-0.6294,-0.6703,-0.7196,0.0,0.0,0.0,0.0,0.0,0.0,0.0,0.0,0.0,0.0,0.0,0.0,0.0,-0.0314,-0.0496,-0.0481,0.0,0.0,0.0,0.0,0.0,0.0,0.0,0.0,0.0,0.0,0.0,0.0,0.0,0.0,0.0,0.0,-0.3046,-0.2957,-0.3504,-0.3627,0.0,0.0,0.0,0.0,0.0,0.0,-0.4811,0.0,0.0,0.0,0.0,0.0,0.0,0.0,0.0,0.0,0.0,0.0,0.0,0.0,-0.8718,-0.9583,0.0,-1.0199,-1.038,-0.9735,-0.9168,-0.8481,-0.7487,-0.6738,-0.6047,-0.5498,-0.5841,-0.6187,-0.6187,-0.6664,-0.7124,-0.7303,-0.7142,-0.7116,-0.7301,-0.7101,-0.6946,-0.7073,-0.7216,-0.7426,-0.7828,-0.7933,-0.7909,-0.7845,-0.7648,-0.7509,-0.7461,-0.7255,-0.7126,-0.7099,-0.7099,-0.7082,-0.7131,-0.7131,-0.7131,-0.7131,-0.7082,-0.7099,-0.7095,-0.7125,-0.709,-0.7087,-0.6505,-0.6261,0.0,-0.6287,-0.6283,-0.6307,-0.6307,-0.6321,-0.6268,-0.6268,-0.6268,-0.6268,0.0,0.0,0.0,0.0,0.0,0.0,0.0,0.0,0.0,0.0,-0.0202,-0.02,-0.0195,-0.0905,-0.1404,0.0,0.0,0.0,0.0,0.0,0.0,0.0,0.0,0.0,0.0,0.0,0.0,-0.3398,-0.3456,-0.3846,-0.4519,0.0,0.0,0.0,-0.4246,0.0,0.0,0.0,0.0,0.0,0.0,0.0,0.0,0.0,0.0,0.0,0.0,0.0,0.0,0.0,0.0,0.0,0.0,0.0,0.0,0.0,0.0,0.0,0.0,-0.9162,-0.9551,-0.9151,-0.8043,-0.7092,-0.73,-0.6324,0.0,-0.5428,-0.5428,-0.5428,-0.5428,-0.553,-0.5656,-0.581,-0.5911,-0.6131,-0.667,-0.6782,-0.6819,-0.7134,-0.7415,-0.7624,-0.7601,-0.7822,-0.8038,-0.8038,-0.7667,-0.7503,-0.7503,-0.7031,-0.6871,-0.6871,-0.6871,-0.6871,-0.6959,-0.6962,-0.6962,-0.6871,-0.6874,-0.6874,-0.6871,-0.6871,-0.6893,0.0,-0.6182,-0.5885,-0.5848,-0.5871,-0.5814,-0.5814,-0.5814,-0.5886,-0.5879,-0.62,-0.6281,-0.6278,0.0,0.0,0.0,0.0,0.0,0.0,0.0,0.0,0.0,0.0,-0.2078,-0.2072,-0.2059,-0.2255,-0.236,0.0,0.0,0.0,0.0,0.0,0.0,0.0,0.0,0.0,0.0,0.0,0.0,-0.4236,-0.4236,-0.4349,-0.4519,-0.4519,0.0,0.0,0.0,0.0,0.0,0.0,0.0,0.0,0.0,0.0,0.0,0.0,0.0,0.0,-0.7656,-0.789,0.0,0.0,0.0,0.0,0.0,0.0,0.0,0.0,-0.8454,-0.809,-0.7618,0.0,-0.8678,-0.725,-0.6883,-0.6668,0.0,0.0,0.0,0.0,-0.5428,-0.5428,-0.5428,-0.553,-0.5679,-0.5759,-0.5878,-0.6143,-0.6666,-0.7108,-0.7446,-0.7488,-0.7703,-0.7851,-0.7627,-0.7808,-0.8038,-0.8038,-0.6885,-0.6261,-0.6261,-0.511,-0.4461,-0.4461,-0.4461,-0.4727,-0.5351,-0.5622,-0.5356,-0.4461,-0.5001,-0.5001,-0.4461,-0.4461,-0.4414,-0.4325,-0.2362,-0.1485,-0.1451,-0.1496,-0.148,-0.148,-0.148,-0.148,-0.187,-0.5093,-0.6291,-0.5811,0.0,0.0,0.0,0.0,0.0,0.0,0.0,0.0,0.0,0.0,0.0,0.0,0.0,0.0,0.0,0.0,0.0,0.0,0.0,0.0,0.0,0.0,0.0,0.0,0.0,0.0,0.0,0.0,0.0,-0.4519,0.0,0.0,0.0,0.0,0.0,0.0,0.0,0.0,0.0,0.0,-0.403,0.0,0.0,0.0,0.0,0.0,-0.6856,-0.7115,0.0,-0.7483,-0.767,-0.7777,0.0,0.0,0.0,0.0,-0.8208,-0.789,-0.6849,-0.7101,-0.7341,-0.6129,-0.5937,-0.5977,-0.5498,0.0,0.0,0.0,-0.5428,-0.5449,-0.5454,-0.5182,-0.5021,-0.5164,-0.541,-0.571,-0.6108,-0.6017,-0.6138,-0.682,-0.6963,-0.7043,-0.6924,-0.6952,-0.683,-0.6224,-0.5333,-0.4836,-0.4836,-0.4108,-0.357,-0.357,-0.357,-0.3837,-0.4283,-0.4463,-0.4283,-0.357,-0.4018,-0.4018,-0.357,-0.357,-0.3374,-0.2986,-0.1631,-0.0672,0.0,0.0,0.0,0.0,0.0,0.0,-0.0312,-0.2581,-0.2813,-0.148,0.0,0.0,0.0,0.0,0.0,0.0,0.0,0.0,0.0,0.0,0.0,0.0,0.0,0.0,0.0,0.0,0.0,0.0,0.0,0.0,0.0,0.0,0.0,0.0,0.0,0.0,0.0,0.0,0.0,0.0,0.0,0.0,-0.5165,0.0,0.0,0.0,0.0,0.0,-0.4174,-0.418,-0.403,0.0,0.0,0.0,0.0,0.0,0.0,0.0,0.0,-0.6241,-0.6739,-0.7396,-0.7503,0.0,0.0,0.0,0.0,0.0,-0.6384,-0.6079,-0.602,-0.5536,-0.5428,-0.5428,-0.5428,0.0,0.0,0.0,0.0,-0.5212,-0.5168,-0.4517,-0.4074,-0.4249,-0.4582,-0.501,-0.5225,-0.4531,-0.4414,-0.5484,-0.5626,-0.5706,-0.5664,-0.5708,-0.5218,-0.41,-0.3681,-0.3509,-0.3498,-0.3191,-0.3037,-0.3037,-0.3037,-0.3037,-0.3037,-0.3215,-0.3215,-0.3037,-0.3037,-0.3037,-0.3037,-0.3037,-0.2683,-0.2058,0.0,0.0,0.0,0.0,0.0,0.0,0.0,0.0,0.0,0.0,0.1095,0.2969,0.0,0.0,0.0,0.0,0.0,0.0,0.0,0.0,0.0,0.0,0.0,0.0,0.0,0.0,0.0,0.0,0.0,0.0,0.0,0.0,0.0,0.0,0.0,0.0,0.0,0.0,0.0,0.0,0.0,0.0,-0.5324,-0.5404,-0.5664,-0.5928,0.0,-0.4422,-0.4872,-0.4285,-0.408,-0.418,-0.403,0.0,0.0,0.0,0.0,0.0,0.0,0.0,0.0,-0.6318,-0.6225,-0.5923,-0.6583,0.0,0.0,0.0,0.0,0.0,-0.6233,-0.6047,-0.578,-0.5483,-0.5428,-0.5428,-0.5428,0.0,0.0,0.0,0.0,0.0,-0.3289,-0.3132,-0.3126,-0.317,-0.3537,-0.3886,-0.393,-0.3966,-0.4008,-0.3998,-0.4197,-0.4237,-0.4032,-0.4139,-0.4191,-0.403,-0.2888,-0.2266,-0.2321,-0.1181,-0.0539,-0.0539,-0.0539,-0.0539,-0.0539,-0.1522,-0.1522,-0.0539,-0.0539,-0.0539,-0.0539,-0.0539,-0.0449,-0.0359,0.0,-0.0258,0.0,0.0,0.0,0.0,0.0,0.0,0.0,0.0,0.0235,0.0862,0.0,0.0,0.0,0.0,0.0,0.0,0.0,0.0,0.0,0.0,0.0,0.0,0.0,0.0,0.0,0.0,0.0,0.0,0.0,0.0,0.0,0.0,0.0,0.0,0.0,0.0,0.0,0.0,0.0,-0.468,-0.4948,-0.5177,-0.5349,-0.5471,0.0,-0.4583,-0.4477,-0.4323,-0.4253,-0.419,0.0,0.0,0.0,0.0,0.0,0.0,0.0,0.0,0.0,0.0,-0.5492,-0.5542,-0.5928,0.0,0.0,0.0,0.0,0.0,-0.5645,-0.52,-0.4798,-0.4685,-0.4791,-0.489,-0.489,0.0,0.0,0.0,0.0,0.0,-0.2848,-0.2398,-0.2114,-0.2405,-0.1977,-0.1907,-0.2647,-0.2181,-0.2085,-0.266,-0.2799,-0.2833,-0.2744,-0.2886,-0.2594,-0.1863,-0.1251,-0.0944,-0.0925,-0.0363,0.0,0.0,0.0,0.0,0.0,-0.0539,-0.0539,0.0,0.0,0.0,0.0,0.0,0.0,0.0,0.0,0.0,0.0,0.0,0.0,0.0,0.0,0.0392,0.1019,0.2112,0.2895,0.3602,0.0,0.0,0.0,0.0,0.0,0.0,0.0,0.0,0.0,0.0,0.0,0.0,0.0,0.0,0.0,0.0,0.0,0.0,0.0,0.0,0.0,0.0,0.0,0.0,0.0,0.0,-0.4745,-0.4745,-0.4626,-0.4661,-0.4786,-0.5049,-0.5155,0.0,0.0,-0.4606,-0.4134,-0.4294,-0.4317,-0.4197,0.0,0.0,0.0,0.0,0.0,0.0,0.0,0.0,0.0,0.0,0.0,0.0,0.0,0.0,0.0,-0.5715,-0.5525,-0.5369,-0.4938,-0.432,-0.3792,-0.3808,0.0,-0.41,-0.4042,-0.3332,0.0,0.0,0.0,-0.2324,-0.2272,-0.156,-0.1139,-0.145,-0.0659,-0.037,-0.1344,-0.0659,-0.0374,-0.1444,-0.1545,-0.1562,-0.1507,-0.1511,-0.11,-0.0098,0.0,0.0094,0.037,0.0454,0.0539,0.0807,0.0807,0.0807,0.0807,0.0807,0.0539,0.0,0.0,0.0,0.0,0.0269,0.0449,0.0449,0.0718,0.0886,0.0867,0.0849,0.083,0.081,0.0712,0.1254,0.2113,0.375,0.4849,0.5562,0.0,0.0,0.0,0.0,0.0,0.0,0.0,0.0,0.0,0.0,0.0,0.0,0.0,0.0,0.0,0.0,0.0,0.0,0.0,0.0,0.0,0.0,0.0,0.0,0.0,-0.4908,-0.4904,-0.4904,-0.4891,-0.5162,-0.569,-0.5559,-0.5458,-0.5441,0.0,-0.4314,-0.447,-0.4158,-0.4076,-0.4197,-0.4197,0.0,0.0,0.0,0.0,0.0,0.0,0.0,0.0,0.0,0.0,0.0,0.0,0.0,-0.4689,-0.4876,-0.4415,-0.3794,-0.4012,-0.3608,-0.318,-0.3194,-0.3017,0.0,-0.2835,-0.2794,0.0,-0.1545,-0.1403,-0.1179,-0.0323,-0.0168,-0.0088,-0.018,-0.0093,0.0,-0.01,-0.01,0.0,-0.0101,-0.0101,-0.0101,-0.0101,-0.0101,-0.01,0.0,0.0,0.0472,0.1572,0.163,0.2147,0.3303,0.3303,0.3303,0.3303,0.3303,0.2236,0.0,0.0,0.0,0.0,0.1165,0.17,0.1701,0.2858,0.3354,0.3373,0.3214,0.3142,0.315,0.2917,0.289,0.3046,0.3124,0.3279,0.3435,0.0,0.0,0.0,0.0,0.0,0.0,0.0,0.0,0.0,0.0,0.0,0.0,0.0,0.0,0.0,0.0,0.0,0.0,0.0,0.0,0.0,0.0,0.0,-0.7629,-0.6836,-0.671,-0.6643,-0.6643,-0.6587,-0.6607,-0.6876,-0.6606,0.0,0.0,0.0,-0.4731,-0.4328,-0.4304,-0.4277,-0.4204,-0.4345,-0.4382,0.0,0.0,0.0,0.0,0.0,0.0,0.0,0.0,-0.4519,-0.4519,0.0,0.0,-0.4577,-0.483,-0.4302,-0.3673,-0.3954,-0.2997,-0.1962,-0.1962,-0.1504,0.0,0.0,-0.1534,-0.0954,-0.055,-0.0482,-0.0411,-0.0083,0.0,0.0,0.0,0.0,0.0,0.0,0.0,0.0,0.0,0.0,0.0,0.0,0.0706,0.1199,0.1275,0.1923,0.2543,0.3044,0.2983,0.3126,0.357,0.357,0.357,0.357,0.357,0.3126,0.2236,0.2236,0.2236,0.2236,0.2681,0.2948,0.2948,0.3392,0.3643,0.3613,0.3538,0.3461,0.3378,0.3887,0.4062,0.4139,0.4844,0.5079,0.5157,0.0,0.0,0.0,0.0,0.0,0.0,0.0,0.0,0.0,0.0,0.0,0.0,0.0,0.0,0.0,0.0,0.0,0.0,0.0,0.0,0.0,0.0,0.0,-0.8678,-0.842,-0.857,-0.8351,-0.7787,-0.7629,-0.7581,-0.7576,0.0,0.0,0.0,0.0,-0.4834,-0.4321,-0.4372,-0.4365,-0.4324,-0.4423,-0.4519,0.0,0.0,0.0,0.0,0.0,0.0,0.0,0.0,-0.4519,-0.4519,0.0,0.0,0.0,0.0,-0.3698,-0.2851,-0.3053,-0.2049,-0.0876,-0.0891,0.0,0.0,-0.1069,-0.0582,0.0,0.0,0.0,0.0,0.0,0.0,0.0,0.0,0.0394,0.0605,0.0605,0.1008,0.131,0.131,0.131,0.131,0.131,0.2113,0.26,0.2665,0.337,0.3962,0.437,0.4258,0.4372,0.4727,0.4727,0.4727,0.4727,0.4727,0.4727,0.4727,0.4727,0.4283,0.357,0.4016,0.4194,0.4194,0.455,0.4727,0.4721,0.4628,0.4509,0.4376,0.5039,0.5268,0.5315,0.6405,0.6795,0.6795,0.0,0.0,0.0,0.0,0.0,0.0,0.0,0.0,0.0,0.0,0.0,0.0,0.0,0.0,0.0,0.0,0.0,0.0,0.0,0.0,0.0,0.0,0.0,-1.0174,-0.9338,-1.0174,-0.9779,-0.8027,-0.7797,-0.7742,-0.7675,-0.6675,0.0,0.0,0.0,-0.4519,-0.4508,-0.4311,-0.4331,-0.4519,-0.4519,-0.4519,-0.4519,0.0,0.0,0.0,0.0,0.0,0.0,0.0,-0.4519,-0.4463,0.0,0.0,0.0,0.0,-0.2422,-0.1126,-0.1299,-0.0655,0.0,0.0,0.0,0.0,0.0,0.0,0.0,0.0,0.0,0.0,0.0,0.0,0.0,0.0,0.1179,0.2013,0.2013,0.3115,0.4016,0.4016,0.4016,0.4016,0.4016,0.4016,0.4016,0.4016,0.3881,0.4366,0.5593,0.5479,0.5894,0.7051,0.7139,0.7139,0.7139,0.7139,0.7139,0.7139,0.7139,0.5885,0.3659,0.491,0.5447,0.5447,0.6605,0.7139,0.7129,0.6987,0.6749,0.6474,0.6474,0.6386,0.6416,0.7403,0.7783,0.7936,0.0,0.0,0.0,0.0,0.0,0.0,0.0,0.0,0.0,0.0,0.0,0.0,0.0,0.0,0.0,0.0,0.0,0.0,0.0,0.0,0.0,0.0,0.0,0.0,0.0,0.0,-1.0364,-0.9843,-0.9756,-0.9397,0.0,0.0,0.0,-0.6125,0.0,-0.5061,-0.4515,-0.4419,-0.4423,-0.4519,-0.4519,-0.4519,-0.4519,0.0,0.0,0.0,0.0,0.0,0.0,0.0,0.0,0.0,0.0,0.0,0.0,-0.275,-0.2005,-0.113,-0.1296,-0.0654,0.0,0.0,0.0,0.0,0.0,0.0,0.0,0.0,0.0725,0.144,0.137,0.2198,0.2841,0.2767,0.3138,0.3416,0.3416,0.3715,0.4016,0.4016,0.4016,0.4016,0.4016,0.482,0.5425,0.5425,0.6184,0.6736,0.7029,0.6854,0.6889,0.7054,0.7139,0.7139,0.7139,0.7139,0.7139,0.7139,0.7139,0.6694,0.6065,0.6425,0.6605,0.6605,0.6962,0.7139,0.7129,0.6987,0.6875,0.6773,0.6556,0.6447,0.6476,0.668,0.7173,0.7859,0.0,0.0,0.0,0.0,0.0,0.0,0.0,0.0,0.0,0.0,0.0,0.0,0.0,0.0,0.0,0.0,0.0,0.0,0.0,0.0,0.0,0.0,0.0,0.0,0.0,-1.0624,-1.0501,0.0,0.0,0.0,0.0,0.0,0.0,-0.6745,0.0,-0.5223,-0.4999,-0.4495,-0.4287,-0.4294,-0.4351,-0.4375,-0.4385,0.0,0.0,0.0,0.0,0.0,0.0,0.0,0.0,0.0,0.0,0.0,0.0,-0.1892,-0.1343,-0.0686,-0.0727,-0.0381,0.0,0.0,0.0,0.0085,0.0602,0.069,0.07,0.0824,0.184,0.2767,0.2824,0.3419,0.3987,0.3997,0.4453,0.482,0.482,0.522,0.562,0.562,0.562,0.562,0.562,0.6326,0.6833,0.6833,0.7403,0.775,0.7607,0.7455,0.7299,0.7146,0.7139,0.7139,0.7139,0.7139,0.7139,0.7139,0.7139,0.7139,0.7139,0.7139,0.7139,0.7139,0.7577,0.7577,0.7132,0.7567,0.7662,0.758,0.7458,0.7539,0.7803,0.8164,0.853,0.9064,0.0,0.0,0.0,0.0,0.0,0.0,0.0,0.0,0.0,0.0,0.0,0.0,0.0,0.0,0.0,0.0,0.0,0.0,0.0,0.0,0.0,0.0,0.0,0.0,0.0,0.0,0.0,0.0,0.0,0.0,0.0,0.0,-0.6943,-0.7474,0.0,-0.528,-0.5801,-0.4601,-0.4069,-0.4079,-0.4172,-0.4174,-0.419,-0.4372,0.0,0.0,0.0,0.0,0.0,0.0,0.0,0.0,-0.233,-0.1566,-0.1006,-0.1024,-0.0499,0.0,0.0,0.0,0.0,0.0175,0.0261,0.0598,0.1686,0.2058,0.2161,0.2119,0.3095,0.4012,0.4197,0.427,0.4316,0.4316,0.5422,0.6229,0.6229,0.7235,0.8038,0.8038,0.8038,0.8038,0.8038,0.8038,0.8038,0.8038,0.7913,0.777,0.7628,0.7475,0.7322,0.7166,0.7146,0.7139,0.7139,0.7228,0.7228,0.7139,0.7228,0.7228,0.7139,0.7139,0.7139,0.7139,0.8364,0.8277,0.7316,0.854,0.8962,0.8883,0.8865,0.922,0.9838,1.0762,1.0994,1.101,0.0,0.0,0.0,0.0,0.0,0.0,0.0,0.0,0.0,0.0,0.0,0.0,0.0,0.0,0.0,0.0,0.0,0.0,0.0,0.0,0.0,0.0,0.0,0.0,0.0,0.0,0.0,0.0,0.0,0.0,0.0,0.0,0.0,-0.6679,0.0,-0.6454,-0.6342,-0.5212,-0.4709,-0.4664,-0.4203,-0.402,-0.4073,-0.4104,-0.4189,0.0,0.0,0.0,0.0,0.0,0.0,0.0,-0.1567,-0.081,-0.0258,-0.0269,-0.0141,0.0,0.0,0.0,0.025,0.1187,0.2166,0.2915,0.3118,0.3929,0.4422,0.356,0.4446,0.537,0.556,0.6412,0.7129,0.7129,0.7335,0.7537,0.7537,0.7839,0.8038,0.8038,0.8038,0.8038,0.8038,0.8038,0.8038,0.8038,0.8011,0.7926,0.7773,0.7631,0.7478,0.7326,0.7204,0.7139,0.7139,0.8017,0.8013,0.7139,0.8105,0.8017,0.7139,0.7139,0.7139,0.7139,0.8364,0.8715,0.8627,0.9749,1.024,1.0181,1.009,1.0133,1.0275,1.0353,1.0897,1.1569,0.0,0.0,0.0,0.0,0.0,0.0,0.0,0.0,0.0,0.0,0.0,0.0,0.0,0.0,0.0,0.0,0.0,0.0,0.0,0.0,0.0,0.0,0.0,0.0,0.0,0.0,0.0,0.0,0.0,0.0,0.0,0.0,0.0,-0.7765,0.0,-0.6464,-0.6704,-0.506,-0.4348,-0.4236,-0.4024,-0.391,-0.3917,-0.3992,-0.402,-0.4097,-0.417,0.0,0.0,0.0,0.0,0.0,0.0,0.0,0.0,0.0,0.0,0.0,0.0,0.0,0.0329,0.1457,0.3164,0.4463,0.4463,0.5356,0.6143,0.574,0.6167,0.6721,0.6886,0.7537,0.8038,0.8038,0.8038,0.8038,0.8038,0.8038,0.8038,0.8038,0.8038,0.8237,0.8924,0.892,0.9213,0.9801,0.9312,0.9139,0.9627,0.8402,0.7875,0.8276,0.7649,0.7214,0.7139,0.7753,0.8017,0.7929,0.8627,0.8886,0.8703,0.7573,0.7749,0.879,0.9401,0.9753,0.9836,1.0956,1.1381,1.137,1.133,1.155,1.194,1.1811,1.2097,1.2399,0.0,0.0,0.0,0.0,0.0,0.0,0.0,0.0,0.0,0.0,0.0,0.0,0.0,0.0,0.0,0.0,0.0,0.0,0.0,0.0,0.0,0.0,0.0,0.0,0.0,0.0,0.0,0.0,0.0,-0.8477,-0.7619,-0.6686,0.0,-0.8897,0.0,-0.6195,-0.6854,-0.4808,-0.3908,-0.3801,-0.3763,-0.3754,-0.3768,-0.3894,-0.3958,-0.3995,-0.4073,-0.369,-0.3023,-0.2397,0.0,0.0,0.0,0.0,0.0,0.0,0.0,0.0,0.0159,0.0566,0.1134,0.2193,0.4109,0.5716,0.5716,0.6428,0.7221,0.7502,0.7584,0.7689,0.7984,0.8038,0.8038,0.8038,0.8038,0.8038,0.8333,0.8333,0.8432,0.8627,0.8627,0.9118,1.0194,1.0288,1.0779,1.1848,1.0877,1.0706,1.1677,0.9636,0.8812,0.9582,0.8643,0.7919,0.7661,0.7661,0.8185,0.9235,0.9235,0.9749,1.0778,0.8703,0.879,1.0611,1.0783,1.0864,1.0956,1.2157,1.2589,1.2589,1.2589,1.3065,1.3721,1.3721,1.3567,1.336,0.0,0.0,0.0,0.0,0.0,0.0,0.0,0.0,0.0,0.0,0.0,0.0,0.0,0.0,0.0,0.0,0.0,0.0,0.0,0.0,0.0,0.0,0.0,0.0,0.0,0.0,0.0,0.0,0.0,-0.8034,-0.828,-0.8012,-0.7868,-0.7881,-0.6889,-0.6534,-0.6597,-0.5154,-0.4566,-0.4491,-0.3875,-0.3609,-0.3609,-0.3632,-0.3717,-0.3826,-0.3846,-0.3535,-0.2991,-0.2294,-0.1605,0.0,0.0,0.0,0.0,0.0,0.0,0.0145,0.0886,0.2669,0.4371,0.4766,0.5891,0.6874,0.6874,0.6962,0.719,0.7366,0.7506,0.7689,0.7984,0.8038,0.8038,0.8038,0.8038,0.8432,0.9608,0.9706,1.0096,1.1263,1.1361,1.1463,1.1653,1.1658,1.1755,1.1848,1.175,1.1741,1.1905,1.1431,1.112,1.1059,1.0775,1.048,1.0178,1.0091,1.0178,1.0351,1.0351,1.095,1.2066,1.0692,1.0265,1.0697,1.1638,1.2072,1.2157,1.3385,1.3822,1.3822,1.3822,1.3886,1.4028,1.4028,1.4001,1.3968,0.0,0.0,0.0,0.0,0.0,0.0,0.0,0.0,0.0,0.0,0.0,0.0,0.0,0.0,0.0,0.0,0.0,0.0,0.0,0.0,0.0,0.0,-0.9713,0.0,0.0,0.0,0.0,0.0,-0.7943,-0.7699,-0.7758,-0.7124,-0.721,-0.7843,-0.6653,-0.6211,0.0,-0.4972,-0.4338,-0.4159,-0.3862,-0.3849,-0.4089,-0.3707,-0.3877,-0.4263,-0.4009,-0.3586,-0.3,-0.2322,-0.1654,-0.0986,-0.0255,0.0,0.0,0.0,0.0411,0.0212,0.1271,0.3188,0.4997,0.5303,0.6248,0.7139,0.7139,0.7139,0.7183,0.7339,0.7492,0.7662,0.7872,0.798,0.8237,0.9019,0.9118,0.9608,1.0877,1.1072,1.1268,1.1848,1.1945,1.2237,1.2915,1.3006,1.3301,1.3986,1.3397,1.3301,1.4076,1.2619,1.2078,1.2598,1.171,1.1115,1.0885,1.0671,1.0956,1.1552,1.2254,1.2863,1.3294,1.2778,1.2522,1.2522,1.2419,1.2674,1.3379,1.3906,1.4088,1.4088,1.4088,1.4088,1.4088,1.4088,1.4088,1.4088,0.0,0.0,0.0,0.0,0.0,0.0,0.0,0.0,0.0,0.0,0.0,0.0,0.0,0.0,0.0,0.0,0.0,0.0,0.0,0.0,0.0,-0.9566,-0.9359,-0.9183,-0.9183,0.0,0.0,0.0,-0.7723,-0.7422,-0.6933,-0.6195,-0.6354,-0.7288,-0.6079,-0.5575,-0.5563,-0.462,-0.4066,-0.3914,-0.3988,-0.4219,-0.4539,-0.4209,-0.4379,-0.4802,-0.4351,-0.3663,-0.2916,-0.2354,-0.1581,-0.072,-0.0189,0.0,0.0,0.0,0.0,0.0953,0.2173,0.3783,0.5249,0.5637,0.6328,0.7048,0.7122,0.7139,0.7173,0.7288,0.7434,0.7677,0.8104,0.8394,0.8825,0.9801,1.0293,1.0974,1.2237,1.2431,1.2528,1.2818,1.2915,1.3301,1.4268,1.4364,1.4752,1.573,1.4949,1.4752,1.573,1.398,1.329,1.4086,1.2945,1.2235,1.1927,1.1684,1.1729,1.2328,1.3555,1.4088,1.4088,1.4088,1.4088,1.4082,1.3118,1.3288,1.4088,1.4088,1.4088,1.4088,1.4088,1.4088,1.4088,1.4088,1.4088,1.4173,0.0,0.0,0.0,0.0,0.0,0.0,0.0,0.0,0.0,0.0,0.0,0.0,0.0,0.0,-0.9432,-0.8878,0.0,0.0,0.0,0.0,0.0,-0.9196,-0.919,0.0,-0.9183,0.0,0.0,-0.7723,-0.7723,-0.7149,-0.6053,-0.6044,-0.581,-0.5536,-0.5012,-0.4666,-0.4574,-0.4311,-0.4187,-0.4197,-0.4531,-0.4657,-0.4721,-0.5118,-0.536,-0.5332,-0.4816,-0.3811,-0.2636,-0.219,-0.1168,-0.0062,0.0,0.0,0.0,0.0,0.0,0.0,0.4058,0.5029,0.5912,0.6495,0.6639,0.6797,0.7078,0.7139,0.7143,0.7149,0.7275,0.7788,0.9132,0.9652,0.9899,0.9998,1.0974,1.2237,1.359,1.3776,1.4262,1.5439,1.5635,1.5635,1.573,1.573,1.573,1.5832,1.573,1.573,1.5832,1.5635,1.5503,1.5312,1.5193,1.4916,1.4348,1.4058,1.3385,1.2328,1.3555,1.4088,1.4088,1.4088,1.4088,1.4088,1.3997,1.3997,1.4088,1.4088,1.4088,1.4088,1.4088,1.4088,1.4088,1.4088,1.4088,1.425,0.0,0.0,0.0,0.0,0.0,0.0,0.0,0.0,0.0,0.0,0.0,0.0,0.0,-0.9399,-0.9239,-0.8844,-0.8804,0.0,0.0,0.0,0.0,-0.8958,-0.8965,-0.8965,-0.8965,-0.8965,-0.8309,-0.702,-0.702,-0.6421,-0.5275,-0.5229,-0.5168,-0.5203,-0.4948,-0.4806,-0.4738,-0.449,-0.4331,-0.4231,-0.4677,-0.5009,-0.5254,-0.5125,-0.5494,-0.5979,-0.524,-0.4662,-0.4083,-0.2966,-0.2029,-0.122,-0.0297,0.0,0.0,0.0,0.1656,0.3528,0.3622,0.464,0.5901,0.6315,0.6559,0.6729,0.6834,0.7004,0.7139,0.7139,0.7878,0.8671,0.9393,0.9733,1.043,1.2206,1.2909,1.3686,1.4949,1.5146,1.5337,1.573,1.5832,1.5832,1.5832,1.5832,1.5832,1.5832,1.5832,1.5832,1.5832,1.5832,1.5785,1.5678,1.5491,1.5117,1.4529,1.4229,1.3906,1.347,1.3913,1.4088,1.4088,1.4088,1.4088,1.4088,1.4088,1.4088,1.4088,1.4088,1.4088,1.4088,1.4088,1.4088,1.4088,1.4088,1.4088,1.4166,0.0,0.0,0.0,0.0,0.0,0.0,0.0,0.0,0.0,0.0,0.0,0.0,0.0,0.0,-0.9232,-0.8838,-0.8804,-0.8804,-0.8804,-0.8804,-0.8804,-0.8804,-0.8804,-0.8804,-0.8804,0.0,0.0,0.0,0.0,-0.6341,-0.484,-0.4969,-0.5058,-0.5053,-0.4908,-0.4843,-0.483,-0.4626,-0.4453,-0.4372,-0.4972,-0.5304,-0.544,-0.5494,-0.582,-0.61,-0.5136,-0.459,-0.4148,-0.2746,-0.1935,-0.1289,-0.0305,0.0,0.0059,0.037,0.1697,0.3138,0.3324,0.4253,0.5355,0.5895,0.6217,0.6451,0.6654,0.6851,0.7021,0.7119,0.8101,0.9208,0.994,1.051,1.1596,1.3628,1.4268,1.4848,1.5635,1.5832,1.5832,1.5832,1.5832,1.5832,1.5832,1.5832,1.5832,1.5832,1.5832,0.0,1.5832,1.5832,1.5832,1.5832,1.5545,1.5164,1.4676,1.4376,1.4182,1.4088,1.4088,1.4088,1.4088,1.4088,1.4088,1.4088,1.4088,1.4088,1.4088,1.4088,1.4088,1.4088,1.4088,1.4088,1.4173,1.4489,1.4657,1.4734,0.0,0.0,0.0,0.0,0.0,0.0,0.0,0.0,0.0,0.0,0.0,0.0,0.0,0.0,0.0,-0.8871,-0.8824,-0.8818,-0.8804,-0.8804,-0.8804,-0.8804,0.0,0.0,0.0,0.0,0.0,0.0,0.0,0.0,0.0,0.0,-0.5463,-0.4911,-0.4758,-0.4691,-0.4691,-0.4684,-0.4599,-0.4597,-0.544,-0.5538,-0.5264,-0.6305,-0.6342,-0.564,-0.4577,-0.3645,-0.2691,-0.153,-0.0654,0.0,0.0,0.0,0.0169,0.0989,0.1261,0.1659,0.0,0.0,0.0,0.5264,0.5694,0.5956,0.6539,0.6688,0.678,0.7068,0.8093,0.938,1.0815,1.2299,1.3371,1.388,1.4943,1.5832,1.5832,1.5832,1.5832,1.5832,1.5832,1.5832,1.5832,1.5832,1.5832,1.5832,1.5832,1.5832,1.5832,1.5832,1.5832,1.5832,1.5545,1.5264,1.4977,1.4669,1.4382,1.4102,1.4088,1.4088,1.4088,1.4088,1.4088,1.4088,1.4088,1.4088,1.4088,1.4088,1.4088,1.4088,1.4088,1.4088,1.425,1.5304,1.5696,1.6026,0.0,0.0,0.0,0.0,0.0,0.0,0.0,0.0,0.0,0.0,0.0,0.0,-0.9693,-0.9686,-0.9532,-0.9097,-0.9064,-0.9031,-0.8824,-0.8804,-0.8804,-0.8804,-0.8804,-0.8804,0.0,0.0,0.0,0.0,0.0,0.0,0.0,0.0,0.0,0.0,-0.4758,-0.4691,-0.4684,-0.4572,-0.4556,-0.4597,-0.544,-0.5728,-0.5694,-0.6424,-0.6226,-0.5401,-0.4933,-0.3927,-0.2778,-0.1867,-0.1216,-0.0683,-0.0178,0.0,0.0056,0.0291,0.0828,0.1382,0.1884,0.0,0.0,0.0,0.0,0.0,0.6013,0.6386,0.6722,0.6807,0.861,1.0333,1.0992,1.2786,1.4289,1.4849,1.5402,1.5832,1.5832,1.5832,1.5832,1.5832,1.5832,1.5832,1.5832,1.5832,1.5832,0.0,1.5832,1.5832,1.5832,1.5832,1.5832,1.5832,1.5545,1.5357,1.5277,1.477,1.4482,1.4396,1.4188,1.4088,1.4088,1.4088,1.4088,1.4088,1.4088,1.4088,1.4088,1.4088,1.4088,1.4088,1.4088,1.4088,1.4173,1.4412,1.5054,1.5779,0.0,0.0,0.0,0.0,0.0,0.0,0.0,0.0,0.0,0.0,0.0,0.0,-0.988,-0.9753,-0.9566,-0.921,-0.9183,-0.9064,-0.8824,-0.8804,-0.8804,-0.8804,-0.8804,-0.8804,-0.8804,0.0,0.0,0.0,0.0,0.0,0.0,0.0,0.0,0.0,0.0,-0.4596,-0.4589,-0.4556,-0.4519,-0.4597,-0.544,-0.5688,-0.5537,-0.5839,-0.5487,-0.47,-0.3756,-0.2843,-0.2042,-0.133,-0.0833,-0.058,-0.0127,0.0,0.0,0.0,0.0349,0.0827,0.1148,0.1999,0.3021,0.3744,0.0,0.0,0.5862,0.6264,0.6586,0.6834,0.8476,1.0135,1.0782,1.2476,1.4083,1.488,1.5378,1.5691,1.5812,1.5832,1.5832,1.5832,1.5832,1.5832,1.5832,1.5832,1.5832,1.5832,1.5832,1.5832,1.5832,1.5832,1.5832,1.5832,1.5665,1.5518,1.5398,1.5057,1.4823,1.4703,1.4409,1.4269,1.4262,1.4142,1.4088,1.4088,1.4088,1.4088,1.4088,1.4088,1.4088,1.4088,1.4088,1.4088,1.4166,1.4573,1.5137,1.5861,0.0,0.0,0.0,0.0,0.0,0.0,0.0,0.0,0.0,0.0,0.0,0.0,0.0,0.0,0.0,0.0,-0.925,-0.9165,-0.8878,-0.8824,-0.8804,-0.8804,-0.8804,-0.8804,-0.8804,0.0,0.0,0.0,0.0,0.0,0.0,0.0,0.0,0.0,0.0,0.0,-0.4519,-0.4519,-0.4546,-0.4609,-0.5423,-0.5463,-0.4982,-0.4899,-0.4393,-0.3541,-0.1972,-0.1166,-0.0905,-0.026,0.0,0.0,0.0,0.0,0.0,0.0,0.0,0.0118,0.0795,0.1139,0.1712,0.329,0.3852,0.0,0.5881,0.6186,0.6359,0.6881,0.7962,0.9108,1.0208,1.166,1.2942,1.4097,1.4796,1.5337,1.5725,1.5805,1.5832,1.5832,1.5832,1.5832,1.5832,1.5832,1.5832,1.5832,1.5832,1.5832,1.5832,1.5832,1.5832,1.5832,1.5832,1.5705,1.5444,1.5411,1.5264,1.501,1.471,1.4556,1.4509,1.4255,1.4115,1.4088,1.4088,1.4088,1.4088,1.4088,1.4088,1.4088,1.4088,1.4088,1.425,1.5137,1.5621,1.6026,0.0,0.0,0.0,0.0,0.0,0.0,0.0,0.0,0.0,0.0,0.0,0.0,0.0,0.0,0.0,0.0,-0.9733,-0.9472,-0.9117,-0.8938,-0.8804,-0.8804,-0.8804,-0.8804,-0.8804,-0.8864,0.0,0.0,0.0,0.0,0.0,0.0,0.0,0.0,0.0,0.0,-0.4519,-0.4519,-0.467,-0.5026,-0.5328,-0.4983,-0.4239,-0.4751,-0.3813,-0.2159,-0.1845,-0.1036,-0.0166,-0.008,0.0,0.0,0.0,0.0,0.0,0.0,0.0,0.0063,0.0178,0.0768,0.1571,0.2643,0.3462,0.0,0.5345,0.5722,0.5922,0.604,0.7169,0.8461,0.9398,1.0523,1.164,1.2579,1.344,1.4335,1.5337,1.5678,1.5832,1.5832,1.5832,1.5832,1.5832,1.5832,1.5832,1.5832,1.5832,1.5832,1.5832,1.5832,1.5832,1.5832,1.5832,1.5798,1.5745,1.5511,1.5364,1.5311,1.5017,1.475,1.4516,1.4462,1.4309,1.4088,1.4088,1.4088,1.4088,1.4088,1.4088,1.4088,1.4088,1.4088,1.4173,1.4328,1.4977,1.5861,0.0,0.0,0.0,0.0,0.0,0.0,0.0,0.0,0.0,0.0,0.0,0.0,-1.0624,-1.0624,0.0,0.0,0.0,0.0,0.0,-0.905,-0.8958,-0.8811,-0.8804,-0.8646,-0.8262,-0.8262,-0.7883,0.0,0.0,0.0,0.0,0.0,0.0,0.0,0.0,0.0,-0.4779,-0.4558,-0.4592,-0.4843,-0.5369,-0.5078,-0.4337,-0.4285,-0.3246,-0.1701,-0.1076,-0.0531,0.0,0.0,0.0,0.0,0.0,0.0,0.0,0.0,0.0,0.0,0.0,0.0291,0.0888,0.1768,0.2607,0.0,0.0,0.5309,0.5759,0.5983,0.6828,0.7855,0.8896,0.9767,1.0701,1.1721,1.2746,1.3474,1.3621,1.4776,1.5665,1.5812,1.5832,1.5832,1.5832,1.5832,1.5832,1.5832,1.5832,1.5832,1.5832,1.5832,1.5832,1.5832,1.5832,1.5832,1.5832,1.5685,1.5611,1.5611,1.5317,1.5104,1.495,1.4656,1.4442,1.4295,1.4148,1.4088,1.4088,1.4088,1.4088,1.4088,1.4088,1.4412,1.4894,1.4894,1.5545,1.6683,-1.8008,0.0,0.0,0.0,0.0,0.0,0.0,0.0,0.0,0.0,0.0,-1.0873,-1.0873,-1.0927,-1.0795,-1.0555,0.0,0.0,0.0,-0.9416,-0.9332,-0.9152,-0.8925,-0.8558,-0.794,-0.78,-0.7289,0.0,0.0,0.0,0.0,0.0,0.0,0.0,0.0,0.0,-0.4986,-0.4707,-0.464,-0.4785,-0.5235,-0.5072,-0.4387,-0.3626,-0.2701,-0.1497,-0.0358,0.0,0.0,0.0,0.0,0.0,0.0,0.0,0.0,0.0,0.0,0.0,0.0,0.0,0.0234,0.1056,0.1795,0.2613,0.0,0.0,0.0,0.5962,0.6375,0.7064,0.8335,0.8965,0.9655,1.0896,1.1997,1.2465,1.1797,1.344,1.4932,1.5372,1.5678,1.5758,1.5771,1.5665,1.5645,1.5818,1.5671,1.5651,1.5818,1.5832,1.573,1.5439,1.5439,1.5439,1.5439,1.5439,1.5534,1.5825,1.5591,1.5451,1.5384,1.4903,1.4623,1.4502,1.4269,1.4135,1.4088,1.4088,1.4088,1.4088,1.4088,1.4657,1.5462,1.5621,1.6273,1.7172,-1.8008,-1.8008,0.0,0.0,0.0,0.0,0.0,0.0,0.0,0.0,0.0,-1.1717,-1.1717,-1.1951,-1.2091,-1.2058,-1.1817,-1.1423,-1.0835,-1.0307,-1.012,-1.0354,-0.9365,-0.8835,-0.8848,-0.807,-0.7015,-0.5651,0.0,0.0,0.0,0.0,0.0,0.0,-0.4901,-0.486,-0.4618,-0.4908,-0.5284,-0.5587,-0.461,-0.3918,-0.3411,-0.2819,-0.2056,-0.1076,-0.0264,0.0,0.0,0.0,0.0,0.0,0.0,0.0,0.0,0.0,0.0,0.0,0.0,0.0,0.0227,0.1108,0.1355,0.1848,0.3527,0.0,0.4224,0.509,0.0,0.5804,0.7331,0.0,0.0,0.9675,1.0434,1.0915,1.1069,1.177,1.277,1.4029,1.5143,1.579,1.5755,1.5088,1.499,1.5772,1.511,1.5003,1.5792,1.5832,1.5242,1.4166,1.4166,1.4166,1.4166,1.4166,1.4657,1.5832,1.5798,1.5645,1.5391,1.5324,1.501,1.4516,1.4482,1.4322,1.4088,1.4088,1.4088,1.4088,1.4088,1.4166,1.4412,1.5379,1.5786,1.6191,-1.7266,-1.7666,0.0,0.0,0.0,0.0,0.0,0.0,0.0,0.0,0.0,-1.161,-1.161,-1.1724,-1.1931,-1.2271,-1.1519,-1.1078,-1.1215,-1.0334,0.0,-1.0321,-0.9506,-0.8963,-0.8765,-0.7644,-0.6524,-0.5487,-0.5109,0.0,0.0,0.0,0.0,0.0,-0.5047,-0.5172,-0.525,-0.544,-0.5477,-0.5299,-0.4343,-0.3737,-0.3216,-0.2437,-0.1439,-0.0433,-0.0089,0.0,0.0,0.0,0.0,0.0,0.0,0.0,0.0,0.0,0.0,0.0,0.0,0.0,0.006,0.0463,0.0894,0.154,0.2767,0.3349,0.3923,0.4791,0.0,0.0,0.0,0.0,0.0,0.0,0.992,1.0167,0.978,1.0962,1.2446,1.3797,1.4072,0.0,1.4902,1.5149,1.5431,1.5798,1.5484,1.5438,1.5812,1.5832,1.5242,1.3974,1.3878,1.3878,1.3878,1.3878,1.4555,1.5832,1.5832,1.5765,1.5645,1.5471,1.5264,1.501,1.4669,1.4449,1.4322,1.4155,1.4088,1.4088,1.4088,1.4489,1.5054,1.5538,1.6511,1.7738,-1.6416,-1.707,-1.7461,0.0,0.0,0.0,0.0,0.0,0.0,-1.1999,-1.175,-1.1697,-1.1777,-1.2004,-1.2177,-1.228,-1.151,-1.114,-1.1064,-1.0024,-0.9611,-1.0109,-0.9398,-0.8909,-0.8794,-0.7465,-0.6396,-0.5622,0.0,0.0,0.0,0.0,0.0,0.0,-0.5077,-0.5114,-0.5136,-0.5284,-0.5027,-0.4402,-0.3577,-0.2847,-0.236,-0.1838,-0.0972,0.0,0.0,0.0,0.0,0.0,0.0,0.0,0.0,0.0,0.0,0.0,0.0,0.0,0.0,0.0,0.0,0.0,0.0,0.1348,0.2222,0.0,0.0,0.4653,0.5244,0.0,0.0,0.0,0.0,0.0,0.0,0.9566,0.9005,1.014,1.1544,1.2895,1.2855,0.0,0.0,1.4818,1.5211,1.5451,1.5471,1.5578,1.5812,1.5832,1.5045,1.3392,1.3392,1.3199,1.2807,1.3199,1.398,1.5242,1.5635,1.5832,1.5818,1.5611,1.5471,1.5371,1.4943,1.4669,1.4502,1.4295,1.4162,1.4088,1.4088,1.4573,1.5296,1.5621,1.6756,1.8141,-1.5625,-1.6162,-1.6704,-1.6675,-1.5357,0.0,0.0,-1.1505,-1.1543,-1.183,-1.2104,-1.2385,-1.2748,-1.348,-1.349,-1.2202,-1.2568,-1.2187,-1.0403,-0.9503,-0.9399,-1.0133,-0.9053,-0.8665,-0.928,-0.7941,-0.6876,-0.6001,0.0,0.0,0.0,0.0,0.0,0.0,-0.4938,-0.4498,-0.3508,-0.39,-0.3602,-0.2831,-0.171,-0.0717,-0.0187,0.0,-0.068,0.0,0.0,0.0,0.0,0.0,0.0,0.0,0.0,0.0,0.0,0.0,0.0,0.0,0.0,0.0,0.0,0.0,0.0,0.0,0.0,0.0,0.3809,0.0,0.0,0.0,0.0,0.0,0.0,0.0,0.0,0.0,0.0,0.9045,0.9328,1.0506,1.1854,1.3138,0.0,1.3736,1.3647,1.4496,1.4563,1.4937,1.5785,1.5832,1.4663,1.2042,1.1945,1.1365,1.0096,1.1361,1.2624,1.3974,1.5242,1.5832,1.5832,1.5818,1.5665,1.5398,1.5378,1.5044,1.4522,1.4509,1.4342,1.4088,1.4088,1.4088,1.425,1.5296,1.5779,1.6108,-1.5898,-1.6084,-1.6191,-1.5908,-1.5366,-1.4486,-1.292,-1.1957,-1.1384,-1.1465,-1.1336,-1.1282,-1.1128,-1.133,-1.1516,-1.1468,-1.0827,-1.0423,-1.049,-0.9265,-0.8926,-0.9865,-0.8614,-0.822,-0.8827,-0.7261,-0.6314,-0.602,0.0,0.0,0.0,0.0,0.0,0.0,0.0,-0.4896,-0.3983,-0.44,-0.3938,-0.2827,-0.1557,-0.0617,0.0,0.0,-0.0184,0.0,0.0,0.0,0.0,0.0,0.0,0.0,0.0,0.0,0.0,0.0,0.0,0.0,0.0,0.0,0.0,0.0,0.0,0.0,0.0,0.0,0.0,0.0,0.0,0.0,0.0,0.0,0.0,0.0,0.0,0.0,0.0,0.8871,0.9224,1.0378,1.1959,1.2844,1.2421,1.3601,1.4409,1.4509,1.5057,1.5518,1.5812,1.5832,1.4567,1.1945,1.1945,1.1263,0.9998,1.1268,1.2528,1.3878,1.5146,1.5832,1.5832,1.5832,1.5772,1.5671,1.5478,1.5284,1.507,1.4683,1.4462,1.4355,1.4162,1.4489,1.522,1.5538,1.6191,1.709,-1.5859,-1.583,-1.5791,-1.5664,-1.5096,-1.4098,-1.2572,-1.1445,-1.0796,-1.0861,-1.0528,-1.0274,-1.0191,-1.0397,-1.0513,-1.0426,-0.9746,-0.9439,-0.9544,-0.8533,-0.8225,-0.8899,-0.8227,-0.8102,-0.862,-0.7176,-0.644,-0.6378,0.0,-0.4969,0.0,0.0,0.0,0.0,0.0,-0.4689,-0.3604,-0.3884,-0.3213,-0.1814,-0.1007,-0.046,0.0,0.0,0.0,0.0,0.0,0.0,0.0,0.0,0.0,0.0,0.0,0.0,0.0,0.0,0.0,0.0078,0.0534,0.0628,0.0,0.1184,0.1819,0.0,0.2798,0.0,0.4169,0.0,0.0,0.0,0.0,0.0,0.0,0.0,0.0,0.0,0.0,0.8804,0.9083,0.9799,1.1056,1.1909,1.188,1.3155,1.4155,1.4496,1.5144,1.5611,1.5818,1.5832,1.4567,1.1945,1.1945,1.1072,0.9312,1.0583,1.1848,1.3199,1.4465,1.5343,1.5832,1.5832,1.5832,1.5818,1.5631,1.5491,1.5364,1.499,1.471,1.4502,1.4723,1.5154,1.5696,1.5696,1.6683,1.8149,-1.5527,-1.54,-1.5546,-1.5955,-1.4301,-1.2413,-1.0932,-0.9987,-0.976,-1.0329,-0.971,-0.9457,-1.0,-1.06,-1.0385,-0.9194,-0.9602,-0.9271,-0.7732,-0.7472,-0.7455,-0.7614,-0.7801,-0.8171,-0.8607,-0.7744,-0.7187,-0.7023,-0.5756,0.0,0.0,0.0,0.0,0.0,-0.4942,0.0,-0.2516,-0.2493,-0.158,0.0,0.0,0.0,0.0,0.0,0.0,0.0,0.0,0.0,0.0,0.0,0.0,0.0,0.0,0.0,0.0,0.009,0.009,0.0355,0.1576,0.1872,0.2161,0.3344,0.4155,0.0,0.0,0.0,0.5342,0.0,0.0,0.0,0.0,0.0,0.0,0.0,0.0,0.0,0.0,0.0,0.8804,0.8804,0.9365,1.0471,1.2373,1.2465,1.2946,1.4349,1.477,1.5217,0.0,1.5798,1.4536,1.1945,1.1945,1.0681,0.8038,0.941,1.0681,1.1945,1.3301,1.4657,1.5832,1.5832,1.5832,1.5832,1.5832,1.5671,1.5418,1.5404,1.507,1.4643,1.5627,1.5926,1.5801,1.5869,1.7245,1.9116,-1.5986,-1.5581,-1.5178,-1.4711,-1.3225,-1.1963,-1.1635,-1.053,-0.9892,-1.0223,-0.9438,-0.8816,-0.8611,-0.8739,-0.8694,-0.8311,-0.8386,-0.8301,-0.7929,-0.7685,-0.7655,-0.7916,-0.742,-0.7368,-0.772,-0.6802,-0.6303,-0.6264,-0.5658,0.0,-0.5247,0.0,0.0,0.0,0.0,-0.4306,-0.2634,-0.265,-0.1614,0.0,0.0,0.0,0.0,0.0,0.0,0.0,0.0,0.0,0.0,0.0,0.0,0.0,0.0,0.0,0.0184,0.1101,0.1361,0.1606,0.2803,0.3137,0.3173,0.3529,0.4175,0.4637,0.0,0.0,0.0,0.0,0.0,0.0,0.0,0.0,0.0,0.0,0.0,0.0,0.0,0.8804,0.8804,0.8804,0.99,1.0577,1.0471,1.2195,1.3367,1.3534,1.4429,1.5217,1.5798,0.0,1.4155,1.1935,1.1945,1.0681,0.8038,1.0288,1.156,1.1945,1.4178,1.5439,1.5832,1.5832,1.5832,1.5832,1.5832,1.5785,1.5705,1.5484,1.5311,1.515,1.5274,1.611,1.729,1.7921,1.9027,2.0167,-1.5908,-1.4912,-1.4114,-1.3889,-1.2427,-1.1281,-1.1346,-1.0633,-1.0116,-1.0128,-0.9305,-0.8674,-0.8479,-0.8315,-0.8113,-0.8045,-0.8038,-0.7984,-0.7855,-0.7814,-0.7807,-0.7845,-0.757,-0.7492,-0.7658,-0.6976,-0.6522,-0.6322,-0.5874,0.0,-0.5428,0.0,0.0,0.0,0.0,-0.438,-0.2654,-0.1879,-0.0913,0.0,0.0,0.0,0.0,0.0,0.0,0.0,0.0,0.0,0.0,0.0,0.0392,0.0867,0.0867,0.1236,0.1867,0.2497,0.2653,0.2892,0.4117,0.4374,0.4513,0.5034,0.5412,0.5732,0.5499,0.579,0.6095,0.0,0.5939,0.5844,0.0,0.0,0.0,0.0,0.0,0.0,0.0,0.8804,0.8804,0.8804,0.976,1.0227,0.9733,1.2084,1.3574,1.3414,1.4135,0.0,0.0,0.0,1.3902,1.1642,1.232,1.1551,0.892,1.0877,1.2237,1.2813,1.4268,1.5242,1.5832,1.5832,1.5832,1.5832,1.5832,1.5832,1.5812,1.5651,1.5511,1.5456,1.5597,1.6919,1.8826,1.911,1.9748,2.0566,-1.5465,-1.3963,-1.3001,-1.3439,-1.1999,-1.0717,-1.0619,-1.0379,-1.0126,-0.9965,-0.9306,-0.8858,-0.9009,-0.8652,-0.8245,-0.8109,-0.8079,-0.796,-0.7702,-0.7909,-0.7926,-0.7668,-0.7902,-0.8038,-0.8038,-0.76,-0.7149,-0.6702,-0.6251,-0.58,-0.5428,0.0,0.0,0.0,0.0,0.0,-0.2394,-0.0704,0.0,0.0,0.0,0.0,0.0,0.0,0.0101,0.0303,0.0303,0.0101,0.0,0.0202,0.0997,0.2062,0.2159,0.3098,0.3991,0.4012,0.4075,0.4326,0.541,0.5649,0.5913,0.6877,0.7139,0.7037,0.6647,0.6559,0.6559,0.6559,0.6251,0.6196,0.0,0.0,0.0,0.0,0.0,0.0,0.8699,0.8925,0.8941,0.8991,0.9599,0.0,0.9706,1.1944,1.3414,1.3414,1.3721,0.0,0.0,0.0,1.3718,1.1261,1.297,1.2614,0.9998,1.1458,1.2721,1.3878,1.407,1.4752,1.5832,1.5832,1.5832,1.5832,1.5832,1.5832,1.5832,1.5832,1.5678,1.551,1.6178,1.7779,1.9545,1.9169,1.9561,2.0311,-1.4672,-1.4174,-1.3719,-1.3702,-1.2561,-1.1428,-1.0667,-0.9908,-0.9444,-0.9665,-0.9011,-0.86,-0.8628,-0.8498,-0.8435,-0.8408,-0.8299,-0.8208,-0.8157,-0.8082,-0.8018,-0.7963,-0.8011,-0.8038,-0.8038,-0.76,-0.7149,-0.6702,-0.6251,-0.58,0.0,0.0,0.0,0.0,0.0,0.0,-0.1493,-0.0448,0.0,0.0,0.0,0.0,0.0,0.0,0.0706,0.1611,0.1611,0.0907,0.0202,0.131,0.1808,0.2202,0.3299,0.3849,0.4179,0.5129,0.5446,0.573,0.6725,0.7057,0.7028,0.7084,0.7139,0.7119,0.7041,0.7024,0.7024,0.7024,0.6959,0.6841,0.6627,0.0,0.0,0.0,0.0,0.0,0.9287,0.9559,0.9651,0.9854,1.1049,1.1276,0.9826,1.1196,1.2178,1.2178,1.2679,0.0,0.0,0.0,1.3508,0.0,1.3154,0.0,0.0,0.0,1.368,1.3878,1.4949,1.554,1.5832,1.5832,1.5832,1.5832,1.5832,1.5832,1.5832,1.5832,1.5798,1.5725,1.5609,1.6371,1.7474,1.7231,1.776,1.8819,-1.4715,-1.4028,-1.3264,-1.3093,-1.2054,-1.097,-1.0285,-0.9501,-0.9153,-0.9674,-0.9391,-0.9157,-0.9067,-0.8769,-0.8567,-0.8489,-0.8421,-0.8381,-0.8381,-0.8241,-0.816,-0.816,-0.8082,-0.8038,-0.8038,-0.7828,-0.7383,-0.6702,-0.6485,-0.603,0.0,0.0,0.0,-0.5369,0.0,-0.2603,0.0,0.0,0.0,0.0,0.0,0.0,0.0101,0.0807,0.1411,0.2113,0.2815,0.2614,0.2213,0.2815,0.3516,0.4219,0.4822,0.549,0.6134,0.666,0.6885,0.6902,0.734,0.7431,0.7353,0.7278,0.72,0.7139,0.7139,0.7139,0.7139,0.7139,0.7139,0.7004,0.6556,0.6105,0.0,0.0,0.0,0.0,0.0,0.9433,0.9945,1.0056,1.1158,1.1516,1.0668,1.0955,1.1443,1.2051,1.2573,0.0,0.0,0.0,1.3324,0.0,0.0,0.0,1.0974,0.0,0.0,1.4854,1.5534,1.5832,1.5832,1.5832,1.5832,1.5832,1.5832,1.5832,1.5832,1.5832,1.5832,1.5812,1.5671,1.67,1.8281,1.7846,1.8862,2.0449,-1.4398,-1.3588,-1.26,-1.2141,-1.1139,-1.039,-0.992,-0.9282,-0.9026,-0.9592,-0.9641,-0.9587,-0.945,-0.9068,-0.8602,-0.8159,-0.8335,-0.8315,-0.7675,-0.7764,-0.7689,-0.7376,-0.7247,-0.7172,-0.7172,-0.7144,-0.678,-0.5984,-0.6155,-0.5911,0.0,0.0,0.0,0.0,0.0,0.0,0.0,0.0,0.0,0.0,0.0,0.0202,0.0504,0.1611,0.2314,0.3016,0.4017,0.4618,0.4818,0.4818,0.5322,0.6029,0.6331,0.7135,0.8018,0.7896,0.7862,0.7828,0.7685,0.7556,0.7458,0.7428,0.7302,0.719,0.719,0.7163,0.7139,0.7139,0.7139,0.7004,0.6556,0.6261,0.0,0.0,0.0,0.0,0.0,0.0,1.0645,1.0822,1.1446,1.185,1.1717,1.1356,1.1503,1.2425,1.2592,0.0,1.3861,0.0,0.0,0.0,0.0,1.4489,1.2188,0.0,1.5832,1.5832,1.5832,1.5832,1.5832,1.5832,1.5832,1.5832,1.5832,1.5832,1.5832,1.5832,1.5832,1.5832,1.6109,1.7397,1.9099,1.8995,2.0228,2.1701,-1.2421,-1.2557,-1.2333,-1.0968,-1.048,-1.0108,-0.9794,-0.9282,-0.8923,-0.8989,-0.8986,-0.8979,-0.8961,-0.8893,-0.8352,-0.7003,-0.7998,-0.749,-0.4777,-0.5767,-0.5814,-0.4443,-0.4366,-0.4323,-0.4323,-0.4354,-0.4188,-0.3741,-0.4482,-0.4723,0.0,0.0,0.0,0.0,0.0,0.0,0.0,0.0,0.0,0.0,0.0,0.0706,0.1812,0.1912,0.3519,0.5627,0.5727,0.6631,0.7637,0.7637,0.693,0.6229,0.7437,0.7939,0.8035,0.8021,0.8018,0.7984,0.7831,0.778,0.774,0.7611,0.7461,0.735,0.735,0.7241,0.7139,0.7139,0.7139,0.7004,0.6556,0.677,0.6881,0.0,0.0,0.0,0.0,0.0,1.2403,1.3176,1.3366,1.322,1.2755,1.2826,1.3006,1.312,1.2639,0.0,0.0,0.0,0.0,1.2813,1.4269,1.4391,1.2905,1.4797,1.5832,1.5832,1.5832,1.5832,1.5832,1.5832,1.5832,1.5832,1.5832,1.5832,1.5832,1.5832,1.5832,1.592,1.7037,1.7684,1.7956,1.9099,1.962,1.9892,-1.1744,-1.1734,-1.1517,-1.0542,-1.0167,-0.976,-0.9374,-0.904,-0.894,-0.894,-0.894,-0.894,-0.894,-0.8152,-0.7371,-0.6702,-0.6328,-0.5638,-0.4424,-0.4787,-0.474,-0.4095,-0.4026,-0.3987,-0.3987,-0.402,-0.3775,0.0,-0.3743,-0.3737,0.0,0.0,0.0,0.0,0.0,-0.0793,0.0,0.0,0.0,0.0,0.0,0.0807,0.2113,0.2914,0.432,0.6129,0.6933,0.7537,0.8038,0.8038,0.7637,0.7335,0.7839,0.8038,0.8038,0.8038,0.8038,0.8024,0.7963,0.7882,0.7797,0.774,0.7617,0.7509,0.7509,0.7461,0.739,0.7299,0.7204,0.7085,0.6905,0.68,0.677,0.6858,0.0,0.0,0.0,0.0,0.0,1.3628,1.3944,1.4075,1.3834,1.3447,1.3213,0.0,0.0,0.0,0.0,0.0,0.0,1.2785,0.0,1.4907,1.3567,1.5031,1.5832,1.5832,1.5832,1.5832,1.5832,1.5832,1.5832,1.5832,1.5832,1.5832,1.5832,1.6669,1.6943,1.6943,1.7505,1.8596,1.9852,1.9588,2.0404,2.1774,-1.109,-1.0936,-1.0622,-0.9902,-0.9677,-0.9195,-0.8329,-0.8266,-0.8042,-0.7706,-0.7595,-0.7817,-0.8156,-0.6924,-0.5919,-0.547,-0.4804,-0.4136,-0.3243,-0.3427,-0.3403,-0.2964,-0.2916,0.0,-0.2783,-0.284,-0.2659,-0.2359,-0.2633,0.0,0.0,0.0,0.0,0.0,-0.0906,-0.056,0.0,0.0,0.0,0.0,0.0404,0.141,0.2715,0.4117,0.5422,0.6731,0.7637,0.8038,0.8038,0.8038,0.8038,0.8038,0.8038,0.8038,0.8038,0.8038,0.8038,0.8038,0.8038,0.796,0.7879,0.7879,0.777,0.7662,0.7662,0.7631,0.757,0.7461,0.735,0.7275,0.7275,0.7017,0.6909,0.7224,0.0,0.0,0.0,1.1451,0.0,1.3383,1.3609,1.3803,1.3973,1.3355,1.3009,0.0,0.0,0.0,0.0,0.0,0.0,0.0,0.0,0.0,1.4227,1.5259,1.5832,1.5832,1.5832,1.5832,1.5832,1.5832,1.5832,1.5832,1.5832,1.5832,1.5825,1.6756,1.7318,1.7777,1.8048,1.9497,2.1203,2.0764,2.1676,2.3135,-1.0339,-1.024,-0.9934,-0.9095,-0.8933,-0.8374,-0.6924,-0.6702,-0.6255,-0.4695,-0.4583,-0.5139,-0.6589,-0.5363,-0.3911,-0.2347,-0.3576,-0.3243,-0.0224,-0.1454,-0.1566,0.0,0.0,0.0,0.0,0.0,0.0,0.0,0.0,0.0,-0.1658,0.0,-0.1063,0.0,0.0,0.0,0.0,0.0,0.0,0.0101,0.1411,0.2815,0.4117,0.5425,0.6833,0.7939,0.8038,0.8038,0.8038,0.8038,0.8038,0.8038,0.8038,0.8038,0.8038,0.8038,0.8038,0.8038,0.8038,0.8038,0.8035,0.8035,0.7923,0.7811,0.7811,0.7699,0.76,0.7597,0.7597,0.7594,0.7594,0.759,0.7587,0.7594,0.0,0.0,0.0,1.0576,0.0,1.2497,1.2331,1.2273,1.2616,1.2627,1.2622,0.0,0.0,0.0,0.0,0.0,0.0,1.4957,1.497,0.0,1.4977,1.5545,1.5832,1.5832,1.5832,1.5832,1.5832,1.5832,1.5832,1.5832,1.5832,1.5832,1.5832,1.5825,1.6574,1.7777,1.9039,2.0215,2.148,2.2589,2.3047,2.3135,-0.9302,-0.9331,-0.8924,-0.7581,-0.7371,-0.6924,-0.5475,-0.5252,-0.5027,-0.4582,-0.3576,-0.3129,-0.3574,-0.324,-0.2682,0.0,-0.1678,-0.1008,0.0,-0.0448,-0.0448,0.0,0.0,0.0,0.0,0.0,0.0,0.0,0.0,0.0,0.0,-0.0471,-0.0286,0.0,0.0,0.0,0.0,0.0,0.0504,0.141,0.1812,0.3317,0.5425,0.5827,0.6833,0.8038,0.8038,0.8038,0.8038,0.8038,0.8038,0.8038,0.8038,0.8038,0.8038,0.8038,0.8038,0.8038,0.8038,0.8038,0.8038,0.8038,0.8004,0.7967,0.7967,0.7851,0.7743,0.7743,0.7665,0.76,0.76,0.76,0.76,0.76,0.871,0.0,0.9801,0.0,1.1803,1.211,1.2036,1.202,1.2094,1.2946,0.0,0.0,0.0,0.0,0.0,0.0,0.0,0.0,1.5244,0.0,1.5558,1.5732,1.5832,1.5832,1.5832,1.5832,1.5832,1.5832,1.5832,1.5832,1.5832,1.5832,1.5825,1.6763,1.7318,1.7777,1.8141,1.9039,2.0124,2.0494,2.1132,2.2031,-0.8156,-0.8045,-0.7595,-0.6142,-0.5919,-0.5361,-0.3911,-0.3688,-0.3465,-0.2908,-0.2014,-0.1343,-0.1343,-0.1343,0.0,-0.1343,-0.056,0.0,0.0,0.0,0.0,0.0,0.0,0.0,0.0,0.0,0.0,0.0,0.0,0.0,0.0,0.0,0.0,0.0,0.0,0.0,0.0,0.0,0.0504,0.131,0.1812,0.3317,0.5322,0.5827,0.6833,0.8038,0.8038,0.8038,0.8038,0.8038,0.8038,0.8038,0.8038,0.8038,0.8038,0.8038,0.8038,0.8038,0.8038,0.8038,0.8038,0.8038,0.8038,0.8038,0.8038,0.7967,0.7896,0.7896,0.7828,0.7763,0.7763,0.7763,0.7763,0.7763,0.8508,0.915,0.915,0.0,1.0692,1.1313,0.0,0.0,0.0,1.2884,1.3361,0.0,0.0,0.0,0.0,0.0,0.0,1.5023,1.5545,0.0,1.5832,1.5832,1.5832,1.5832,1.5832,1.5832,1.5832,1.5832,1.5832,1.5832,1.5832,1.5832,1.5825,1.6669,1.7225,1.7692,1.7692,1.8411,1.9497,1.9497,2.0305,2.1382,-0.6924,-0.6591,-0.6031,-0.4582,-0.4359,-0.3799,-0.2235,-0.2012,-0.1566,-0.0224,0.0,0.0,0.0,0.0,0.0,0.0,0.0,0.0,0.0,0.0,0.0,0.0,0.0,0.0,0.0,0.0,0.0,0.0,0.0,0.0,0.0,0.0,0.0,0.0,0.0,0.0,0.0,0.0,0.0101,0.0303,0.1612,0.2916,0.4318,0.5625,0.6933,0.8038,0.8038,0.8038,0.8038,0.8038,0.8038,0.8038,0.8038,0.8038,0.8038,0.8038,0.8038,0.8038,0.8038,0.8038,0.8038,0.8038,0.8038,0.8038,0.8038,0.8038,0.8038,0.8038,0.8038,0.8038,0.8038,0.8038,0.8137,0.8137,0.8237,0.8233,0.8233,0.8233,0.884,0.0,0.0,0.0,1.2449,1.2632,1.2989,0.0,0.0,0.0,0.0,0.0,1.5231,1.5812,1.5832,1.5832,1.5832,1.5832,1.5832,1.5832,1.5832,1.5832,1.5832,1.5832,1.5832,1.5832,1.5832,1.5832,1.5832,1.5832,1.648,1.7598,1.7598,1.8226,1.9214,1.9314,2.0124,2.1114,0.0,0.0,-0.4582,-0.3017,-0.2794,-0.2236,-0.0784,-0.056,-0.0448,0.0,0.0,0.0,0.0,0.0,0.0,0.0,0.0,0.0,0.0,0.0,0.0,0.0,0.0,0.0,0.0,0.0,0.0,0.0,0.0,0.0,0.0,0.0,0.0,0.0,0.0,0.0,0.0,0.0,0.0618,0.1643,0.3033,0.432,0.5625,0.7033,0.7736,0.8038,0.8038,0.8038,0.8038,0.8038,0.8038,0.8038,0.8038,0.8038,0.8038,0.8038,0.8038,0.8038,0.8038,0.8038,0.8038,0.8038,0.8038,0.8038,0.8038,0.8038,0.8038,0.8038,0.8038,0.8038,0.8038,0.8825,0.9509,0.9509,1.0386,1.0974,1.0974,1.0974,1.1113,0.0,1.1612,1.1707,1.1993,1.3036,1.3432,0.0,0.0,0.0,1.4843,1.4917,1.5231,1.5812,1.5832,1.5832,1.5832,1.5832,1.5832,1.5832,1.5832,1.5832,1.5832,1.5832,1.5832,1.5832,1.5832,1.5832,1.5832,1.5832,1.6015,1.6292,1.6292,1.6379,1.6749,1.777,1.8326,1.8864,-0.4801,-0.4021,-0.3018,-0.1454,-0.1231,-0.0896,-0.0112,0.0,0.0,0.0,0.0,0.0,0.0,0.0,0.0,0.0,0.0,0.0,0.0,0.0,0.0,0.0,0.0,0.0,0.0,0.0,0.0,0.0,0.0,0.0,0.0,0.0,0.0,0.0,0.0,0.0,0.0,0.0,0.0726,0.2066,0.2835,0.4219,0.6029,0.6833,0.7434,0.8038,0.8038,0.8038,0.8038,0.8038,0.8038,0.8038,0.8038,0.8038,0.8038,0.8038,0.8038,0.8038,0.8038,0.8038,0.8038,0.8038,0.8038,0.8038,0.8038,0.8038,0.8038,0.8038,0.8038,0.8038,0.8038,0.8627,0.9118,0.9118,0.9497,1.0083,1.0933,1.0829,1.1223,1.2678,1.2818,1.3011,1.3596,1.437,1.4571,1.4122,1.4891,0.0,1.5124,1.5271,1.5504,1.5818,1.5832,1.5832,1.5832,1.5832,1.5832,1.5832,1.5832,1.5832,1.5832,1.5832,1.5832,1.5832,1.5832,1.5832,1.5832,1.5832,1.5832,1.5832,1.5832,1.5832,1.592,1.6574,1.7225,1.787,-0.2459,-0.2013,-0.1454,-0.0224,0.0,0.0,0.0,0.0,0.0,0.0,0.0,0.0,0.0,0.0,0.0,0.0,0.0,0.0,0.0,0.0,0.0,0.0,0.0,0.0,0.0,0.0,0.0,0.0,0.0,0.0,0.0,0.0,0.0,0.0,0.0,0.011,0.0329,0.0318,0.1148,0.2384,0.2544,0.4029,0.6029,0.6232,0.7033,0.8038,0.8038,0.8038,0.8038,0.8038,0.8038,0.8038,0.8038,0.8038,0.8038,0.8038,0.8038,0.8038,0.8038,0.8038,0.8038,0.8038,0.8038,0.8038,0.8038,0.8038,0.8038,0.8038,0.8038,0.8038,0.8038,0.8137,0.8312,0.8336,0.8237,0.8598,1.0202,0.0,1.0935,1.3605,1.407,1.4657,1.573,1.5832,1.5832,1.5832,1.5832,1.5832,1.5832,1.5832,1.5832,1.5832,1.5832,1.5832,1.5832,1.5832,1.5832,1.5832,1.5832,1.5832,1.5832,1.5832,1.5832,1.5832,1.5832,1.5832,1.5832,1.5832,1.5832,1.5832,1.5832,1.5832,1.5832,1.5832,1.648,1.7505,-0.2235,-0.1231,-0.0224,0.0,0.0,0.0,0.0,0.0,0.0,0.0,0.0,0.0,0.0,0.0,0.0,0.0,0.0,0.0,0.0,0.0,0.0,0.0,0.0,0.0,0.0,0.0,0.0,0.0,0.0,0.0,0.0,0.0,0.0,0.0,0.0,0.067,0.1892,0.1856,0.2682,0.4008,0.5175,0.5804,0.6129,0.7235,0.7839,0.8038,0.8038,0.8038,0.8038,0.8038,0.8038,0.8038,0.8038,0.8038,0.8038,0.8038,0.8038,0.8038,0.8038,0.8038,0.8038,0.8038,0.8038,0.8038,0.8038,0.8038,0.8038,0.8038,0.8038,0.8038,0.8038,0.892,0.9841,1.0182,1.0735,1.1437,1.2073,0.0,1.3357,1.3861,1.4854,1.554,1.5737,1.5832,1.5832,1.5832,1.5832,1.5832,1.5832,1.5832,1.5832,1.5832,1.5832,1.5832,1.5832,1.5832,1.5832,1.5832,1.5832,1.5832,1.5832,1.5832,1.5832,1.5832,1.5832,1.5832,1.5832,1.5832,1.5832,1.5832,1.5832,1.5832,1.5832,1.5832,1.592,1.6386,-0.1008,-0.0448,0.0,0.0,0.0,0.0,0.0,0.0,0.0,0.0,0.0,0.0,0.0,0.0,0.0,0.0,0.0,0.0,0.0,0.0,0.0,0.0,0.0,0.0,0.0,0.0,0.0,0.0,0.0,0.0,0.0,0.0,0.0448,0.1231,0.1231,0.2014,0.3461,0.3404,0.4229,0.5472,0.6051,0.6675,0.7336,0.7769,0.8038,0.8038,0.8038,0.8038,0.8038,0.8038,0.8038,0.8038,0.8038,0.8038,0.8038,0.8038,0.8038,0.8038,0.8038,0.8038,0.8038,0.8038,0.8038,0.8038,0.8038,0.8038,0.8038,0.8038,0.8038,0.8038,0.8038,0.8528,0.8939,0.9176,0.9947,0.0,0.0,1.3015,1.3878,1.4797,1.5439,1.5832,1.5832,1.5832,1.5832,1.5832,1.5832,1.5832,1.5832,1.5832,1.5832,1.5832,1.5832,1.5832,1.5832,1.5832,1.5832,1.5832,1.5832,1.5832,1.5832,1.5832,1.5832,1.5832,1.5832,1.5832,1.5832,1.5832,1.5832,1.5832,1.5832,1.5832,1.592,1.6574,1.685,1.7037,0.0,0.0,0.0,0.0,0.0,0.0,0.0,0.0,0.0,0.0,0.0,0.0,0.0,0.0,0.0,0.0,0.0,0.0,0.0,0.0,0.0,0.0,0.0,0.0,0.0,0.0,0.0,0.0,0.0,0.0,0.0,0.0336,0.1119,0.2235,0.2571,0.3575,0.5023,0.4958,0.5791,0.6948,0.6838,0.7461,0.8252,0.8099,0.8038,0.8038,0.8038,0.8038,0.8038,0.8038,0.8038,0.8038,0.8038,0.8038,0.8038,0.8038,0.8038,0.8038,0.8038,0.8038,0.8038,0.8038,0.8038,0.8038,0.8038,0.8038,0.8038,0.8038,0.8038,0.8038,0.8038,0.8038,0.81,0.8575,0.0,0.0,0.0,1.2791,1.3853,1.5164,1.5635,1.5832,1.5832,1.5832,1.5832,1.5832,1.5832,1.5832,1.5832,1.5832,1.5832,1.5832,1.5832,1.5832,1.5832,1.5832,1.5832,1.5832,1.5832,1.5832,1.5832,1.5832,1.5832,1.5832,1.5832,1.5832,1.5832,1.5832,1.5832,1.5832,1.5832,1.5832,1.592,1.7225,1.7692,1.787,0.0,0.0,0.0,0.0,0.0,0.0,0.0,0.0,0.0,0.0,0.0,0.0,0.0,0.0,0.0,0.0,0.0,0.0,0.0,0.0,0.0,0.0,0.0,0.0,0.0,0.0,0.0,0.0,0.0,0.0,0.0,0.1343,0.2124,0.2235,0.3688,0.514,0.6589,0.6581,0.729,0.8477,0.8424,0.8284,0.8252,0.8099,0.8038,0.8038,0.8038,0.8038,0.8038,0.8038,0.8038,0.8038,0.8038,0.8038,0.8038,0.8038,0.8038,0.8038,0.8038,0.8038,0.8038,0.8038,0.8038,0.8038,0.8038,0.8038,0.8038,0.8038,0.8038,0.8038,0.8038,0.8038,0.8575,1.0113,0.0,0.0,1.2277,1.3286,1.3909,1.4058,1.5045,1.5832,1.5832,1.5832,1.5832,1.5832,1.5832,1.5832,1.5832,1.5832,1.5832,1.5832,1.5832,1.5832,1.5832,1.5832,1.5832,1.5832,1.5832,1.5832,1.5832,1.5832,1.5832,1.5832,1.5832,1.5832,1.5832,1.5832,1.5832,1.5832,1.5832,1.5832,1.592,1.7225,1.7692,1.8048,0.0,0.0,0.0,0.0,0.0,0.0,0.0,0.0,0.0,0.0,0.0,0.0,0.0,0.0,0.0,0.0,0.0,0.0,0.0,0.0,0.0,0.0,0.0,0.0,0.0,0.0,0.0,0.0,0.0,0.0448,0.1343,0.19,0.3239,0.5023,0.5584,0.67,0.8045,0.8045,0.8348,0.8838,0.8686,0.8533,0.8384,0.8238,0.8123,0.8038,0.8038,0.8038,0.8038,0.8038,0.8038,0.8038,0.8038,0.8038,0.8038,0.8038,0.8038,0.8038,0.8038,0.8038,0.8038,0.8038,0.8038,0.8038,0.8038,0.8038,0.8038,0.8038,0.8038,0.8038,0.8038,0.8726,0.9441,1.0092,0.0,1.2619,1.3292,1.4364,1.5045,1.5045,1.5534,1.5832,1.5832,1.5832,1.5832,1.5832,1.5832,1.5832,1.5832,1.5832,1.5832,1.5832,1.5832,1.5832,1.5832,1.5832,1.5832,1.5832,1.5832,1.5832,1.5832,1.5832,1.5832,1.5832,1.5832,1.5832,1.5832,1.5832,1.5832,1.5832,1.5832,1.6292,1.7131,1.8403,1.9314,2.0124,0.0,0.0,0.0,0.0,0.0,0.0,0.0,0.0,0.0,0.0,0.0,0.0,0.0,0.0,0.0,0.0,0.0,0.0,0.0,0.0,0.0,0.0,0.0,0.0,0.0,0.0,0.0224,0.0672,0.0672,0.1455,0.2905,0.3352,0.4689,0.6702,0.7149,0.7931,0.894,0.894,0.894,0.8923,0.8771,0.8648,0.8533,0.8343,0.8204,0.8106,0.8058,0.8038,0.8038,0.8038,0.8038,0.8038,0.8038,0.8038,0.8038,0.8038,0.8038,0.8038,0.8038,0.8038,0.8038,0.8038,0.8038,0.8038,0.8038,0.8038,0.8137,0.8528,0.8627,0.8726,0.9118,0.9998,1.0779,1.1165,1.2711,1.407,1.4459,1.5242,1.5832,1.5832,1.5832,1.5832,1.5832,1.5832,1.5832,1.5832,1.5832,1.5832,1.5832,1.5832,1.5832,1.5832,1.5832,1.5832,1.5832,1.5832,1.5832,1.5832,1.5832,1.5832,1.5832,1.5832,1.5832,1.5832,1.5832,1.5832,1.5832,1.5832,1.6015,1.6386,1.6386,1.7124,1.8411,1.9579,2.0576,2.1471,0.0,0.0,0.0,0.0,0.0,0.0,0.0,0.0,0.0,0.0,0.0,0.0,0.0,0.0,0.0,0.0,0.0,0.0,0.0,0.0,0.0,0.0,0.0,0.0,0.0,0.0,0.0784,0.2235,0.2235,0.3017,0.4583,0.6031,0.6702,0.6813,0.8266,0.894,0.894,0.894,0.894,0.8923,0.8774,0.8713,0.8679,0.8384,0.8272,0.8252,0.8096,0.8041,0.8038,0.8038,0.8038,0.8038,0.8038,0.8038,0.8038,0.8038,0.8038,0.8038,0.8038,0.8038,0.8038,0.8038,0.8038,0.8038,0.8038,0.8038,0.8333,0.9706,0.9998,1.0391,1.1653,1.195,1.2334,1.368,1.3878,1.4364,1.5635,1.5832,1.5832,1.5832,1.5832,1.5832,1.5832,1.5832,1.5832,1.5832,1.5832,1.5832,1.5832,1.5832,1.5832,1.5832,1.5832,1.5832,1.5832,1.5832,1.5832,1.5832,1.5832,1.5832,1.5832,1.5832,1.5832,1.5832,1.5832,1.5832,1.5832,1.5832,1.6574,1.7692,1.7692,1.8411,1.967,2.0845,2.1293,2.1471,0.0,0.0,0.0,0.0,0.0,0.0,0.0,0.0,0.0,0.0,0.0,0.0,0.0,0.0,0.0,0.0,0.0,0.0,0.0,0.0,0.0,0.0,0.0,0.0,0.0,0.1008,0.1789,0.2235,0.324,0.458,0.6031,0.6478,0.726,0.8266,0.8716,0.894,0.894,0.894,0.894,0.8933,0.8889,0.8808,0.8703,0.8611,0.8448,0.8265,0.8218,0.8133,0.8038,0.8038,0.8038,0.8038,0.8038,0.8038,0.8038,0.8038,0.8038,0.8038,0.8038,0.8038,0.8038,0.8038,0.8038,0.8038,0.8038,0.8038,0.8333,0.9706,0.9998,1.0391,1.1653,1.2624,1.3392,1.3872,1.4657,1.5337,1.573,1.5832,1.5832,1.5832,1.5832,1.5832,1.5832,1.5832,1.5832,1.5832,1.5832,1.5832,1.5832,1.5832,1.5832,1.5832,1.5832,1.5832,1.5832,1.5832,1.5832,1.5832,1.5832,1.5832,1.5832,1.5832,1.5832,1.5832,1.5832,1.5832,1.5832,1.5832,1.6015,1.6386,1.6386,1.7124,1.8411,1.9579,2.0567,2.1471,0.0,0.0,0.0,0.0,0.0,0.0,0.0,0.0,0.0,0.0,0.0,0.0,0.0,0.0,0.0,0.0,0.0,0.0,0.0,0.0,0.0,0.0,0.0,0.0224,0.0896,0.1789,0.2793,0.4019,0.4914,0.6142,0.7595,0.7595,0.8042,0.894,0.894,0.894,0.894,0.894,0.894,0.894,0.894,0.8882,0.8794,0.8733,0.8601,0.8435,0.8377,0.8258,0.813,0.813,0.8092,0.8038,0.8038,0.8038,0.8038,0.8038,0.8038,0.8038,0.8038,0.8038,0.8038,0.8038,0.8432,0.8825,0.8825,0.9217,0.9895,1.1258,1.1551,1.194,1.3204,1.4076,1.4657,1.4657,1.5337,1.5832,1.5832,1.5832,1.5832,1.5832,1.5832,1.5832,1.5832,1.5832,1.5832,1.5832,1.5832,1.5832,1.5832,1.5832,1.5832,1.5832,1.5832,1.5832,1.5832,1.5832,1.5832,1.5832,1.5832,1.5832,1.5832,1.5832,1.5832,1.5832,1.5832,1.5832,1.5832,1.5832,1.6109,1.6574,1.6574,1.7311,1.8503,1.9222,2.0305,2.1382,0.0,0.0,0.0,0.0,0.0,0.0,0.0,0.0,0.0,0.0,0.0,0.0,0.0,0.0,0.0,0.0,0.0,0.0,0.0,0.0,0.0,0.0,0.0112,0.0896,0.2347,0.2459,0.3798,0.6702,0.6813,0.7595,0.894,0.894,0.894,0.894,0.894,0.894,0.894,0.894,0.894,0.894,0.894,0.894,0.8923,0.8784,0.8723,0.8693,0.8554,0.8411,0.8289,0.8289,0.8194,0.8075,0.8065,0.8062,0.8058,0.8041,0.8038,0.8038,0.8038,0.8038,0.8038,0.8038,0.9019,0.9998,0.9998,1.0877,1.2139,1.3584,1.3878,1.4268,1.5534,1.5832,1.5832,1.5832,1.5832,1.5832,1.5832,1.5832,1.5832,1.5832,1.5832,1.5832,1.5832,1.5832,1.5832,1.5832,1.5832,1.5832,1.5832,1.5832,1.5832,1.5832,1.5832,1.5832,1.5832,1.5832,1.5832,1.5832,1.5832,1.5832,1.5832,1.5832,1.5832,1.5832,1.5832,1.5832,1.5832,1.5832,1.648,1.7505,1.7505,1.8226,1.9222,1.9314,2.0034,2.1025,0.0,0.0,0.0,0.0,0.0,0.0,0.0,0.0,0.0,0.0,0.0,0.0,0.0,0.0,0.0,0.0,0.0,0.0,0.0,0.0,0.0,0.0,0.1119,0.246,0.4023,0.4023,0.4916,0.6702,0.7817,0.8602,0.894,0.894,0.894,0.894,0.894,0.894,0.894,0.894,0.894,0.894,0.894,0.894,0.8933,0.8903,0.8815,0.8706,0.8672,0.8564,0.8435,0.8435,0.8414,0.8367,0.8255,0.8221,0.8197,0.8075,0.8038,0.8038,0.8038,0.8038,0.8038,0.8038,0.9019,0.9998,0.9998,1.0194,1.1068,1.3392,1.3878,1.4268,1.5534,1.5832,1.5832,1.5832,1.5832,1.5832,1.5832,1.5832,1.5832,1.5832,1.5832,1.5832,1.5832,1.5832,1.5832,1.5832,1.5832,1.5832,1.5832,1.5832,1.5832,1.5832,1.5832,1.5832,1.5832,1.5832,1.5832,1.5832,1.5832,1.5832,1.5832,1.5832,1.5832,1.5832,1.5832,1.5832,1.5832,1.5832,1.592,1.6204,1.6204,1.6386,1.6749,1.7677,1.8234,1.8772,0.0,0.0,0.0,0.0,0.0,0.0,0.0,0.0,0.0,0.0,0.0,0.0,0.0,0.0,0.0,0.0,0.0,0.0,0.0,0.0672,0.1007,0.1007,0.246,0.4023,0.5475,0.5586,0.6255,0.7706,0.8491,0.894,0.894,0.894,0.894,0.894,0.894,0.894,0.894,0.894,0.894,0.894,0.894,0.894,0.894,0.894,0.8889,0.8818,0.8818,0.872,0.8581,0.8506,0.8482,0.8469,0.8394,0.837,0.8353,0.8275,0.8252,0.8252,0.8252,0.8201,0.815,0.815,0.8589,0.9217,0.9903,1.0489,1.1458,1.3488,1.3878,1.4268,1.5534,1.5832,1.5832,1.5832,1.5832,1.5832,1.5832,1.5832,1.5832,1.5832,1.5832,1.5832,1.5832,1.5832,1.5832,1.5832,1.5832,1.5832,1.5832,1.5832,1.5832,1.5832,1.5832,1.5832,1.5832,1.5832,1.5832,1.5832,1.5832,1.5832,1.5832,1.5832,1.5832,1.5832,1.5832,1.5832,1.5832,1.5832,1.5832,1.5832,1.5832,1.5832,1.5927,1.6574,1.7584,1.8864,0.0,0.0,0.0,0.0,0.0,0.0,0.0,0.0,0.0,0.0,0.0,0.0,0.0,0.0,0.0,0.0,0.0,0.0,0.0,0.1343,0.2235,0.2235,0.3911,0.5475,0.67,0.6924,0.7706,0.894,0.894,0.894,0.894,0.894,0.894,0.894,0.894,0.894,0.894,0.894,0.894,0.894,0.894,0.894,0.894,0.894,0.894,0.894,0.894,0.8859,0.873,0.8604,0.856,0.8557,0.853,0.852,0.8516,0.8489,0.8482,0.8482,0.8482,0.8394,0.8306,0.8306,0.8211,0.8414,0.9797,1.1021,1.2237,1.3584,1.407,1.4561,1.5635,1.5832,1.5832,1.5832,1.5832,1.5832,1.5832,1.5832,1.5832,1.5832,1.5832,1.5832,1.5832,1.5832,1.5832,1.5832,1.5832,1.5832,1.5832,1.5832,1.5832,1.5832,1.5832,1.5832,1.5832,1.5832,1.5832,1.5832,1.5832,1.5832,1.5832,1.5832,1.5832,1.5832,1.5832,1.5832,1.5832,1.5832,1.5832,1.5825,1.6015,1.6103,1.6109,1.6386,1.7848,2.0124,0.0,0.0,0.0,0.0,0.0,0.0,0.0,0.0,0.0,0.0,0.0,0.0,0.0,0.0,0.0,0.0,0.0,0.0,0.0,0.1343,0.2235,0.2235,0.4912,0.6478,0.6702,0.7931,0.8716,0.894,0.894,0.894,0.894,0.894,0.894,0.894,0.894,0.894,0.894,0.894,0.894,0.894,0.894,0.894,0.894,0.894,0.894,0.894,0.894,0.8923,0.8906,0.8882,0.8876,0.8855,0.872,0.8679,0.8655,0.852,0.8482,0.8482,0.8482,0.8469,0.8455,0.8455,0.8438,0.8834,1.0265,1.132,1.2237,1.3584,1.4752,1.5629,1.5737,1.5832,1.5832,1.5832,1.5832,1.5832,1.5832,1.5832,1.5832,1.5832,1.5832,1.5832,1.5832,1.5832,1.5832,1.5832,1.5832,1.5832,1.5832,1.5832,1.5832,1.5832,1.5832,1.5832,1.5832,1.5832,1.5832,1.5832,1.5832,1.5832,1.5832,1.5832,1.5832,1.5832,1.5832,1.5832,1.5832,1.5832,1.5832,1.592,1.7037,1.7412,1.7591,1.858,1.9844,2.1114,0.0,0.0,0.0,0.0,0.0,0.0,0.0,0.0,0.0,0.0,0.0,0.0,0.0,0.0,0.0,0.0,0.0,0.0336,0.1119,0.2683,0.3798,0.4689,0.6811,0.7931,0.7931,0.8602,0.894,0.894,0.894,0.894,0.894,0.894,0.894,0.894,0.894,0.894,0.894,0.894,0.894,0.894,0.894,0.894,0.894,0.894,0.894,0.894,0.894,0.894,0.894,0.894,0.894,0.8927,0.8859,0.8838,0.8825,0.8757,0.8737,0.8737,0.8737,0.8676,0.8611,0.8611,0.8547,0.8895,1.0335,1.1531,1.2673,1.3826,1.4467,1.4949,1.5635,1.5832,1.5832,1.5832,1.5832,1.5832,1.5832,1.5832,1.5832,1.5832,1.5832,1.5832,1.5832,1.5832,1.5832,1.5832,1.5832,1.5832,1.5832,1.5832,1.5832,1.5832,1.5832,1.5832,1.5832,1.5832,1.5832,1.5832,1.5832,1.5832,1.5832,1.5832,1.5832,1.5832,1.5832,1.5832,1.5832,1.5832,1.5832,1.592,1.7225,1.8141,1.8864,2.0034,2.0845,2.1391]},{"header":{"parameterUnit":"m.s-1","parameterCategory":1,"la1":30.6,"la2":28.766,"lo1":-90.7593,"lo2":-88.6598,"dy":0.0162,"dx":0.0183,"nx":116,"ny":114,"refTime":"2023-04-28T18:00:00:Z","depth":0,"parameterNumber":3,"parameterNumberName":"V-component_of_WINDS"},"data":[0.0,0.0,0.0,0.0,0.0,0.0,0.0,0.0,0.0,0.0,0.0,0.0,0.0,0.0,0.0,0.0,0.0,0.0,0.0,0.0,0.0,0.0,0.0,0.0,0.0,0.0,0.0,0.0,0.0,0.0,0.0,0.0,0.0,0.0,0.0,0.0,0.0,0.0,0.0,0.0,0.0,0.0,0.0,0.0,0.0,0.0,0.0,0.0,0.0,0.0,0.0,0.0,0.0,0.0,0.0,0.0,0.0,0.0,0.0,0.0,0.0,0.0,0.0,0.0,0.0,0.0,0.0,0.0,0.0,0.0,0.0,0.0,0.0,0.0,0.0,0.0,0.0,0.0,0.0,0.0,0.0,0.0,0.0,0.0,0.0,0.0,0.0,0.0,0.0,0.0,0.0,0.0,0.0,0.0,0.0,0.0,0.0,0.0,0.0,0.0,0.0,0.0,0.0,0.0,0.0,0.0,0.0,0.0,0.0,0.0,0.0,0.0,0.0,0.0,0.0,0.0,0.0,0.0,0.0,0.0,0.0,0.0,0.0,0.0,0.0,0.0,0.0,0.0,0.0,0.0,0.0,0.0,0.0,0.0,0.0,0.0,0.0,0.0,0.0,0.0,0.0,0.0,0.0,0.0,0.0,0.0,0.0,0.0,0.0,0.0,0.0,0.0,0.0,0.0,0.0,0.0,0.0,0.0,0.0,0.0,0.0,0.0,0.0,0.0,0.0,0.0,0.0,0.0,0.0,0.0,0.0,0.0,0.0,0.0,0.0,0.0,0.0,0.0,0.0,0.0,0.0,0.0,0.0,0.0,0.0,0.0,0.0,0.0,0.0,0.0,0.0,0.0,0.0,0.0,0.0,0.0,0.0,0.0,0.0,0.0,0.0,0.0,0.0,0.0,0.0,0.0,0.0,0.0,0.0,0.0,0.0,0.0,0.0,0.0,0.0,0.0,0.0,0.0,0.0,0.0,0.0,0.0,0.0,0.0,0.0,0.0,0.0,0.0,0.0,0.0,0.0,0.0,0.0,0.0,0.0,0.0,0.0,0.0,0.0,0.0,0.0,0.0,0.0,0.0,0.0,0.0,0.0,0.0,0.0,0.0,0.0,0.0,0.0,0.0,0.0,0.0,0.0,0.0,0.0,0.0,0.0,0.0,0.0,0.0,0.0,0.0,0.0,0.0,0.0,0.0,0.0,0.0,0.0,0.0,0.0,0.0,0.0,0.0,0.0,0.0,0.0,0.0,0.0,0.0,0.0,0.0,0.0,0.0,0.0,0.0,0.0,0.0,0.0,0.0,0.0,0.0,0.0,0.0,0.0,0.0,0.0,0.0,0.0,0.0,0.0,0.0,0.0,0.0,0.0,0.0,0.0,0.0,0.0,0.0,0.0,0.0,0.0,0.0,0.0,0.0,0.0,0.0,0.0,0.0,0.0,0.0,0.0,0.0,0.0,0.0,0.0,0.0,0.0,0.0,0.0,0.0,0.0,0.0,0.0,0.0,0.0,0.0,0.0,0.0,0.0,0.0,0.0,0.0,0.0,0.0,0.0,0.0,0.0,0.0,0.0,0.0,0.0,0.0,0.0,0.0,0.0,0.0,0.0,0.0,0.0,0.0,0.0,0.0,0.0,0.0,0.0,0.0,0.0,0.0,0.0,0.0,0.0,0.0,0.0,0.0,0.0,0.0,0.0,0.0,0.0,0.0,0.0,0.0,0.0,0.0,0.0,0.0,0.0,0.0,0.0,0.0,0.0,0.0,0.0,0.0,0.0,0.0,0.0,0.0,0.0,0.0,0.0,0.0,0.0,0.0,0.0,0.0,0.0,0.0,0.0,0.0,0.0,0.0,0.0,0.0,0.0,0.0,0.0,0.0,0.0,0.0,0.0,0.0,0.0,0.0,0.0,0.0,0.0,0.0,0.0,0.0,0.0,0.0,0.0,0.0,0.0,0.0,0.0,0.0,0.0,0.0,0.0,0.0,0.0,0.0,0.0,0.0,0.0,0.0,0.0,0.0,0.0,0.0,0.0,0.0,0.0,0.0,0.0,0.0,0.0,0.0,0.0,0.0,0.0,0.0,0.0,0.0,0.0,0.0,0.0,0.0,0.0,0.0,0.0,0.0,0.0,0.0,0.0,0.0,0.0,0.0,0.0,0.0,0.0,0.0,0.0,0.0,0.0,0.0,0.0,0.0,0.0,0.0,0.0,0.0,0.0,0.0,0.0,0.0,0.0,0.0,0.0,0.0,0.0,0.0,0.0,0.0,0.0,0.0,0.0,0.0,0.0,0.0,0.0,0.0,0.0,0.0,0.0,0.0,0.0,0.0,0.0,0.0,0.0,0.0,0.0,0.0,0.0,0.0,0.0,0.0,0.0,0.0,0.0,0.0,0.0,0.0,0.0,0.0,0.0,0.0,0.0,0.0,0.0,0.0,0.0,0.0,0.0,0.0,0.0,0.0,0.0,0.0,0.0,0.0,0.0,0.0,0.0,0.0,0.0,0.0,0.0,0.0,0.0,0.0,0.0,0.0,0.0,0.0,0.0,0.0,0.0,0.0,0.0,0.0,0.0,0.0,0.0,0.0,0.0,0.0,0.0,0.0,0.0,0.0,0.0,0.0,0.0,0.0,0.0,0.0,0.0,0.0,0.0,0.0,0.0,0.0,0.0,0.0,0.0,0.0,0.0,0.0,0.0,0.0,0.0,0.0,0.0,0.0,0.0,0.0,0.0,0.0,0.0,0.0,0.0,0.0,0.0,0.0,0.0,0.0,0.0,0.0,0.0,0.0,0.0,0.0,0.0,0.0,0.0,0.0,0.0,0.0,0.0,0.0,0.0,0.0,0.0,0.0,0.0,0.0,0.0,0.0,0.0,0.0,0.0,0.0,0.0,0.0,0.0,0.0,0.0,0.0,0.0,0.0,0.0,0.0,0.0,0.0,0.0,0.0,0.0,0.0,0.0,0.0,0.0,0.0,0.0,0.0,0.0,0.0,0.0,0.0,0.0,0.0,0.0,0.0,0.0,0.0,0.0,0.0,0.0,0.0,0.0,0.0,0.0,0.0,0.0,0.0,0.0,0.0,0.0,0.0,0.0,0.0,0.0,0.0,0.0,0.0,0.0,0.0,0.0,0.0,0.0,0.0,0.0,0.0,0.0,0.0,0.0,0.0,0.0,0.0,0.0,0.0,0.0,0.0,0.0,0.0,0.0,0.0,0.0,0.0,0.0,0.0,0.0,0.0,0.0,0.0,0.0,0.0,0.0,0.0,0.0,0.0,0.0,0.0,0.0,0.0,0.0,0.0,0.0,0.0,0.0,0.0,0.0,0.0,0.0,0.0,0.0,0.0,0.0,0.0,0.0,0.0,0.0,0.0,0.0,0.0,0.0,0.0,0.0,0.0,0.0,0.0,0.0,0.0,0.0,0.0,0.0,0.0,0.0,0.0,0.0,0.0,0.0,0.0,0.0,0.0,0.0,0.0,0.0,0.0,0.0,0.0,0.0,0.0,0.0,0.0,0.0,0.0,0.0,0.0,0.0,0.0,0.0,0.0,0.0,0.0,0.0,0.0,0.0,0.0,0.0,0.0,0.0,0.0,0.0,0.0,0.0,0.0,0.0,0.0,0.0,0.0,0.0,0.0,0.0,0.0,0.0,0.0,0.0,0.0,0.0,0.0,0.0,0.0,0.0,0.0,0.0,0.0,0.0,0.0,0.0,0.0,0.0,0.0,0.0,0.0,0.0,0.0,0.0,0.0,0.0,0.0,0.0,0.0,0.0,0.0,0.0,0.0,0.0,0.0,0.0,0.0,0.0,0.0,0.0,0.0,0.0,0.0,0.0,0.0,0.0,0.0,0.0,0.0,0.0,0.0,0.0,0.0,0.0,0.0,0.0,0.0,0.0,0.0,0.0,0.0,0.0,0.0,0.0,0.0,0.0,0.0,0.0,0.0,0.0,0.0,0.0,0.0,0.0,0.0,0.0,0.0,0.0,0.0,0.0,0.0,0.0,0.0,0.0,0.0,0.0,0.0,0.0,0.0,0.0,0.0,0.0,0.0,0.0,0.0,0.0,0.0,0.0,0.0,0.0,0.0,0.0,0.0,0.0,0.0,0.0,0.0,0.0,0.0,0.0,0.0,0.0,0.0,0.0,0.0,0.0,0.0,0.0,0.0,0.0,0.0,0.0,0.0,0.0,0.0,0.0,0.0,0.0,0.0,0.0,0.0,0.0,0.0,0.0,0.0,0.0,0.0,0.0,0.0,0.0,0.0,0.0,0.0,0.0,0.0,0.0,0.0,0.0,0.0,0.0,0.0,0.0,0.0,0.0,0.0,0.0,0.0,0.0,0.0,0.0,0.0,0.0,0.0,0.0,0.0,0.0,0.0,0.0,0.0,0.0,0.0,0.0,0.0,0.0,0.0,0.0,0.0,0.0,0.0,0.0,0.0,0.0,0.0,0.0,0.0,0.0,0.0,0.0,0.0,0.0,0.0,0.0,0.0,0.0,0.0,0.0,0.0,0.0,0.0,0.0,0.0,0.0,0.0,0.0,0.0,0.0,0.0,0.0,0.0,0.0,0.0,0.0,0.0,0.0,0.0,0.0,0.0,0.0,0.0,0.0,0.0,0.0,0.0,0.0,0.0,0.0,0.0,0.0,0.0,0.0,0.0,0.0,0.0,0.0,0.0,0.0,0.0,0.0,0.0,0.0,0.0,0.0,0.0,0.0,0.0,0.0,0.0,0.0,0.0,0.0,0.0,0.0,0.0,0.0,0.0,0.0,0.0,0.0,0.0,0.0,0.0,0.0,0.0,0.0,0.0,0.0,0.0,0.0,0.0,0.0,0.0,0.0,0.0,0.0,0.0,0.0,0.0,0.0,0.0,0.0,0.0,0.0,0.0,0.0,0.0,0.0,0.0,0.0,0.0,0.0,0.0,0.0,0.0,0.0,0.0,0.0,0.0,0.0,0.0,0.0,0.0,0.0,0.0,0.0,0.0,0.0,0.0,0.0,0.0,0.0,0.0,0.0,0.0,0.0,0.0,0.0,0.0,0.0,0.0,0.0,0.0,0.0,0.0,0.0,0.0,0.0,0.0,0.0,0.0,0.0,0.0,0.0,0.0,0.0,0.0,0.0,0.0,0.0,0.0,0.0,0.0,0.0,0.0,0.0,0.0,0.0,0.0,0.0,0.0,0.0,0.0,0.0,0.0,0.0,0.0,0.0,0.0,0.0,0.0,0.0,0.0,0.0,0.0,0.0,0.0,0.0,0.0,0.0,0.0,0.0,0.0,0.0,0.0,0.0,0.0,0.0,0.0,0.0,0.0,0.0,0.0,0.0,0.0,0.0,0.0,0.0,0.0,0.0,0.0,0.0,0.0,0.0,0.0,0.0,0.0,0.0,0.0,0.0,0.0,0.0,0.0,0.0,0.0,0.0,0.0,0.0,0.0,0.0,0.0,0.0,0.0,0.0,0.0,0.0,0.0,0.0,0.0,0.0,0.0,0.0,0.0,0.0,0.0,0.0,0.0,0.0,0.0,0.0,0.0,0.0,0.0,0.0,0.0,0.0,0.0,0.0,0.0,0.0,0.0,0.0,0.0,0.0,0.0,0.0,0.0,0.0,0.0,0.0,0.0,0.0,0.0,0.0,0.0,0.0,0.0,0.0,0.0,0.0,0.0,0.0,0.0,0.0,0.0,0.0,0.0,0.0,0.0,0.0,0.0,0.0,0.0,0.0,0.0,0.0,0.0,0.0,0.0,0.0,0.0,0.0,0.0,0.0,0.0,0.0,0.0,0.0,0.0,0.0,0.0,0.0,0.0,0.0,0.0,0.0,0.0,0.0,0.0,0.0,0.0,0.0,0.0,0.0,0.0,0.0,0.0,0.0,0.0,0.0,0.0,0.0,0.0,0.0,0.0,0.0,0.0,0.0,0.0,0.0,0.0,0.0,0.0,0.0,0.0,0.0,0.0,0.0,0.0,0.0,0.0,0.0,0.0,0.0,0.0,0.0,0.0,0.0,0.0,0.0,0.0,0.0,0.0,0.0,0.0,0.0,0.0,0.0,0.0,0.0,0.0,0.0,0.0,0.0,0.0,0.0,0.0,0.0,0.0,-0.7887,-0.7502,0.0,0.0,0.0,0.0,0.0,0.0,0.0,0.0,0.0,0.0,0.0,0.0,0.0,0.0,0.0,0.0,0.0,0.0,0.0,0.0,0.0,0.0,0.0,0.0,0.0,0.0,0.0,0.0,0.0,0.0,0.0,0.0,0.0,0.0,0.0,0.0,0.0,0.0,0.0,0.0,0.0,0.0,0.0,0.0,0.0,0.0,0.0,0.0,0.0,0.0,0.0,0.0,0.0,0.0,0.0,0.0,0.0,0.0,0.0,0.0,0.0,0.0,0.0,0.0,0.0,0.0,0.0,0.0,0.0,0.0,0.0,0.0,0.0,0.0,0.0,0.0,0.0,0.0,0.0,0.0,0.0,0.0,0.0,0.0,0.0,0.0,0.0,0.0,0.0,0.0,0.0,0.0,0.0,0.0,0.0,0.0,0.0,0.0,0.0,0.0,0.0,0.0,0.0,0.0,0.0,0.0,0.0,0.0,0.0,0.0,0.0,0.0,0.0,0.0,-0.7161,-0.7234,0.0,0.0,0.0,0.0,0.0,0.0,0.0,0.0,0.0,0.0,0.0,0.0,0.0,0.0,0.0,0.0,0.0,0.0,0.0,0.0,0.0,0.0,0.0,0.0,0.0,0.0,0.0,0.0,0.0,0.0,0.0,0.0,0.0,0.0,0.0,0.0,0.0,0.0,0.0,0.0,0.0,0.0,0.0,0.0,0.0,0.0,0.0,0.0,0.0,0.0,0.0,0.0,0.0,0.0,0.0,0.0,0.0,0.0,0.0,0.0,0.0,0.0,0.0,0.0,0.0,0.0,0.0,0.0,0.0,0.0,0.0,0.0,0.0,0.0,0.0,0.0,0.0,0.0,0.0,0.0,0.0,0.0,0.0,0.0,0.0,0.0,0.0,0.0,0.0,0.0,0.0,0.0,0.0,0.0,0.0,0.0,0.0,0.0,0.0,0.0,0.0,0.0,0.0,0.0,0.0,0.0,0.0,0.0,-0.1443,-0.2343,-0.2825,-0.3374,-0.4372,-0.5643,-0.5953,-0.6777,-0.7929,-0.7383,0.0,0.0,0.0,0.0,0.0,0.0,0.0,0.0,0.0,0.0,0.0,0.0,0.0,0.0,0.0,0.0,0.0,0.0,0.0,0.0,0.0,0.0,0.0,0.0,0.0,0.0,0.0,0.0,0.0,0.0,0.0,0.0,0.0,0.0,0.0,0.0,0.0,0.0,0.0,0.0,0.0,0.0,0.0,0.0,0.0,0.0,0.0,0.0,0.0,0.0,0.0,0.0,0.0,0.0,0.0,0.0,0.0,0.0,0.0,0.0,0.0,0.0,0.0,0.0,0.0,0.0,0.0,0.0,0.0,0.0,0.0,0.0,0.0,0.0,0.0,0.0,0.0,0.0,0.0,0.0,0.0,0.0,0.0,0.0,0.0,0.0,1.3391,1.2619,0.0,0.0,0.0,0.0,0.0,0.0,0.0,0.0,0.0,0.0,0.0,0.0,0.0,0.4794,0.4038,0.2936,0.1571,0.0,-0.1123,-0.2139,-0.3064,-0.314,-0.3768,-0.4873,-0.4915,0.0,-0.6219,-0.6966,0.0,0.0,0.0,0.0,0.0,0.0,0.0,0.0,0.0,0.0,0.0,0.0,0.0,0.0,0.0,0.0,0.0,0.0,0.0,0.0,0.0,0.0,0.0,0.0,0.0,0.0,0.0,0.0,0.0,0.0,0.0,0.0,0.0,0.0,0.0,0.0,0.0,0.0,0.0,0.0,0.0,0.0,0.0,0.0,0.0,0.0,0.0,0.0,0.0,0.0,0.0,0.0,0.0,0.0,0.0,0.0,0.0,0.0,0.0,0.0,0.0,0.0,0.0,0.0,0.0,0.0,0.0,0.0,0.0,0.0,0.0,0.0,0.0,0.0,0.0,0.0,0.0,0.0,0.0,0.0,0.0,0.0,0.0,0.0,0.0,1.4076,1.3195,1.2381,1.2673,1.2464,0.0,0.0,0.0,0.0,0.0,0.0,0.0,0.0,0.0,0.7909,0.6413,0.5527,0.5321,0.3727,0.249,0.1738,0.1234,0.0544,-0.0467,-0.0467,-0.14,-0.2958,-0.2958,-0.3463,-0.4375,-0.5857,-0.6062,-0.5403,0.0,0.0,0.0,0.0,-0.809,-0.7865,0.0,0.0,0.0,0.0,0.0,0.0,0.0,0.0,0.0,0.0,0.0,0.0,0.0,0.0,0.0,0.0,0.0,0.0,0.0,0.0,0.0,0.0,0.0,0.0,0.0,0.0,0.0,0.0,0.0,0.0,0.0,0.0,0.0,0.0,0.0,0.0,0.0,0.0,0.0,0.0,0.0,0.0,0.0,0.0,0.0,0.0,0.0,0.0,0.0,0.0,0.0,0.0,0.0,0.0,0.0,0.0,0.0,0.0,0.0,0.0,0.0,0.0,0.0,0.0,0.0,0.0,0.0,0.0,0.0,0.0,0.0,0.0,0.0,0.0,0.0,0.0,0.0,1.4324,1.348,1.2428,1.3103,1.3032,0.0,0.0,0.0,0.0,0.0,0.0,1.0438,0.9919,0.9624,0.9777,0.7767,0.6803,0.6973,0.5209,0.413,0.3895,0.3667,0.2963,0.1945,0.1945,0.101,-0.0777,-0.0777,-0.1556,-0.2877,-0.4726,-0.5504,-0.5418,-0.549,-0.543,-0.5568,-0.7229,-0.7332,-0.7185,0.0,0.0,0.0,0.0,0.0,0.0,0.0,0.0,0.0,0.0,0.0,0.0,0.0,0.0,0.0,0.0,0.0,0.0,0.0,0.0,0.0,0.0,0.0,0.0,0.0,0.0,0.0,0.0,0.0,0.0,0.0,0.0,0.0,0.0,0.0,0.0,0.0,0.0,0.0,0.0,0.0,0.0,0.0,0.0,0.0,0.0,0.0,0.0,0.0,0.0,0.0,0.0,0.0,0.0,0.0,0.0,0.0,0.0,0.0,0.0,0.0,0.0,0.0,0.0,0.0,0.0,0.0,0.0,0.0,0.0,0.0,0.0,0.0,0.0,0.0,0.0,0.0,0.0,0.0,1.4052,1.4684,0.0,0.0,0.0,0.0,1.1603,1.0968,1.0399,0.9949,0.9909,0.9723,0.9326,0.9185,0.912,0.914,0.808,0.7073,0.6053,0.5065,0.4062,0.3044,0.3044,0.2415,0.1476,0.1476,0.0233,-0.1865,-0.3889,-0.4545,-0.4354,-0.5353,-0.5606,-0.5526,-0.6847,-0.7324,-0.7588,0.0,0.0,0.0,0.0,0.0,0.0,0.0,0.0,0.0,0.0,0.0,0.0,0.0,0.0,0.0,0.0,0.0,0.0,0.0,0.0,0.0,0.0,0.0,0.0,0.0,0.0,0.0,0.0,0.0,0.0,0.0,0.0,0.0,0.0,0.0,0.0,0.0,0.0,0.0,0.0,0.0,0.0,0.0,0.0,0.0,0.0,0.0,0.0,0.0,0.0,0.0,0.0,0.0,0.0,0.0,0.0,0.0,0.0,0.0,0.0,0.0,0.0,0.0,0.0,0.0,0.0,0.0,0.0,0.0,0.0,0.0,0.0,0.0,0.0,0.0,0.0,0.0,0.0,0.0,1.5027,1.5681,0.0,1.4533,1.4418,1.4331,1.4005,1.3132,1.2522,1.2372,1.1749,1.1417,1.1242,1.0571,1.0265,1.0265,0.9291,0.8609,0.821,0.7833,0.7145,0.6146,0.6146,0.5214,0.3585,0.3585,0.2803,0.1323,-0.0078,-0.1771,-0.3501,-0.388,-0.444,-0.5052,-0.6169,-0.6596,-0.693,0.0,0.0,0.0,0.0,0.0,0.0,0.0,0.0,0.0,0.0,0.0,0.0,0.0,0.0,0.0,0.0,0.0,0.0,0.0,0.0,0.0,0.0,0.0,0.0,0.0,0.0,0.0,0.0,0.0,0.0,0.0,0.0,0.0,0.0,0.0,0.0,0.0,0.0,0.0,0.0,0.0,0.0,-1.0775,0.0,0.0,0.0,0.0,0.0,0.0,0.0,0.0,0.0,0.0,0.0,0.0,0.0,0.0,0.0,0.0,0.0,0.0,0.0,0.0,0.0,0.0,0.0,0.0,0.0,0.0,0.0,0.0,0.0,0.0,0.0,0.0,0.0,0.0,1.7513,1.7447,1.6405,1.7337,1.7407,1.5949,1.6005,1.5896,1.5318,1.4611,1.4243,1.4243,1.331,1.2732,1.2732,1.1835,1.1316,1.1316,1.0346,0.982,0.982,0.9448,0.8917,0.8313,0.8313,0.7387,0.577,0.577,0.4913,0.3591,0.296,0.1167,-0.1091,-0.2182,-0.3039,-0.374,-0.482,-0.5217,-0.5464,0.0,0.0,0.0,0.0,0.0,0.0,0.0,0.0,0.0,0.0,0.0,0.0,0.0,0.0,0.0,0.0,0.0,0.0,0.0,0.0,0.0,0.0,0.0,0.0,0.0,0.0,0.0,0.0,0.0,0.0,0.0,0.0,0.0,0.0,0.0,0.0,0.0,0.0,0.0,0.0,0.0,0.0,-1.0771,0.0,0.0,0.0,0.0,0.0,0.0,0.0,0.0,0.0,0.0,0.0,0.0,0.0,0.0,0.0,0.0,0.0,0.0,0.0,0.0,0.0,0.0,0.0,0.0,0.0,0.0,0.0,0.0,0.0,0.0,0.0,0.0,0.0,1.909,1.9678,1.9666,1.8265,1.9595,1.9606,1.6951,1.7458,1.7288,1.5438,1.5296,1.5305,1.5234,1.4307,1.3745,1.3745,1.2879,1.2378,1.2372,1.1391,1.0864,1.0858,0.9895,0.9372,0.9372,0.9372,0.8765,0.7859,0.7859,0.6696,0.4763,0.4763,0.4139,0.2887,-0.0233,-0.1476,-0.1632,-0.2572,-0.2966,-0.3198,0.0,0.0,0.0,0.0,0.0,0.0,0.0,0.0,0.0,0.0,0.0,0.0,0.0,0.0,0.0,0.0,0.0,0.0,0.0,0.0,0.0,0.0,0.0,0.0,0.0,0.0,0.0,0.0,0.0,0.0,0.0,0.0,0.0,0.0,0.0,0.0,0.0,0.0,0.0,0.0,0.0,0.0,0.558,0.0,0.0,0.0,0.0,0.0,0.0,0.0,0.0,0.0,0.0,0.0,0.0,0.0,0.0,0.0,0.0,0.0,0.0,0.0,0.0,0.0,0.0,0.0,0.0,0.0,0.0,0.0,0.0,0.0,0.0,0.0,2.1534,2.1458,2.0061,2.0224,2.0325,1.993,2.0329,2.0275,1.9543,1.9695,1.9388,1.8257,1.7552,1.6858,1.628,1.5305,1.4807,1.4807,1.4522,1.4019,1.331,1.3011,1.2572,1.1848,1.162,1.1093,1.0415,1.0415,0.9814,0.8917,0.8917,0.8152,0.693,0.693,0.6314,0.5157,0.2727,0.14,0.0699,0.0389,-0.07,-0.2023,0.0,0.0,0.0,0.0,0.0,0.0,0.0,0.0,0.0,0.0,0.0,0.0,0.0,0.0,0.0,0.0,0.0,0.0,0.0,0.0,0.0,0.0,0.0,0.0,0.0,0.0,0.0,0.0,0.0,0.0,0.0,0.0,0.0,0.0,0.0,0.0,0.0,0.0,0.0,0.0,0.0,0.0,1.6166,1.3509,1.1403,0.992,1.1017,1.0749,0.9977,1.1248,0.0,0.0,0.0,0.0,0.0,0.0,0.0,0.0,0.0,0.0,0.0,0.0,0.0,0.0,0.0,0.0,0.0,0.0,0.0,0.0,0.0,0.0,0.0,0.0,2.3313,2.3457,2.2526,2.1982,2.1678,2.1678,2.1678,2.1479,2.1175,2.1164,2.0782,1.9879,1.9312,1.8629,1.7794,1.6807,1.6184,1.579,1.5376,1.495,1.4307,1.4314,1.4019,1.352,1.352,1.3004,1.2044,1.2044,1.123,0.9895,0.9895,0.9367,0.8466,0.8466,0.8084,0.0,0.0,0.0,0.0,0.0,0.14,0.0389,0.0,0.0,0.0,0.0,0.0,0.0,0.0,0.0,0.0,0.0,0.0,0.0,0.0,0.0,0.0,0.0,0.0,0.0,0.0,0.0,0.0,0.0,0.0,0.0,0.0,0.0,0.0,0.0,0.0,0.0,0.0,0.0,0.0,0.0,0.0,0.0,0.0,0.0,0.0,0.0,0.0,0.0,2.2944,1.9007,1.6877,1.6065,1.61,1.5225,1.4233,1.5779,0.0,0.0,0.0,0.0,0.0,0.0,0.0,0.0,0.0,0.0,0.0,0.0,0.0,0.0,0.0,0.0,0.0,0.0,0.0,0.0,0.0,0.0,0.0,0.0,2.5075,2.5508,2.5398,2.4208,2.3365,2.3365,2.3305,2.2932,2.2249,2.2063,2.169,2.0782,2.0719,2.0398,1.9497,1.8629,0.0,0.0,0.0,1.5579,1.5376,1.5376,1.5305,1.5234,1.5234,1.4736,1.3882,1.3882,1.2851,1.1156,1.1156,1.0559,0.9593,0.9593,0.9588,0.9135,0.6224,0.5074,0.4919,0.3979,0.3587,0.3585,0.0,0.0,0.0,0.0,0.0,0.0,0.0,0.0,0.0,0.0,0.0,0.0,0.0,0.0,0.0,0.0,0.0,0.0,0.0,0.0,0.0,0.0,0.0,0.0,0.0,0.0,0.0,0.0,0.0,0.0,0.0,0.0,0.0,0.0,0.0,0.0,0.0,0.0,0.0,0.0,0.0,0.0,2.9332,2.9132,2.682,2.3674,2.3644,2.2387,2.0742,2.072,2.0745,2.0822,2.0738,0.0,0.0,0.0,0.0,0.0,0.0,0.0,0.0,0.0,0.0,0.0,0.0,0.0,0.0,0.0,0.0,0.0,0.0,0.0,0.0,2.4537,2.5506,2.6068,2.5453,2.5119,2.4951,2.4951,2.4452,2.4002,2.3872,2.3233,2.2506,2.169,2.1616,2.1302,2.0398,2.0182,1.9661,1.8824,1.8613,1.7784,1.6349,1.6358,1.5939,1.5234,0.0,0.0,1.4879,1.4879,1.4227,1.315,1.315,1.2545,1.1643,1.1643,1.1187,1.0215,0.8062,0.7165,0.7161,0.7003,0.6827,0.6798,0.0,0.0,0.0,0.0,0.0,0.0,0.0,0.0,0.0,0.0,0.0,0.0,0.0,0.0,0.0,0.0,0.0,0.0,0.0,0.0,0.0,0.0,0.0,0.0,0.0,0.0,0.0,0.0,0.0,0.0,0.0,0.0,0.0,0.0,0.0,0.0,0.0,0.0,0.0,0.0,0.0,0.0,3.1795,3.216,3.1031,2.9195,2.8671,2.7412,2.5923,2.5525,2.5394,2.5255,2.4614,2.4235,2.3747,0.0,0.0,0.0,0.0,0.0,0.0,0.0,0.0,0.0,0.0,0.0,0.0,0.0,0.0,2.3876,2.4874,0.0,2.5809,2.6408,2.6796,2.693,2.6534,2.6481,2.6215,2.5508,2.4738,2.4452,2.4794,2.3767,2.3125,2.3088,2.2738,2.2125,2.1302,2.1239,2.0846,2.0009,1.9944,1.953,1.8639,1.8572,1.817,1.7229,1.7229,1.6757,1.593,1.593,1.5376,1.445,1.445,1.4148,1.3693,1.3693,1.3085,1.2032,1.0587,0.9422,0.8542,0.8542,0.8523,0.8505,0.0,0.0,0.0,0.0,0.0,0.0,0.0,0.0,0.0,0.0,0.0,0.0,0.0,0.0,0.0,0.0,0.0,0.0,0.0,0.0,0.0,0.0,0.0,0.0,0.0,0.0,0.0,0.0,0.0,0.0,0.0,0.0,0.0,0.0,0.0,0.0,0.0,0.0,0.0,0.0,0.0,0.0,3.2432,3.258,3.2765,3.2905,3.2203,3.1236,3.0238,2.99,2.9685,2.9416,2.838,2.7432,2.6396,2.494,2.4597,0.0,0.0,0.0,0.0,0.0,0.0,0.0,0.0,2.447,2.426,2.5246,2.5068,2.519,2.6754,2.6672,2.6872,2.842,2.8271,2.7894,2.781,2.776,2.7276,2.6,2.5175,2.4951,2.5563,2.4381,2.3826,2.4452,2.3767,2.3053,2.2433,2.2187,2.1741,2.0846,2.0846,2.0782,2.059,2.059,2.0268,1.9562,1.9562,1.8803,1.7366,1.7366,1.6876,1.5965,1.5773,1.5711,1.5711,1.5508,1.5035,1.4332,1.323,1.1864,1.0404,0.9814,0.975,0.99,0.0,0.0,0.0,0.0,0.0,0.0,0.0,0.0,0.0,0.0,0.0,0.0,0.0,0.0,0.0,0.0,0.0,0.0,0.0,0.0,0.0,0.0,0.0,0.0,0.0,0.0,0.0,0.0,0.0,0.0,0.0,0.0,0.0,0.0,0.0,0.0,0.0,0.0,0.0,0.0,0.0,0.0,3.2175,3.3375,3.3896,3.405,3.425,3.3955,3.3431,3.3101,3.2557,3.2056,3.2444,3.0667,2.8354,2.7905,0.0,2.4552,2.3407,2.4302,2.5649,2.5965,2.6565,2.7398,0.0,2.8118,2.7776,2.8682,2.8793,2.8796,2.9045,2.9032,2.9051,2.9239,2.9225,2.8996,2.8463,2.8415,2.8125,2.7444,2.6707,2.6283,2.6336,2.5618,2.5175,2.5287,2.4567,2.4118,2.4047,2.3352,2.2567,2.1753,2.1753,2.1365,2.059,2.059,2.0526,2.0462,2.0462,2.0322,2.0117,2.0117,1.9608,1.868,1.7909,1.76,1.7561,1.6757,1.6798,1.7222,1.5545,1.472,1.4212,1.1588,1.1168,1.1929,0.0,0.0,0.0,0.0,0.0,0.0,0.0,0.0,0.0,0.0,0.0,0.0,0.0,0.0,0.0,0.0,0.0,0.0,0.0,0.0,0.0,0.0,0.0,0.0,0.0,0.0,0.0,0.0,0.0,0.0,0.0,0.0,0.0,0.0,0.0,0.0,0.0,0.0,0.0,0.0,0.0,0.0,3.2912,3.3321,3.3399,3.3307,3.3565,3.3581,0.0,0.0,3.2708,3.2462,3.2568,3.1476,2.9837,2.8154,2.7191,0.0,2.7273,2.7263,2.7362,2.8386,2.8665,2.8882,2.9725,2.8963,2.853,2.9964,2.9827,2.9496,2.9848,2.9629,2.9496,2.9865,2.9629,2.946,2.9626,2.9326,2.9157,2.9342,2.8749,2.8154,2.7771,2.696,2.6706,2.7102,2.6477,2.6072,2.6072,2.541,2.4636,2.3844,2.3479,2.2907,2.2051,2.2051,2.1803,2.1365,2.1365,2.1101,2.059,2.059,2.0375,1.9998,1.9619,1.9498,1.9444,1.9114,1.917,1.9291,1.7464,1.7104,1.7213,1.4379,1.3643,1.4019,0.0,0.0,0.0,0.0,0.0,0.0,0.0,0.0,0.0,0.0,0.0,0.0,0.0,0.0,0.0,0.0,0.0,0.0,0.0,0.0,0.0,0.0,0.0,0.0,0.0,0.0,0.0,0.0,0.0,0.0,0.0,0.0,0.0,0.0,0.0,0.0,0.0,0.0,0.0,0.0,0.0,0.0,3.3185,3.285,3.2524,3.2353,3.2803,3.2705,0.0,0.0,3.1938,3.1894,3.1697,3.0998,2.9839,2.7888,2.7213,2.7453,2.9075,2.9021,2.8811,3.0105,3.0535,3.0645,3.0853,2.9971,2.9525,3.0866,3.0484,3.0038,3.0477,3.0208,3.0103,3.0742,3.0488,3.0384,3.0946,3.064,3.0446,3.0851,3.0608,3.025,2.976,2.8817,2.8352,2.8706,2.8239,2.7825,2.7621,2.6998,2.6356,2.58,2.5204,2.4633,2.3986,2.3607,2.3113,2.2543,2.2543,2.2101,2.129,2.129,2.1164,2.0974,2.0974,2.0974,2.091,2.0719,2.0719,2.0771,1.928,1.9052,1.9369,1.7387,1.6175,1.5483,0.0,0.0,0.0,0.0,0.0,0.0,0.0,0.0,0.0,0.0,0.0,0.0,0.0,0.0,0.0,0.0,0.0,0.0,0.0,0.0,0.0,0.0,0.0,0.0,0.0,0.0,0.0,0.0,0.0,0.0,0.0,0.0,0.0,0.0,0.0,0.0,0.0,0.0,0.0,0.0,0.0,0.0,3.2483,3.1946,3.1656,3.1665,3.2716,0.0,0.0,0.0,3.0519,3.0456,3.0444,2.9194,0.0,2.7605,2.6308,2.525,2.686,2.826,2.9514,3.055,3.1964,3.2973,3.2545,3.2057,3.1683,3.1771,3.1432,3.1151,3.119,3.1151,3.1388,3.2121,3.2239,3.2269,3.2408,3.2418,3.2191,3.163,3.2143,3.2494,3.2478,3.1275,3.0232,2.9619,2.9469,2.9139,2.8381,2.7666,2.7242,2.7242,2.663,2.6325,2.6325,2.4962,2.4234,2.4234,2.4234,2.3813,2.3005,2.3005,2.2628,2.1877,2.1877,2.1877,2.1815,2.0974,2.1112,2.1753,2.0846,2.0515,2.0515,2.0462,1.8721,1.6243,0.0,0.0,0.0,0.0,0.0,0.0,0.0,0.0,0.0,0.0,0.0,0.0,0.0,0.0,0.0,0.0,0.0,0.0,0.0,0.0,0.0,0.0,0.0,0.0,0.0,0.0,0.0,0.0,0.0,0.0,0.0,0.0,0.0,0.0,0.0,0.0,0.0,0.0,0.0,0.0,0.0,0.0,3.3817,3.2521,3.1052,2.9706,0.0,0.0,0.0,0.0,2.8753,2.8741,2.8747,2.8222,2.737,2.6212,2.6326,2.7179,2.8654,3.0091,3.1458,3.2736,3.3122,3.3243,3.3361,3.2791,3.2264,3.2264,3.1305,3.0525,3.0743,3.0773,3.0994,3.1819,3.2576,3.3246,3.3722,3.3449,3.3294,3.3565,3.3386,3.3281,3.3281,3.287,3.2332,3.1651,3.1551,3.1207,3.048,2.9809,2.9203,2.8726,2.8054,2.7512,2.7028,2.6117,2.5701,2.5602,2.5245,2.4894,2.461,2.461,2.4483,2.4226,2.4226,2.4226,2.4168,2.3408,2.3255,2.3386,2.1978,2.2089,2.287,2.1204,2.0692,2.0579,0.0,0.0,0.0,0.0,0.0,0.0,0.0,0.0,0.0,0.0,0.0,0.0,0.0,0.0,0.0,0.0,0.0,0.0,0.0,0.0,0.0,0.0,0.0,0.0,0.0,0.0,0.0,0.0,0.0,0.0,0.0,0.0,0.0,0.0,0.0,0.0,0.0,0.0,0.0,0.0,0.0,0.0,3.2727,3.0624,2.8895,0.0,0.0,0.0,0.0,0.0,2.6969,2.6969,2.6977,2.6883,2.668,2.6182,2.6921,2.8338,3.0352,3.1547,3.26,3.4014,3.3963,3.3634,3.3884,3.3306,3.2745,3.2745,3.1572,3.0589,3.0817,3.0907,3.1041,3.1319,3.2281,3.3254,3.3998,3.3717,3.3844,3.4825,3.4592,3.4301,3.4301,3.4301,3.3953,3.3039,3.3198,3.2971,3.2296,3.1827,3.1387,3.094,3.0253,2.9666,2.9222,2.8032,2.7239,2.6688,2.6062,2.5875,2.6105,2.5821,2.5713,2.5713,2.5481,2.5398,2.5342,2.4908,2.4681,2.461,2.3539,2.3774,2.4496,2.2892,2.2795,2.3153,0.0,0.0,0.0,0.0,0.0,0.0,0.0,0.0,0.0,0.0,0.0,0.0,0.0,0.0,0.0,0.0,0.0,0.0,0.0,0.0,0.0,0.0,0.0,0.0,0.0,0.0,0.0,0.0,0.0,0.0,0.0,0.0,0.0,0.0,0.0,0.0,0.0,0.0,0.0,0.0,0.0,0.0,2.9416,2.666,0.0,0.0,0.0,0.0,0.0,0.0,2.536,2.5457,2.5534,2.5553,2.588,2.7544,2.8082,2.8799,3.1737,3.2572,3.298,3.4377,3.4467,3.4223,3.42,3.3697,3.3225,3.316,3.2125,3.1207,3.1172,3.1463,3.151,3.0768,3.1654,3.2696,3.3406,3.3525,3.4032,3.5453,3.5622,3.5622,3.5622,3.5622,3.5068,3.3786,3.4284,3.4333,3.3649,3.3582,3.3582,3.3582,3.2992,3.2624,3.2657,3.0542,2.8863,2.7555,2.6806,2.6843,2.7495,2.6792,2.6451,2.6414,2.5875,2.5591,2.5605,2.555,2.555,2.5494,2.5439,2.5439,2.5494,2.5439,2.4968,2.4024,0.0,0.0,0.0,0.0,0.0,0.0,0.0,0.0,0.0,0.0,0.0,0.0,0.0,0.0,0.0,0.0,0.0,0.0,0.0,0.0,0.0,0.0,0.0,0.0,0.0,0.0,0.0,0.0,0.0,0.0,0.0,0.0,0.0,0.0,0.0,0.0,0.0,0.0,0.0,0.0,0.0,0.0,2.8492,0.0,0.0,0.0,0.0,0.0,0.0,0.0,2.6168,2.7465,2.8706,2.9091,2.9187,2.964,3.066,3.1802,3.2589,3.3593,3.4535,3.4902,3.4793,3.4508,3.4265,3.408,3.3618,3.2524,3.131,3.0178,2.9251,3.026,3.1217,3.1007,3.3088,3.4827,3.503,3.5064,3.5199,3.5571,3.5622,3.5622,3.5622,3.5622,3.547,3.5115,3.48,3.4333,3.3649,3.3582,3.3582,3.3582,3.3406,3.3303,3.3289,3.1671,3.0495,2.9722,2.8936,2.8732,2.8903,2.8685,2.8623,2.8623,2.845,2.8403,2.8355,2.7795,2.7315,2.685,2.6299,2.6419,2.6799,2.6299,2.6541,2.708,0.0,0.0,0.0,0.0,0.0,0.0,0.0,0.0,0.0,0.0,0.0,0.0,0.0,0.0,0.0,0.0,0.0,0.0,0.0,0.0,0.0,0.0,0.0,0.0,0.0,0.0,0.0,0.0,0.0,0.0,0.0,0.0,0.0,0.0,0.0,0.0,0.0,0.0,0.0,0.0,0.0,0.0,0.0,0.0,0.0,0.0,0.0,0.0,0.0,0.0,0.0,2.9565,3.0056,3.022,3.0393,3.1244,3.216,3.3064,3.3833,3.4654,3.5273,3.5273,3.4981,3.4465,3.3529,3.2858,3.2249,3.1517,3.018,2.9067,2.8832,3.052,3.1572,3.0325,3.2879,3.501,3.501,3.4754,3.5035,3.6163,3.5898,3.5766,3.6249,3.6097,3.5941,3.5941,3.5374,3.4894,3.4512,3.4496,3.4496,3.4496,3.4496,3.4329,3.3938,3.2887,3.185,3.0915,3.0473,3.0097,2.9805,2.9805,2.9805,2.9761,0.0,2.9406,2.9361,2.8963,2.8561,2.8259,2.7811,2.7908,2.8244,2.7811,2.815,2.8778,0.0,0.0,0.0,0.0,0.0,0.0,0.0,0.0,0.0,0.0,0.0,0.0,0.0,0.0,0.0,0.0,0.0,0.0,0.0,0.0,0.0,0.0,0.0,0.0,0.0,0.0,0.0,0.0,0.0,0.0,0.0,0.0,0.0,0.0,0.0,0.0,0.0,0.0,0.0,0.0,0.0,0.0,0.0,0.0,0.0,0.0,0.0,0.0,0.0,0.0,2.9662,3.1166,3.0725,3.0611,3.0975,3.2653,3.3133,3.3478,3.499,3.5427,3.5446,3.5427,3.5086,3.43,3.2562,3.1241,3.0388,3.0256,2.892,2.8058,2.8883,3.0995,3.1876,2.9571,3.2039,3.4332,3.4463,3.4157,3.4743,3.6955,3.6357,3.6165,3.7097,3.6764,3.6498,3.6498,3.6088,3.5728,3.5622,3.5673,3.5707,3.5707,3.5802,3.5476,3.4774,3.4192,3.3296,3.1992,3.18,3.1316,3.0642,3.0551,3.046,3.0393,2.9865,2.9657,2.9729,2.9729,2.9685,2.9597,2.9597,2.9597,2.9597,2.9597,2.9669,2.9886,0.0,0.0,0.0,0.0,0.0,0.0,0.0,0.0,0.0,0.0,2.5683,0.0,0.0,0.0,0.0,0.0,0.0,0.0,0.0,0.0,0.0,0.0,0.0,0.0,0.0,0.0,0.0,0.0,0.0,0.0,0.0,0.0,0.0,0.0,0.0,0.0,0.0,0.0,0.0,0.0,0.0,0.0,0.0,0.0,0.0,0.0,0.0,0.0,0.0,0.0,2.936,3.0358,3.2862,3.3844,3.4093,3.4333,3.4394,3.4491,3.4895,3.5078,3.5136,3.504,3.5028,3.4471,3.2345,3.1691,3.0928,2.8728,2.8033,2.7644,2.7172,2.8742,3.023,3.0656,3.2897,3.4931,3.5885,3.6322,3.6682,3.7155,3.7038,3.6981,3.7173,3.7114,3.7058,3.7058,3.6974,3.6533,3.5667,3.6034,3.6248,3.6248,3.6661,3.6644,3.6067,3.5745,3.5451,3.5186,3.3908,3.306,3.2605,3.1888,3.1359,3.1055,3.0918,0.0,3.1367,3.1367,3.1104,3.062,3.062,3.062,3.062,3.062,3.1223,3.1969,0.0,0.0,0.0,0.0,0.0,0.0,0.0,0.0,0.0,2.5703,2.5703,2.5703,0.0,0.0,0.0,0.0,0.0,0.0,0.0,0.0,0.0,0.0,0.0,0.0,0.0,0.0,0.0,0.0,0.0,0.0,0.0,0.0,0.0,0.0,0.0,0.0,0.0,0.0,0.0,0.0,0.0,0.0,0.0,0.0,0.0,0.0,0.0,0.0,0.0,0.0,2.8861,3.205,3.3609,3.4196,3.4381,3.4622,3.4697,3.4695,3.4775,3.5059,3.5249,3.4983,3.4812,3.4124,3.1717,3.0742,2.9935,2.8462,2.7631,2.7119,2.6991,2.8548,2.9791,2.9603,3.2357,3.4832,3.5792,3.6659,3.7557,3.8489,3.8131,3.818,3.9138,3.8599,3.8201,3.8201,3.7793,3.7212,3.6498,3.6652,3.6808,3.6808,3.7086,3.7076,3.6816,3.6702,3.6399,3.6015,3.5258,3.4394,3.3407,3.2967,3.2437,3.1903,3.1875,3.1984,3.2161,3.2144,3.1987,3.1721,3.1721,3.1721,3.1721,3.1721,3.2039,3.2484,0.0,0.0,0.0,0.0,0.0,0.0,0.0,2.5703,2.5703,2.5703,2.5703,2.5703,2.5703,2.5703,2.5683,0.0,0.0,0.0,0.0,0.0,0.0,0.0,0.0,0.0,0.0,0.0,0.0,2.4398,2.4676,0.0,0.0,0.0,0.0,0.0,2.486,0.0,0.0,0.0,0.0,0.0,0.0,0.0,0.0,0.0,0.0,0.0,0.0,0.0,0.0,0.0,2.7616,3.1994,3.337,3.3803,3.3877,3.4376,3.4513,3.4513,3.4515,3.48,3.5047,3.4743,3.4532,3.379,3.1458,3.0113,2.9107,2.8277,2.7326,2.6817,2.732,2.8509,2.9278,2.8802,3.1531,3.4099,3.5317,3.6663,3.8114,3.9708,3.9335,3.9536,4.0954,4.0161,3.9517,3.9517,3.8784,3.805,3.7365,3.7363,3.7332,3.7332,3.746,3.7471,3.7351,3.7454,3.7204,3.6583,3.6396,3.5559,3.4091,3.3931,3.3383,3.2511,3.2506,3.2574,3.2649,3.2661,3.2639,3.2651,3.2642,3.266,3.2669,3.2657,3.2734,3.2849,0.0,0.0,0.0,0.0,0.0,0.0,0.0,2.5703,2.5703,2.5703,2.5703,2.5703,2.5703,2.5703,2.5703,0.0,0.0,0.0,0.0,0.0,0.0,0.0,0.0,0.0,0.0,0.0,0.0,2.474,2.4784,0.0,0.0,0.0,0.0,0.0,0.0,2.5136,2.5104,0.0,0.0,0.0,0.0,0.0,0.0,0.0,0.0,0.0,0.0,0.0,0.0,0.0,0.0,2.6081,3.1968,3.3794,3.3809,3.3863,3.3876,3.3894,3.3878,3.3902,3.3962,3.3902,3.4144,3.399,3.2413,3.1218,2.9755,2.729,2.6838,2.7046,2.7659,2.7298,2.7725,3.007,3.1129,3.2557,3.5164,3.7267,3.8889,3.979,4.0455,4.0928,4.1084,4.0987,4.0928,4.0922,4.0154,3.9171,3.7905,3.7845,3.7826,3.7826,3.831,3.8319,3.7863,3.8315,3.8511,3.8438,3.7716,3.6698,3.5393,3.4666,3.3665,3.2519,3.2484,3.2737,0.0,3.3158,3.3137,3.3158,3.3128,3.3132,3.3118,3.3125,3.3531,3.4043,0.0,0.0,0.0,0.0,0.0,0.0,0.0,2.7266,2.707,2.6543,2.6484,2.6289,2.5762,2.5703,2.5683,0.0,0.0,0.0,0.0,0.0,0.0,0.0,0.0,0.0,0.0,0.0,2.5304,2.5229,2.5229,0.0,0.0,0.0,0.0,0.0,0.0,2.5324,2.5338,0.0,0.0,0.0,0.0,0.0,0.0,0.0,0.0,0.0,0.0,0.0,2.2545,0.0,0.0,0.0,2.7494,2.8209,0.0,0.0,3.0766,3.379,3.3795,3.3788,3.3788,3.3788,3.3913,3.3901,3.3301,3.1983,3.0443,2.8911,2.8502,2.837,2.8241,2.7746,2.7688,2.8785,0.0,0.0,3.3524,3.6618,3.8988,3.9786,4.1052,4.2018,4.2485,4.2106,4.1508,4.0688,4.0333,3.9795,3.8975,3.8719,3.8634,3.8634,3.8817,3.8762,3.8401,3.8585,3.8707,3.8707,3.853,3.7937,3.6955,3.6325,3.5404,3.4284,3.3742,3.3535,0.0,3.3571,3.3673,3.3806,3.3808,3.3942,3.4105,3.4097,3.4255,3.4506,0.0,0.0,0.0,0.0,0.0,0.0,2.834,2.8301,2.8086,2.7461,2.7383,2.7051,2.6172,2.6074,2.5956,2.5654,0.0,0.0,0.0,0.0,0.0,0.0,0.0,0.0,0.0,0.0,0.0,2.5499,2.5499,2.5492,0.0,0.0,2.5492,2.5492,0.0,0.0,0.0,0.0,0.0,0.0,0.0,0.0,0.0,0.0,0.0,0.0,0.0,0.0,0.0,0.0,0.0,0.0,0.0,0.0,0.0,0.0,2.8772,3.3802,3.3792,3.3805,3.3807,3.3817,3.3802,3.3537,3.2608,3.1869,3.1111,3.0051,2.9767,2.9476,2.8772,2.839,2.8155,0.0,0.0,3.0512,3.2027,3.5143,3.8005,4.0011,4.1681,4.2939,4.3619,4.3264,4.2473,4.1265,4.0982,4.0624,4.0133,3.9669,3.9354,3.9261,3.9235,3.9173,3.8977,3.8977,3.8977,3.8977,3.9173,3.8836,3.8037,3.766,3.6813,3.5577,3.4962,3.4457,0.0,3.4072,3.4191,3.4355,3.4357,3.4486,3.4695,3.4705,3.4757,3.4833,0.0,0.0,0.0,0.0,0.0,0.0,0.0,2.8301,2.8301,2.8281,2.8281,2.7949,2.707,2.6992,2.6641,2.5762,0.0,0.0,0.0,0.0,0.0,0.0,0.0,0.0,0.0,0.0,0.0,2.5508,2.5508,2.5497,2.5493,2.5493,2.5493,2.5493,0.0,0.0,0.0,0.0,0.0,0.0,0.0,0.0,0.0,0.0,0.0,0.0,0.0,0.0,0.0,0.0,0.0,0.0,0.0,0.0,0.0,0.0,2.8767,3.3804,3.3809,3.3792,3.3798,3.3799,3.3788,3.2957,2.9766,3.064,3.1629,3.003,3.0067,3.0091,2.9166,2.8978,2.8976,2.8986,0.0,0.0,3.0954,3.2804,3.5668,4.0518,4.2516,4.369,4.4148,4.4428,4.4195,4.334,4.2527,4.1844,4.1309,4.0527,3.9954,3.9611,3.9595,3.959,3.959,3.959,3.959,3.959,3.959,3.917,3.8393,3.8373,3.7482,3.5907,3.5904,3.543,0.0,3.4686,3.4686,3.4707,3.4691,3.4697,3.4697,3.4697,3.4854,3.5115,0.0,0.0,0.0,0.0,0.0,0.0,0.0,3.0078,2.9863,2.9277,2.9199,2.8867,2.7988,2.7891,2.7539,2.666,0.0,0.0,0.0,0.0,0.0,0.0,0.0,0.0,0.0,0.0,0.0,0.0,0.0,2.5508,2.5493,2.5493,2.5493,2.5508,2.5453,2.5104,0.0,0.0,0.0,0.0,0.0,0.0,0.0,0.0,0.0,0.0,0.0,0.0,0.0,0.0,0.0,0.0,0.0,0.0,0.0,0.0,0.0,0.0,2.9931,3.2127,3.3802,3.3799,3.5477,3.588,3.1054,3.0487,3.0787,3.0289,3.0285,3.0304,3.0,2.9683,2.9769,3.0637,3.0992,0.0,3.2616,3.5643,3.8323,3.9887,4.2546,4.4326,4.4473,4.4553,4.4325,4.3675,4.2844,4.2159,4.1662,4.0835,4.0239,3.9935,3.9929,3.983,3.96,3.96,3.96,3.96,3.983,3.9814,3.955,3.9189,3.8308,3.7045,3.6434,3.5606,3.4715,3.4715,3.481,3.4978,3.497,3.5089,3.5243,3.5243,3.5307,3.5369,0.0,0.0,0.0,0.0,0.0,0.0,0.0,3.0898,3.0703,3.0156,3.0098,2.9766,2.8887,2.8768,2.8394,2.7535,0.0,0.0,0.0,0.0,0.0,0.0,0.0,0.0,0.0,0.0,0.0,0.0,0.0,0.0,0.0,0.0,2.5266,2.4982,2.4931,2.4637,0.0,0.0,0.0,0.0,0.0,0.0,2.1259,0.0,0.0,0.0,0.0,0.0,0.0,0.0,0.0,0.0,0.0,0.0,0.0,0.0,2.4283,2.5129,0.0,2.9621,3.1477,3.2091,3.3919,3.4661,3.1184,3.0395,3.04,3.0405,3.0401,3.0412,3.0412,3.0691,3.1169,3.1949,3.3245,3.4588,3.5886,3.8312,4.0423,4.1709,4.3705,4.4977,4.4968,4.4989,4.4855,4.4489,4.3374,4.2585,4.2316,4.1143,4.0412,4.0258,4.0258,4.0162,3.9935,3.9935,3.9935,3.9935,4.0162,4.0258,4.0239,3.9896,3.9208,3.8235,3.7368,3.6439,0.0,3.5205,3.5185,3.532,3.532,3.5397,3.5545,3.5545,3.5545,3.5545,0.0,0.0,0.0,0.0,0.0,0.0,0.0,0.0,0.0,0.0,3.0878,3.0566,2.9765,2.9615,2.9224,0.0,0.0,0.0,0.0,0.0,0.0,0.0,0.0,0.0,0.0,0.0,0.0,2.5379,2.5391,2.5354,2.5303,0.0,0.0,0.0,2.4082,0.0,0.0,0.0,0.0,0.0,0.0,0.0,0.0,0.0,0.0,0.0,0.0,0.0,0.0,0.0,0.0,0.0,0.0,0.0,0.0,0.0,0.0,0.0,0.0,2.6797,2.7738,2.9246,3.0015,3.0415,3.0405,3.0404,0.0,3.0398,3.0398,3.0398,3.0398,3.1768,3.2916,3.2949,3.4398,3.6639,3.9856,4.053,4.187,4.5044,4.5533,4.5558,4.5423,4.5524,4.5586,4.5586,4.4045,4.3102,4.3102,4.1459,4.0515,4.0515,4.0515,4.0515,4.05,4.0519,4.0519,4.0515,4.0534,4.0534,4.0515,4.0515,4.0115,0.0,3.8491,3.7688,3.6922,3.6048,3.5701,3.5701,3.5701,3.565,3.5612,3.5617,3.5622,3.5603,0.0,0.0,0.0,0.0,0.0,0.0,0.0,0.0,0.0,0.0,3.0672,3.0594,3.0399,3.0346,2.9985,0.0,0.0,0.0,0.0,0.0,0.0,0.0,0.0,0.0,0.0,0.0,0.0,2.5312,2.5312,2.5313,2.5303,2.5303,0.0,0.0,0.0,0.0,0.0,0.0,0.0,0.0,0.0,0.0,0.0,0.0,0.0,0.0,2.2234,2.2753,0.0,0.0,0.0,0.0,0.0,0.0,0.0,0.0,2.4728,2.5854,2.6789,0.0,2.8166,2.8547,2.9521,3.039,0.0,0.0,0.0,0.0,3.0398,3.0398,3.0398,3.1768,3.3051,3.3513,3.4661,3.6221,3.8291,4.0831,4.2775,4.358,4.4831,4.5103,4.3814,4.4853,4.5586,4.5586,4.4094,4.3181,4.3181,4.1621,4.0733,4.0733,4.0733,4.0703,4.0645,4.0648,4.0684,4.0733,4.0729,4.0729,4.0733,4.0733,4.0306,3.949,3.8619,3.7783,3.6925,3.6063,3.5692,3.5692,3.5692,3.5692,3.5674,3.5673,3.568,3.5682,0.0,0.0,0.0,0.0,0.0,0.0,0.0,0.0,0.0,0.0,0.0,0.0,0.0,0.0,0.0,0.0,0.0,0.0,0.0,0.0,0.0,0.0,0.0,0.0,0.0,0.0,0.0,0.0,0.0,2.5303,0.0,0.0,0.0,0.0,0.0,0.0,0.0,0.0,0.0,0.0,2.3148,0.0,0.0,0.0,0.0,0.0,2.278,2.3273,0.0,2.3915,2.4143,2.4478,0.0,0.0,0.0,0.0,2.5262,2.6425,2.7218,2.796,2.8644,2.9148,2.9845,3.0394,3.0405,0.0,0.0,0.0,3.0398,3.0513,3.0929,3.2717,3.4105,3.4044,3.6199,3.8208,3.9116,4.0868,4.2331,4.3057,4.3964,4.4465,4.4345,4.5171,4.5703,4.5731,4.423,4.3285,4.3285,4.1712,4.0801,4.0801,4.0801,4.0777,4.0752,4.0752,4.0752,4.0801,4.0799,4.0799,4.0801,4.0801,4.0602,4.0182,3.9322,3.8471,3.7676,3.6797,3.6191,3.584,3.584,3.582,3.5799,3.5786,3.5749,3.5692,0.0,0.0,0.0,0.0,0.0,0.0,0.0,0.0,0.0,0.0,0.0,0.0,0.0,0.0,0.0,0.0,0.0,0.0,0.0,0.0,0.0,0.0,0.0,0.0,0.0,0.0,0.0,0.0,0.0,0.0,0.0,0.0,2.3542,0.0,0.0,0.0,0.0,0.0,2.3975,2.4014,2.3148,0.0,0.0,0.0,0.0,0.0,0.0,0.0,0.0,2.3704,2.4095,2.4575,2.4543,0.0,0.0,0.0,0.0,0.0,2.7651,2.8599,2.9589,3.0239,3.0398,3.0398,3.0398,0.0,0.0,0.0,0.0,3.0733,3.173,3.3742,3.5077,3.4603,3.8006,4.0807,4.1075,4.1374,4.1995,4.3109,4.3465,4.4085,4.5311,4.566,4.5797,4.5715,4.43,4.3374,4.3238,4.1714,4.0864,4.0864,4.0864,4.0864,4.0864,4.085,4.085,4.0864,4.0864,4.0864,4.0864,4.0864,4.0928,4.0983,0.0,0.0,3.8535,3.7656,3.6797,3.5996,3.5996,3.5976,3.5918,3.5918,3.5843,3.5736,0.0,0.0,0.0,0.0,0.0,0.0,0.0,0.0,0.0,0.0,0.0,0.0,0.0,0.0,0.0,0.0,0.0,0.0,0.0,0.0,0.0,0.0,0.0,0.0,0.0,0.0,0.0,0.0,0.0,0.0,2.5046,2.4889,2.429,2.3341,0.0,2.3017,2.3424,2.3122,2.3437,2.4014,2.3148,0.0,0.0,0.0,0.0,0.0,0.0,0.0,0.0,2.4652,2.4737,2.4911,2.4785,0.0,0.0,0.0,0.0,0.0,2.8406,3.04,3.1962,3.0706,3.0398,3.0398,3.0398,0.0,0.0,0.0,0.0,0.0,3.2667,3.329,3.4017,3.5346,3.849,4.1302,4.2769,4.4217,4.4684,4.3508,4.4608,4.5035,4.3878,4.5045,4.5609,4.4937,4.4066,4.3241,4.2515,4.1624,4.1149,4.1149,4.1149,4.1149,4.1149,4.1026,4.1026,4.1149,4.1149,4.1149,4.1149,4.1149,4.115,4.1112,0.0,3.9394,3.8535,3.7656,3.6797,3.5996,3.5996,3.5996,3.5976,3.5976,3.5976,3.5927,0.0,0.0,0.0,0.0,0.0,0.0,0.0,0.0,0.0,0.0,0.0,0.0,0.0,0.0,0.0,0.0,0.0,0.0,0.0,0.0,0.0,0.0,0.0,0.0,0.0,0.0,0.0,0.0,0.0,2.5253,2.5163,2.4618,2.3881,2.3011,0.0,2.3304,2.3304,2.3909,2.412,2.4072,0.0,0.0,0.0,0.0,0.0,0.0,0.0,0.0,0.0,0.0,2.503,2.4998,2.493,0.0,0.0,0.0,0.0,0.0,2.8708,3.026,3.163,3.1825,3.254,3.3216,3.3216,0.0,0.0,0.0,0.0,0.0,3.4276,3.5407,3.7225,4.0788,4.1163,4.1597,4.3278,4.3422,4.3407,4.3493,4.4189,4.4715,4.4857,4.5553,4.5688,4.4922,4.4103,4.3271,4.2392,4.1619,4.1191,4.1191,4.1191,4.1191,4.1191,4.1149,4.1149,4.1191,4.1191,4.1191,4.1191,4.1191,4.1191,4.1172,0.0,4.0117,3.9238,3.8359,3.748,3.666,3.6172,3.5974,3.5923,3.5817,3.5781,3.5776,0.0,0.0,0.0,0.0,0.0,0.0,0.0,0.0,0.0,0.0,0.0,0.0,0.0,0.0,0.0,0.0,0.0,0.0,0.0,0.0,0.0,0.0,0.0,0.0,0.0,0.0,2.6909,2.6909,2.6236,2.5773,2.5512,2.4545,2.3744,0.0,0.0,2.3697,2.3447,2.4351,2.4485,2.411,0.0,0.0,0.0,0.0,0.0,0.0,0.0,0.0,0.0,0.0,0.0,0.0,0.0,0.0,0.0,2.632,2.7158,2.7946,2.9115,3.026,3.1452,3.2787,0.0,3.4641,3.5474,3.541,0.0,0.0,0.0,3.4316,3.5866,3.7624,4.016,4.4293,4.3178,4.2362,4.4003,4.3178,4.285,4.4097,4.4231,4.4738,4.603,4.6147,4.5827,4.5058,4.4199,4.3301,4.242,4.1599,4.1149,4.1105,4.1105,4.1105,4.1105,4.1105,4.1149,4.1191,4.1191,4.1191,4.1191,4.1171,4.115,4.115,4.1126,4.0615,3.9756,3.8897,3.8018,3.714,3.6262,3.5896,3.5836,3.5682,3.5629,3.5623,0.0,0.0,0.0,0.0,0.0,0.0,0.0,0.0,0.0,0.0,0.0,0.0,0.0,0.0,0.0,0.0,0.0,0.0,0.0,0.0,0.0,0.0,0.0,0.0,0.0,2.7832,2.7813,2.7813,2.7736,2.719,2.6206,2.5335,2.4877,2.4801,0.0,2.4466,2.5034,2.3581,2.3417,2.411,2.411,0.0,0.0,0.0,0.0,0.0,0.0,0.0,0.0,0.0,0.0,0.0,0.0,0.0,2.5609,2.7302,2.7875,2.8341,2.9967,3.167,3.3031,3.3167,3.2065,0.0,3.5042,3.4536,0.0,3.5396,3.5715,3.6016,3.701,3.8613,4.0176,4.1367,4.2656,4.4121,4.5859,4.6015,4.5976,4.6094,4.6113,4.6152,4.6269,4.6289,4.5937,4.5058,4.4199,4.3298,4.2354,4.1491,4.0959,4.0824,4.0824,4.0824,4.0824,4.0824,4.0955,4.1191,4.1191,4.1191,4.1191,4.1077,4.1,4.1019,4.0877,4.0369,3.9544,3.8675,3.7819,3.6936,3.6054,3.5723,3.571,3.5703,3.5689,3.5675,0.0,0.0,0.0,0.0,0.0,0.0,0.0,0.0,0.0,0.0,0.0,0.0,0.0,0.0,0.0,0.0,0.0,0.0,0.0,0.0,0.0,0.0,0.0,2.9498,2.903,2.8498,2.8213,2.8213,2.7704,2.7258,2.6828,2.601,0.0,0.0,0.0,2.4628,2.4543,2.4409,2.4255,2.4149,2.4639,2.4851,0.0,0.0,0.0,0.0,0.0,0.0,0.0,0.0,2.5303,2.5303,0.0,0.0,2.563,2.739,2.7952,2.8377,3.0034,3.1851,3.3262,3.3262,3.2798,0.0,0.0,3.698,3.6433,3.6031,3.6813,3.7693,3.8047,4.1269,4.3633,4.2871,4.4199,4.5547,4.6211,4.6308,4.6308,4.6308,4.6308,4.6308,4.6308,4.6225,4.5805,4.4943,4.404,4.3128,4.2214,4.1357,4.0857,4.0801,4.0801,4.0801,4.0801,4.0801,4.0857,4.0955,4.0955,4.0955,4.0955,4.0908,4.087,4.087,4.0816,4.0618,4.0287,3.9451,3.8595,3.7661,3.6218,3.5648,3.5639,3.559,3.5577,3.5566,0.0,0.0,0.0,0.0,0.0,0.0,0.0,0.0,0.0,0.0,0.0,0.0,0.0,0.0,0.0,0.0,0.0,0.0,0.0,0.0,0.0,0.0,0.0,2.9533,2.9607,2.8933,2.8651,2.881,2.7983,2.757,2.7552,0.0,0.0,0.0,0.0,2.4867,2.4505,2.4793,2.4755,2.4524,2.5082,2.5303,0.0,0.0,0.0,0.0,0.0,0.0,0.0,0.0,2.5303,2.5303,0.0,0.0,0.0,0.0,2.857,2.9609,3.1002,3.2337,3.3465,3.4012,0.0,0.0,3.768,3.8101,3.7754,3.7656,3.8594,3.9414,3.9414,4.2734,4.5098,4.3887,4.5135,4.6246,4.6246,4.62,4.6173,4.6173,4.6173,4.6173,4.6173,4.6084,4.5786,4.5195,4.4051,4.3119,4.2471,4.1383,4.0743,4.0703,4.0703,4.0703,4.0703,4.0703,4.0703,4.0703,4.0703,4.0752,4.0801,4.0779,4.0761,4.0761,4.0723,4.0703,4.0645,3.9849,3.8821,3.7676,3.643,3.5786,3.5562,3.5422,3.5369,3.5369,0.0,0.0,0.0,0.0,0.0,0.0,0.0,0.0,0.0,0.0,0.0,0.0,0.0,0.0,0.0,0.0,0.0,0.0,0.0,0.0,0.0,0.0,0.0,2.9134,2.9392,2.9134,2.9228,2.9696,2.8848,2.8397,2.8395,2.7804,0.0,0.0,0.0,2.5303,2.5245,2.4447,2.4562,2.5303,2.5303,2.5303,2.5303,0.0,0.0,0.0,0.0,0.0,0.0,0.0,2.5303,2.5313,0.0,0.0,0.0,0.0,2.9941,3.2246,3.306,3.3353,3.3848,3.5547,3.4707,3.4355,3.7812,3.7266,3.7012,4.0488,4.1191,4.1191,4.1211,4.2598,4.3711,4.3691,4.5043,4.6108,4.6108,4.5988,4.5899,4.5899,4.5899,4.5899,4.5899,4.5899,4.5899,4.5899,4.4362,4.3355,4.3214,4.1613,4.0649,4.0504,4.0489,4.0489,4.0489,4.0489,4.0489,4.0489,4.0489,4.0591,4.0793,4.0721,4.0692,4.0692,4.0559,4.0489,4.0431,3.9623,3.8277,3.6719,3.6719,3.6219,3.5479,3.5207,3.5105,3.507,0.0,0.0,0.0,0.0,0.0,0.0,0.0,0.0,0.0,0.0,0.0,0.0,0.0,0.0,0.0,0.0,0.0,0.0,0.0,0.0,0.0,0.0,0.0,0.0,0.0,0.0,2.9067,2.9206,2.8947,2.8922,0.0,0.0,0.0,2.7069,0.0,2.5738,2.5284,2.5063,2.5082,2.5303,2.5303,2.5303,2.5303,0.0,0.0,0.0,0.0,0.0,0.0,0.0,0.0,0.0,0.0,0.0,0.0,2.8559,2.96,3.0448,3.1243,3.3314,3.5059,3.4355,3.5625,3.7324,3.8359,3.8203,0.0,0.0,4.1517,4.1244,4.1852,4.3773,4.4851,4.3682,4.4871,4.5967,4.5967,4.5924,4.5899,4.5899,4.5899,4.5899,4.5899,4.5861,4.5832,4.5832,4.4711,4.3762,4.3162,4.2082,4.1166,4.0523,4.0489,4.0489,4.0489,4.0489,4.0489,4.0489,4.0489,4.0545,4.0584,4.0568,4.0559,4.0559,4.0519,4.0489,4.0431,3.9623,3.8988,3.8411,3.718,3.6565,3.6262,3.5609,3.5254,3.5088,0.0,0.0,0.0,0.0,0.0,0.0,0.0,0.0,0.0,0.0,0.0,0.0,0.0,0.0,0.0,0.0,0.0,0.0,0.0,0.0,0.0,0.0,0.0,0.0,0.0,2.8994,2.8851,0.0,0.0,0.0,0.0,0.0,0.0,2.7827,0.0,2.5964,2.5133,2.4553,2.4312,2.4351,2.4678,2.4812,2.487,0.0,0.0,0.0,0.0,0.0,0.0,0.0,0.0,0.0,0.0,0.0,0.0,2.9862,3.0752,3.1457,3.3332,3.49,3.6074,3.6426,3.7559,3.8769,3.9409,3.9545,4.0091,4.1964,4.2147,4.2214,4.3091,4.4694,4.5568,4.4567,4.5211,4.5861,4.5861,4.5817,4.5769,4.5769,4.5769,4.5769,4.5769,4.5736,4.5723,4.5723,4.4842,4.3951,4.3143,4.2277,4.1393,4.0527,4.0489,4.0489,4.0489,4.0489,4.0489,4.0489,4.0489,4.0489,4.0489,4.0489,4.0489,4.0489,4.0389,4.0389,4.045,3.9854,3.9418,3.8997,3.7926,3.7053,3.632,3.5719,3.5192,3.4735,0.0,0.0,0.0,0.0,0.0,0.0,0.0,0.0,0.0,0.0,0.0,0.0,0.0,0.0,0.0,0.0,0.0,0.0,0.0,0.0,0.0,0.0,0.0,0.0,0.0,0.0,0.0,0.0,0.0,0.0,0.0,0.0,2.8643,2.8388,0.0,2.5953,2.4879,2.3399,2.2784,2.2842,2.3658,2.3975,2.4072,2.4793,0.0,0.0,0.0,0.0,0.0,0.0,0.0,0.0,2.6636,2.7573,2.881,3.1272,3.2652,3.4082,3.7266,3.7207,3.6992,4.0156,3.9862,3.9175,4.0649,4.0983,4.1232,4.2193,4.2916,4.3664,4.4608,4.5385,4.5872,4.5872,4.5813,4.5769,4.5769,4.568,4.5586,4.5586,4.5586,4.5586,4.5586,4.5586,4.5586,4.5586,4.4874,4.4066,4.3258,4.2393,4.1527,4.0642,4.0527,4.0489,4.0489,4.0473,4.0473,4.0489,4.0473,4.0473,4.0489,4.0489,4.0489,4.0489,4.0213,4.0232,4.0457,4.0177,3.9604,3.8861,3.8785,3.7677,3.6085,3.5759,3.5136,3.4394,0.0,0.0,0.0,0.0,0.0,0.0,0.0,0.0,0.0,0.0,0.0,0.0,0.0,0.0,0.0,0.0,0.0,0.0,0.0,0.0,0.0,0.0,0.0,0.0,0.0,0.0,0.0,0.0,0.0,0.0,0.0,0.0,0.0,2.8646,0.0,2.5646,2.4747,2.3271,2.264,2.267,2.2958,2.309,2.3101,2.3274,2.3755,0.0,0.0,0.0,0.0,0.0,0.0,0.0,2.7592,2.8543,2.953,3.078,3.2226,3.3555,3.4316,3.623,3.8202,3.8849,3.9667,4.0422,4.076,4.0807,4.1209,4.2841,4.3209,4.3734,4.5285,4.5626,4.5658,4.5658,4.5665,4.5651,4.5651,4.562,4.5586,4.5586,4.5586,4.5586,4.5586,4.5586,4.5586,4.5586,4.5432,4.4951,4.4085,4.3278,4.2412,4.1546,4.0854,4.0489,4.0489,4.0304,4.0285,4.0489,4.0286,4.0304,4.0489,4.0489,4.0489,4.0489,4.0213,4.0139,4.0158,3.984,3.9596,3.9369,3.8666,3.815,3.7687,3.7017,3.6494,3.6143,0.0,0.0,0.0,0.0,0.0,0.0,0.0,0.0,0.0,0.0,0.0,0.0,0.0,0.0,0.0,0.0,0.0,0.0,0.0,0.0,0.0,0.0,0.0,0.0,0.0,0.0,0.0,0.0,0.0,0.0,0.0,0.0,0.0,2.8978,0.0,2.522,2.4591,2.2825,2.1857,2.1541,2.1978,2.2177,2.2216,2.2639,2.309,2.3533,2.3956,0.0,0.0,0.0,0.0,0.0,0.0,0.0,2.9922,3.1601,3.2148,3.2734,3.5215,3.6601,3.7713,3.927,4.0208,4.0752,4.0752,4.0684,4.1106,4.2879,4.3195,4.3665,4.5399,4.5651,4.5586,4.5586,4.5586,4.5586,4.5586,4.5586,4.5586,4.5586,4.5586,4.555,4.5381,4.5362,4.5283,4.514,4.5263,4.4919,4.3878,4.3731,4.3015,4.1607,4.127,4.0912,4.0489,4.0356,4.0304,4.0321,4.0158,4.0081,4.0082,4.037,4.0336,4.0063,3.9924,3.9859,3.9819,3.9505,3.9364,3.9327,3.8871,3.8378,3.7869,3.7459,3.6957,3.6527,0.0,0.0,0.0,0.0,0.0,0.0,0.0,0.0,0.0,0.0,0.0,0.0,0.0,0.0,0.0,0.0,0.0,0.0,0.0,0.0,0.0,0.0,0.0,0.0,0.0,0.0,0.0,0.0,0.0,2.6284,2.8188,2.6816,0.0,2.91,0.0,2.4845,2.4509,2.238,2.1086,2.051,2.1073,2.1293,2.137,2.2081,2.2447,2.2658,2.3398,2.3975,2.462,2.6081,0.0,0.0,0.0,0.0,3.0234,3.2344,3.2187,3.2266,3.6523,3.7046,3.7112,4.0174,4.0809,4.0674,4.0674,4.0588,4.095,4.2547,4.3008,4.3605,4.5278,4.5586,4.5586,4.5586,4.5586,4.5586,4.5513,4.5513,4.5495,4.5438,4.5438,4.5322,4.5052,4.5011,4.4896,4.4606,4.4872,4.4592,4.358,4.3916,4.3312,4.1506,4.1552,4.1219,4.0353,4.0353,4.023,4.0002,4.0002,3.984,3.9534,4.0082,4.0063,3.9599,3.9552,3.951,3.9505,3.9152,3.9036,3.9036,3.9036,3.8487,3.7698,3.7698,3.7276,3.6707,0.0,0.0,0.0,0.0,0.0,0.0,0.0,0.0,0.0,0.0,0.0,0.0,0.0,0.0,0.0,0.0,0.0,0.0,0.0,0.0,0.0,0.0,0.0,0.0,0.0,0.0,0.0,0.0,0.0,2.5482,2.7083,2.6205,2.6778,2.842,2.5937,2.4818,2.462,2.2323,2.1253,2.1129,2.0655,2.0465,2.0465,2.06,2.1081,2.1696,2.1812,2.3308,2.5273,2.5581,2.7218,0.0,0.0,0.0,3.0781,3.1133,3.2109,3.3203,3.3836,3.5917,3.8365,4.0266,4.063,4.0534,4.0534,4.0519,4.0777,4.1777,4.2566,4.3605,4.5278,4.5586,4.5586,4.5586,4.5586,4.5495,4.5201,4.518,4.5074,4.4757,4.4732,4.4726,4.4657,4.4676,4.465,4.4606,4.4631,4.4594,4.4429,4.3806,4.2999,4.2006,4.1293,4.0522,3.9712,3.9735,3.9712,3.9668,3.9668,3.9486,3.916,3.9557,3.969,3.9576,3.9289,3.9178,3.9152,3.8873,3.8762,3.8762,3.8762,3.8676,3.8542,3.8542,3.8469,3.8377,0.0,0.0,0.0,0.0,0.0,0.0,0.0,0.0,0.0,0.0,0.0,0.0,0.0,0.0,0.0,0.0,0.0,0.0,0.0,0.0,0.0,0.0,2.6686,0.0,0.0,0.0,0.0,0.0,2.463,2.5381,2.7054,2.6359,2.7145,2.9017,2.6683,2.5625,0.0,2.3643,2.2317,2.1396,2.1095,2.1831,2.2899,2.1023,2.1985,2.4178,2.2735,2.33,2.4878,2.5892,2.7039,2.8225,2.9276,0.0,0.0,0.0,3.1364,3.2402,3.4254,3.6443,3.8604,4.0277,4.0596,4.0489,4.0489,4.0489,4.0739,4.1623,4.2489,4.3451,4.4643,4.5259,4.555,4.5342,4.5322,4.5201,4.4872,4.4825,4.4776,4.4606,4.458,4.4501,4.4308,4.4261,4.4194,4.4023,4.4165,4.4194,4.3974,4.4008,4.3551,4.2529,4.187,4.1122,4.0273,3.9825,3.9505,3.9314,3.9163,3.9008,3.8884,3.9036,3.9119,3.9119,3.909,3.9008,3.8855,3.8732,3.8707,3.8707,3.8707,3.8707,3.8707,3.8707,3.8707,3.8707,0.0,0.0,0.0,0.0,0.0,0.0,0.0,0.0,0.0,0.0,0.0,0.0,0.0,0.0,0.0,0.0,0.0,0.0,0.0,0.0,0.0,2.6282,2.5713,2.5403,2.5403,0.0,0.0,0.0,2.4495,2.5464,2.7297,2.6833,2.7799,2.9785,2.742,2.623,2.5893,2.4629,2.336,2.2197,2.262,2.3928,2.5418,2.3572,2.4832,2.7236,2.4678,2.4513,2.5596,2.6242,2.6809,2.7491,2.8847,2.9277,0.0,0.0,0.0,3.1177,3.4306,3.5993,3.7348,3.9482,3.9951,3.9969,4.0392,4.0489,4.0681,4.1335,4.2162,4.2992,4.3728,4.4747,4.54,4.514,4.503,4.4849,4.4501,4.4447,4.4419,4.4337,4.4308,4.4194,4.3912,4.3881,4.3772,4.3513,4.3726,4.3772,4.3513,4.4004,4.381,4.2718,4.2343,4.1638,4.0589,3.9764,3.9282,3.9099,3.8815,3.8707,3.8707,3.8707,3.8707,3.8689,3.8923,3.8865,3.8707,3.8707,3.8707,3.8707,3.8707,3.8707,3.8707,3.8707,3.8707,3.8676,0.0,0.0,0.0,0.0,0.0,0.0,0.0,0.0,0.0,0.0,0.0,0.0,0.0,0.0,2.5915,2.4392,0.0,0.0,0.0,0.0,0.0,2.5439,2.5421,0.0,2.5403,0.0,0.0,2.4495,2.4495,2.5562,2.7586,2.7548,2.8556,3.0239,2.7715,2.613,2.5293,2.4447,2.4052,2.411,2.5697,2.6409,2.6774,2.9025,3.0013,2.986,2.7313,2.755,2.8688,2.6354,2.6752,2.8242,2.834,2.8379,2.8379,0.0,0.0,0.0,3.2462,3.3156,3.3962,3.731,3.8137,3.8546,4.0142,4.0489,4.0508,4.0546,4.1258,4.2019,4.2507,4.3993,4.5118,4.5096,4.4849,4.4501,4.4106,4.4028,4.3893,4.3597,4.3548,4.3548,4.3513,4.3513,4.3513,4.3497,4.3513,4.3513,4.3497,4.3548,4.318,4.2356,4.2316,4.1544,3.9963,3.9154,3.8873,3.9099,3.8815,3.8707,3.8707,3.8707,3.8707,3.8707,3.8719,3.8719,3.8707,3.8707,3.8707,3.8707,3.8707,3.8707,3.8707,3.8707,3.8707,3.8627,0.0,0.0,0.0,0.0,0.0,0.0,0.0,0.0,0.0,0.0,0.0,0.0,0.0,2.5823,2.5383,2.43,2.419,0.0,0.0,0.0,0.0,2.4612,2.463,2.463,2.463,2.463,2.4653,2.4685,2.4685,2.5754,2.7785,2.7217,2.7884,2.9506,2.8063,2.7255,2.6871,2.5466,2.4562,2.4302,2.6524,2.8409,2.9794,2.9063,3.116,3.391,2.9717,2.8627,2.905,2.8223,2.7307,2.6613,2.7264,2.7461,2.7695,2.8809,2.9172,2.9811,3.2415,3.3015,3.3468,3.5815,3.7199,3.8161,3.8757,3.9719,4.0489,4.0489,4.1008,4.1686,4.237,4.3454,4.4296,4.4388,4.429,4.4076,4.3726,4.3679,4.3612,4.3513,4.3497,4.3497,4.3497,4.3497,4.3497,4.3497,4.3497,4.3497,4.3497,4.3497,4.3369,4.3075,4.2561,4.1534,3.9918,3.9093,3.8732,3.8844,3.875,3.8707,3.8707,3.8707,3.8707,3.8707,3.8707,3.8707,3.8707,3.8707,3.8707,3.8707,3.8707,3.8707,3.8707,3.8707,3.8707,3.8658,0.0,0.0,0.0,0.0,0.0,0.0,0.0,0.0,0.0,0.0,0.0,0.0,0.0,0.0,2.5364,2.4281,2.419,2.419,2.419,2.419,2.419,2.419,2.419,2.419,2.419,0.0,0.0,0.0,0.0,2.5915,2.7448,2.6809,2.7289,2.8659,2.7832,2.7467,2.739,2.6236,2.5255,2.4793,2.8198,3.0083,3.0852,3.116,3.3006,3.5039,3.1973,3.0714,3.0481,3.0619,2.9526,2.8115,2.7928,2.7266,2.6836,2.8279,2.8778,2.9246,3.0974,3.1767,3.2432,3.3866,3.5257,3.6584,3.7738,3.8854,3.9815,4.0373,4.0725,4.111,4.1803,4.2549,4.3278,4.389,4.3912,4.374,4.3548,4.3497,4.3497,4.3497,4.3497,4.3497,4.3497,4.3497,4.3497,4.3497,4.3497,0.0,4.3497,4.3497,4.3497,4.3497,4.2708,4.1662,4.0322,3.9496,3.8964,3.8707,3.8707,3.8707,3.8707,3.8707,3.8707,3.8707,3.8707,3.8707,3.8707,3.8707,3.8707,3.8707,3.8707,3.8707,3.8676,3.8496,3.8433,3.8382,0.0,0.0,0.0,0.0,0.0,0.0,0.0,0.0,0.0,0.0,0.0,0.0,0.0,0.0,0.0,2.4373,2.4245,2.4226,2.419,2.419,2.419,2.419,0.0,0.0,0.0,0.0,0.0,0.0,0.0,0.0,0.0,0.0,2.6852,2.7852,2.6986,2.6601,2.6601,2.6563,2.6082,2.5745,3.0852,3.141,2.9852,3.5757,3.5968,3.3256,3.4187,3.3965,3.327,3.3363,3.3314,3.2773,3.0273,2.7734,2.5859,2.6661,2.751,2.8135,0.0,0.0,0.0,3.1457,3.2295,3.3776,3.7084,3.793,3.845,4.0085,4.0229,4.0229,4.0717,4.1191,4.2087,4.3688,4.3707,4.3497,4.3497,4.3497,4.3497,4.3497,4.3497,4.3497,4.3497,4.3497,4.3497,4.3497,4.3497,4.3497,4.3497,4.3497,4.3497,4.3497,4.2708,4.1937,4.1148,4.0304,3.9515,3.8744,3.8707,3.8707,3.8707,3.8707,3.8707,3.8707,3.8707,3.8707,3.8707,3.8707,3.8707,3.8707,3.8707,3.8707,3.8627,3.8117,3.7893,3.7755,0.0,0.0,0.0,0.0,0.0,0.0,0.0,0.0,0.0,0.0,0.0,0.0,2.6631,2.6612,2.619,2.5164,2.5072,2.4814,2.4245,2.419,2.419,2.419,2.419,2.419,0.0,0.0,0.0,0.0,0.0,0.0,0.0,0.0,0.0,0.0,2.6986,2.6601,2.6563,2.5928,2.5514,2.5745,3.0852,3.2487,3.2295,3.643,3.8227,3.8431,3.747,3.586,3.4341,3.5615,3.277,2.8468,2.7187,2.6289,2.5879,2.6717,2.7116,2.7524,2.8747,0.0,0.0,0.0,0.0,0.0,3.4103,3.6219,3.8123,3.8604,3.9242,3.9955,4.0669,4.0552,4.0917,4.2521,4.3195,4.3497,4.3497,4.3497,4.3497,4.3497,4.3497,4.3497,4.3497,4.3497,4.3497,0.0,4.3497,4.3497,4.3497,4.3497,4.3497,4.3497,4.2708,4.2194,4.1974,4.0579,3.979,3.9551,3.8982,3.8707,3.8707,3.8707,3.8707,3.8707,3.8707,3.8707,3.8707,3.8707,3.8707,3.8707,3.8707,3.8707,3.8676,3.8546,3.8216,3.7859,0.0,0.0,0.0,0.0,0.0,0.0,0.0,0.0,0.0,0.0,0.0,0.0,2.7145,2.6796,2.6282,2.5476,2.5403,2.5072,2.4245,2.419,2.419,2.419,2.419,2.419,2.419,0.0,0.0,0.0,0.0,0.0,0.0,0.0,0.0,0.0,0.0,2.6063,2.6024,2.5514,2.5303,2.5745,3.0852,3.2256,3.1807,3.635,3.7846,3.7598,3.8136,3.7157,3.5958,3.8082,3.4716,2.9525,2.9062,2.7422,2.5801,2.6309,2.6697,2.7077,2.7691,2.8582,2.9357,2.9431,0.0,0.0,3.3673,3.5526,3.7353,3.8757,3.9451,3.9905,4.0241,4.0178,4.0327,4.1162,4.2249,4.3112,4.3442,4.3497,4.3497,4.3497,4.3497,4.3497,4.3497,4.3497,4.3497,4.3497,4.3497,4.3497,4.3497,4.3497,4.3497,4.3497,4.3039,4.2635,4.2304,4.1368,4.0726,4.0396,3.9588,3.9203,3.9184,3.8854,3.8707,3.8707,3.8707,3.8707,3.8707,3.8707,3.8707,3.8707,3.8707,3.8707,3.8658,3.8465,3.8183,3.7825,0.0,0.0,0.0,0.0,0.0,0.0,0.0,0.0,0.0,0.0,0.0,0.0,0.0,0.0,0.0,0.0,2.5586,2.5181,2.4392,2.4245,2.419,2.419,2.419,2.419,2.419,0.0,0.0,0.0,0.0,0.0,0.0,0.0,0.0,0.0,0.0,0.0,2.5303,2.5303,2.5457,2.614,3.0756,3.1383,3.0177,3.5996,3.6435,3.4408,3.7624,3.8166,3.7684,3.9765,3.7519,3.373,3.3164,3.0019,2.6445,2.5879,2.6445,2.705,2.6023,2.7457,2.9032,2.8325,2.9259,0.0,3.4225,3.5084,3.6065,3.9027,3.9578,3.945,3.912,3.9364,3.9537,3.9265,4.0653,4.2139,4.3204,4.3424,4.3497,4.3497,4.3497,4.3497,4.3497,4.3497,4.3497,4.3497,4.3497,4.3497,4.3497,4.3497,4.3497,4.3497,4.3497,4.3149,4.2433,4.2341,4.1937,4.124,4.0414,3.9992,3.9863,3.9166,3.8781,3.8707,3.8707,3.8707,3.8707,3.8707,3.8707,3.8707,3.8707,3.8707,3.8627,3.8183,3.7946,3.7755,0.0,0.0,0.0,0.0,0.0,0.0,0.0,0.0,0.0,0.0,0.0,0.0,0.0,0.0,0.0,0.0,2.6741,2.6025,2.5219,2.4557,2.419,2.419,2.419,2.419,2.419,2.4355,0.0,0.0,0.0,0.0,0.0,0.0,0.0,0.0,0.0,0.0,2.5303,2.5303,2.6486,2.8506,3.0217,3.1463,3.2754,3.6705,3.8719,3.955,4.0251,3.9576,3.8085,3.6504,3.6211,3.5801,3.1641,3.1055,3.1074,2.6914,2.7305,2.875,2.7167,2.7059,2.767,2.8765,2.9249,0.0,3.1107,3.2449,3.3583,3.4257,3.5235,3.5931,3.5698,3.5525,3.5298,3.5037,3.6927,3.9386,4.2139,4.3075,4.3497,4.3497,4.3497,4.3497,4.3497,4.3497,4.3497,4.3497,4.3497,4.3497,4.3497,4.3497,4.3497,4.3497,4.3497,4.3406,4.3259,4.2616,4.2213,4.2066,4.1258,4.0524,3.9882,3.9735,3.9313,3.8707,3.8707,3.8707,3.8707,3.8707,3.8707,3.8707,3.8707,3.8707,3.8676,3.8578,3.8267,3.7825,0.0,0.0,0.0,0.0,0.0,0.0,0.0,0.0,0.0,0.0,0.0,0.0,2.8994,2.8994,0.0,0.0,0.0,0.0,0.0,2.5035,2.4612,2.4208,2.419,2.4247,2.4339,2.4339,2.4444,0.0,0.0,0.0,0.0,0.0,0.0,0.0,0.0,0.0,2.7101,2.5851,2.6043,2.7467,3.0448,3.299,3.5321,3.8355,4.0123,4.1019,4.108,4.0582,3.9707,3.8379,3.6797,3.5137,3.3848,3.2559,3.0996,2.8398,2.8574,2.9121,2.6934,2.6639,2.7134,2.7913,2.8376,0.0,0.0,3.1727,3.266,3.393,3.4327,3.4367,3.4093,3.3508,3.2934,3.2647,3.5018,3.7019,3.7422,4.0598,4.3039,4.3442,4.3497,4.3497,4.3497,4.3497,4.3497,4.3497,4.3497,4.3497,4.3497,4.3497,4.3497,4.3497,4.3497,4.3497,4.3497,4.3094,4.2892,4.2892,4.2084,4.1497,4.1075,4.0267,3.968,3.9276,3.8872,3.8707,3.8707,3.8707,3.8707,3.8707,3.8707,3.8546,3.83,3.83,3.7998,3.747,3.119,0.0,0.0,0.0,0.0,0.0,0.0,0.0,0.0,0.0,0.0,2.9672,2.9672,2.9819,2.9659,2.8998,0.0,0.0,0.0,2.6046,2.564,2.5144,2.452,2.4506,2.5184,2.4737,2.4607,0.0,0.0,0.0,0.0,0.0,0.0,0.0,0.0,0.0,2.8275,2.6697,2.6313,2.714,3.1284,3.3939,3.5728,3.8541,3.9869,4.0343,4.0975,4.1191,4.1113,4.0625,3.7637,3.4375,3.5664,3.3769,3.082,2.9492,2.9687,2.9648,2.6543,2.6211,2.6776,2.6874,2.7383,2.8435,0.0,0.0,0.0,3.3814,3.358,3.2882,3.2523,3.1787,3.1094,3.0557,3.2963,3.4247,3.2412,3.6927,4.0749,4.1669,4.2784,4.3296,4.275,4.2748,4.2983,4.3461,4.3057,4.3002,4.3461,4.3497,4.3513,4.3597,4.3597,4.3597,4.3597,4.3597,4.3563,4.3479,4.2837,4.2451,4.2268,4.0946,4.0175,3.9845,3.9203,3.8836,3.8707,3.8707,3.8707,3.8707,3.8707,3.8433,3.8032,3.7946,3.7649,3.7248,3.119,3.119,0.0,0.0,0.0,0.0,0.0,0.0,0.0,0.0,0.0,3.2192,3.2192,3.2834,3.322,3.3128,3.2467,3.1384,2.9769,2.8319,2.7805,2.8448,2.5731,2.5299,2.7642,2.5594,2.4666,2.4974,0.0,0.0,0.0,0.0,0.0,0.0,2.7794,2.7563,2.586,2.7832,2.9967,3.2095,3.2803,3.1909,3.0533,3.3926,3.6211,3.7934,4.0331,4.1191,4.0859,3.8516,3.7344,3.623,3.2734,3.3848,3.5215,2.9082,2.998,3.1894,2.7012,2.5762,2.6015,2.6715,2.6978,2.7281,2.8218,0.0,2.8695,2.9624,0.0,2.9513,2.9131,0.0,0.0,2.7322,2.8668,2.9989,3.0411,3.2339,3.4156,3.5387,4.0233,4.2514,3.9997,4.0087,4.1185,4.3332,4.1515,4.1222,4.3387,4.3497,4.3646,4.3924,4.3924,4.3924,4.3924,4.3924,4.3804,4.3497,4.3406,4.2983,4.2286,4.2103,4.124,3.9882,3.979,3.935,3.8707,3.8707,3.8707,3.8707,3.8707,3.8658,3.8546,3.8065,3.7877,3.7685,2.9905,3.0598,0.0,0.0,0.0,0.0,0.0,0.0,0.0,0.0,0.0,3.1898,3.1898,3.221,3.2779,3.3715,3.3691,3.2871,3.1023,3.0442,0.0,2.8356,2.6117,2.5667,2.7381,2.5602,2.478,2.501,2.5111,0.0,0.0,0.0,0.0,0.0,2.8621,2.9333,2.9775,3.0852,3.1064,3.0837,3.2445,3.1576,2.9965,3.5972,3.8782,3.9666,4.0801,4.1191,4.1035,0.0,3.7559,0.0,3.6484,3.5019,3.2559,3.1133,3.0937,3.0391,2.6699,2.6816,2.7676,2.65,2.731,2.82,2.7478,2.7276,2.7475,2.8249,0.0,0.0,0.0,0.0,0.0,0.0,2.7255,2.7934,2.6869,3.0118,3.3067,3.4365,3.69,0.0,3.9593,4.1064,4.2396,4.3406,4.2543,4.2415,4.3442,4.3497,4.3646,4.3986,4.4016,4.4016,4.4016,4.4016,4.3818,4.3497,4.3497,4.3314,4.2983,4.2506,4.1937,4.124,4.0304,3.9698,3.935,3.8891,3.8707,3.8707,3.8707,3.8496,3.8216,3.798,3.7524,3.6981,2.8433,2.9567,3.0243,0.0,0.0,0.0,0.0,0.0,0.0,3.2525,3.2284,3.2137,3.2357,3.2981,3.3915,3.5164,3.5957,3.5602,3.3802,3.3044,3.2189,3.1114,2.7687,2.6821,2.8988,2.6691,2.5418,2.5361,0.0,0.0,0.0,0.0,0.0,0.0,2.8794,3.0155,3.1973,3.2899,3.2662,3.1826,3.4031,3.4257,3.3746,3.8257,4.0477,4.1191,4.1191,4.1191,4.1094,4.0371,3.7617,0.0,3.8379,3.5879,3.1973,3.3359,3.2773,3.0996,2.7676,0.0,2.8965,2.6348,0.0,2.8073,2.6744,0.0,0.0,2.744,2.7294,0.0,0.0,0.0,0.0,0.0,0.0,2.6282,2.474,2.786,3.0673,3.1717,3.3057,0.0,0.0,4.0437,4.1791,4.2451,4.2506,4.28,4.3442,4.3497,4.3693,4.4146,4.4146,4.4204,4.4299,4.4204,4.4004,4.3646,4.3548,4.3497,4.3461,4.2892,4.2506,4.2231,4.1056,4.0304,3.9845,3.9276,3.8909,3.8707,3.8707,3.8465,3.8099,3.7946,3.7415,3.6786,2.7063,2.7994,2.9079,2.9028,2.9658,0.0,0.0,3.1396,3.1715,3.2504,3.3256,3.4027,3.4789,3.7037,3.863,3.8995,4.0476,4.0817,3.9513,3.6417,3.602,3.918,3.1315,2.9251,3.4334,2.9638,2.6828,2.6256,0.0,0.0,0.0,0.0,0.0,0.0,2.8005,2.9226,2.9637,3.2954,3.5776,3.8098,3.9162,4.1048,4.2812,0.0,3.8939,4.1191,4.1191,0.0,0.0,3.8281,3.7305,0.0,0.0,0.0,0.0,0.0,0.0,0.0,0.0,0.0,0.0,2.6348,0.0,0.0,0.0,0.0,2.6683,0.0,0.0,0.0,0.0,0.0,0.0,0.0,0.0,0.0,0.0,2.485,2.462,2.5054,2.8619,3.2314,0.0,3.6255,3.7496,3.9827,4.001,4.1038,4.3369,4.3497,4.3823,4.4553,4.458,4.4751,4.5074,4.4732,4.4392,4.3986,4.3646,4.3497,4.3497,4.3461,4.3039,4.2304,4.2249,4.1332,3.99,3.9863,3.9405,3.8707,3.8707,3.8707,3.8627,3.8099,3.7859,3.772,2.7537,2.7858,2.8044,2.7554,2.8749,3.0201,3.158,3.1561,3.2373,3.5027,3.5151,3.5783,3.7871,3.8871,3.9833,4.1005,4.1865,4.1806,4.056,3.8591,3.7908,3.8845,3.243,3.0413,3.3828,2.9671,2.7347,2.7153,0.0,0.0,0.0,0.0,0.0,0.0,0.0,3.1813,3.3652,3.6493,3.8274,3.9195,3.9637,4.0366,4.1211,0.0,4.207,4.2851,4.2851,4.248,0.0,4.0976,3.918,3.75,3.8633,3.7031,3.4941,3.6094,3.5605,0.0,0.0,0.0,3.3652,2.9355,0.0,0.0,0.0,0.0,0.0,0.0,0.0,0.0,0.0,0.0,0.0,0.0,0.0,0.0,0.0,2.4373,2.4346,2.4748,2.8871,3.1991,3.2784,3.6868,3.9588,3.9863,4.1368,4.2635,4.3442,4.3497,4.3855,4.458,4.458,4.4757,4.5096,4.4776,4.4419,4.4016,4.3679,4.3497,4.3497,4.3497,4.3332,4.3057,4.2525,4.1992,4.1405,4.0341,3.9735,3.9441,3.8909,3.8496,3.815,3.798,3.7685,3.7285,2.7469,2.7418,2.7351,2.7131,2.8096,2.9391,3.0731,3.1023,3.2265,3.5525,3.5829,3.6735,3.9407,4.0201,4.1018,4.2208,4.3071,4.302,4.1755,4.0577,3.9983,4.0139,3.5284,3.3748,3.6255,3.2038,2.966,2.9374,0.0,2.8179,0.0,0.0,0.0,0.0,0.0,3.2338,3.5795,3.775,3.9714,4.1542,4.1941,4.2146,0.0,0.0,4.3672,4.2461,0.0,4.334,4.2851,4.2851,4.1191,3.9414,4.1094,3.9121,3.6504,3.8184,3.748,3.5957,3.4976,3.5951,0.0,3.1912,3.2038,0.0,2.7789,0.0,2.7083,0.0,0.0,0.0,0.0,0.0,0.0,0.0,0.0,0.0,0.0,2.419,2.4295,2.4563,2.7888,3.0428,3.1151,3.5659,3.8891,3.9827,4.1607,4.2892,4.3461,4.3497,4.3855,4.458,4.458,4.4825,4.5263,4.4943,4.4606,4.4204,4.3868,4.3631,4.3497,4.3497,4.3497,4.3461,4.2947,4.2561,4.2213,4.1185,4.0414,3.9845,3.9118,3.847,3.7893,3.7893,3.747,3.6803,2.6894,2.6809,2.7063,2.7775,2.7917,2.821,2.9046,3.0064,3.1675,3.4319,3.5614,3.7236,3.9738,4.1358,4.2439,4.2793,4.4223,4.4573,4.3299,4.2374,4.2277,4.3181,3.967,3.8857,4.138,3.6432,3.3455,3.2691,3.0318,0.0,0.0,0.0,0.0,0.0,2.8025,0.0,3.5986,3.681,4.0223,4.5137,4.5976,4.6211,4.6113,4.625,4.3691,4.0351,4.291,4.3808,4.3769,4.3769,4.3183,4.2461,4.2461,4.1914,4.1269,4.1269,4.1211,4.0623,3.7995,3.7277,3.6635,3.3957,3.3237,0.0,0.0,0.0,3.0294,0.0,0.0,0.0,0.0,0.0,0.0,0.0,0.0,0.0,0.0,0.0,2.419,2.419,2.5731,2.7821,3.0432,3.2684,3.5569,3.9423,4.0579,4.1809,0.0,4.3406,4.3762,4.458,4.458,4.4919,4.5586,4.5243,4.4919,4.458,4.4194,4.3804,4.3497,4.3497,4.3497,4.3497,4.3497,4.3057,4.2359,4.2323,4.1405,3.996,3.9418,3.8686,3.7913,3.7843,3.7193,3.6333,2.7689,2.8254,2.9003,2.9505,2.8852,2.906,3.1327,3.2168,3.3939,3.7822,3.9313,4.1036,4.379,4.4442,4.4729,4.4842,4.5245,4.534,4.497,4.3585,4.3412,4.4893,4.1034,3.9753,4.1654,3.6699,3.4011,3.3799,3.1289,0.0,2.9756,0.0,0.0,0.0,0.0,3.2706,3.7662,3.7896,4.1081,4.5996,4.6211,4.5137,4.3613,0.0,4.4414,4.2109,4.4707,4.5215,4.4668,4.4668,4.4082,4.3379,4.3379,4.2773,4.2089,4.2036,4.156,4.0886,4.0078,3.9857,3.9227,3.6647,3.595,3.5223,0.0,0.0,0.0,0.0,0.0,0.0,0.0,0.0,0.0,0.0,0.0,0.0,0.0,2.419,2.419,2.419,2.72,2.8865,2.7821,3.3057,3.6725,3.7184,3.9643,4.1809,4.3406,0.0,4.2613,4.4542,4.458,4.4919,4.5586,4.5011,4.4701,4.458,4.3962,4.3597,4.3497,4.3497,4.3497,4.3497,4.3497,4.3369,4.3149,4.2543,4.2066,4.1625,4.0851,3.9624,3.816,3.7154,3.6357,3.5827,2.8698,2.9425,3.0442,3.138,3.1547,3.2078,3.3667,3.3469,3.4708,3.9161,4.0708,4.2164,4.4134,4.5417,4.6009,4.5624,4.5586,4.5278,4.4547,4.4316,4.4278,4.4489,4.2931,4.2489,4.3431,3.9565,3.6988,3.5853,3.3314,0.0,3.0398,0.0,0.0,0.0,0.0,3.2716,3.6799,3.9115,4.1826,4.4687,4.584,4.543,0.0,4.5742,4.5391,4.4297,4.5762,4.5976,4.5566,4.5566,4.4959,4.4171,4.4171,4.3557,4.2752,4.2348,4.1869,4.1364,4.0887,4.0762,4.0393,3.8894,3.8508,3.779,3.5218,3.4597,3.4564,0.0,3.368,3.3141,0.0,0.0,0.0,0.0,0.0,0.0,0.0,2.419,2.419,2.419,2.6814,2.8099,2.6741,3.3201,3.7294,3.6853,3.8836,0.0,0.0,0.0,4.1853,4.3448,4.4052,4.4663,4.5362,4.4872,4.4501,4.4318,4.3912,4.3646,4.3497,4.3497,4.3497,4.3497,4.3497,4.3497,4.3442,4.3002,4.2616,4.2179,4.1168,3.9858,3.8386,3.7304,3.6371,3.5622,2.9866,3.064,3.1779,3.3056,3.4847,3.618,3.6433,3.5323,3.5904,3.9968,4.1549,4.2585,4.3311,4.5573,4.6759,4.599,4.5817,4.5143,4.3682,4.4855,4.4951,4.3489,4.4816,4.5586,4.5586,4.3104,4.0546,3.8007,3.5449,3.2891,3.0398,0.0,0.0,0.0,0.0,0.0,3.5349,4.0306,4.2598,4.3105,4.5391,4.6308,4.6308,4.6308,4.6289,4.6268,4.6268,4.6289,4.6308,4.6289,4.5692,4.4972,4.4948,4.4306,4.343,4.2644,4.2324,4.2044,4.1091,4.0842,4.0784,4.0554,4.0489,3.9912,3.77,3.7199,3.7199,3.7199,3.5449,3.5141,0.0,0.0,0.0,0.0,0.0,0.0,2.5263,2.5205,2.5075,2.4704,2.6374,0.0,2.6667,3.2816,3.6853,3.6853,3.7698,0.0,0.0,0.0,4.1297,4.2397,4.3437,4.4354,4.5096,4.4707,4.4364,4.4016,4.3955,4.3772,4.3497,4.3497,4.3497,4.3497,4.3497,4.3497,4.3497,4.3497,4.3075,4.2326,4.1069,3.9932,3.8988,3.8238,3.718,3.6082,3.1108,3.2599,3.3743,3.3286,3.6224,3.9208,4.0877,4.167,4.2598,4.405,4.5822,4.6973,4.7127,4.7587,4.7836,4.7682,4.7067,4.6547,4.6259,4.5836,4.547,4.5163,4.5432,4.5586,4.5586,4.3104,4.0546,3.8007,3.5449,3.2891,0.0,0.0,0.0,0.0,0.0,0.0,3.7998,4.1091,0.0,4.5664,4.6113,4.6308,4.6308,4.6308,4.6225,4.6144,4.6144,4.6202,4.6289,4.6173,4.6019,4.5845,4.574,4.5129,4.4413,4.4156,4.3567,4.2802,4.1866,4.1613,4.1439,4.0696,4.0489,4.0373,3.9931,3.9835,3.9835,3.9835,3.9469,3.8796,3.7584,0.0,0.0,0.0,0.0,0.0,3.0615,3.0551,2.9702,2.7445,3.0356,3.098,2.6998,3.076,3.3458,3.3458,3.4835,0.0,0.0,0.0,4.0667,0.0,4.4055,0.0,0.0,0.0,4.4058,4.4016,4.3726,4.3582,4.3497,4.3497,4.3497,4.3497,4.3497,4.3497,4.3497,4.3497,4.3406,4.3204,4.231,4.156,4.0917,4.0107,3.9426,3.8585,3.4046,3.4503,3.5243,3.672,3.9122,4.1666,4.411,4.6181,4.7087,4.6006,4.6682,4.7106,4.6646,4.7895,4.8586,4.8144,4.7759,4.7528,4.7528,4.674,4.6278,4.6278,4.5836,4.5586,4.5586,4.4393,4.1873,3.8007,3.6776,3.4199,0.0,0.0,0.0,3.0448,0.0,3.4022,0.0,0.0,0.0,4.4394,4.5742,4.6308,4.6289,4.6223,4.617,4.6084,4.6027,4.6039,4.608,4.6027,4.5959,4.592,4.588,4.553,4.5073,4.4564,4.4094,4.3578,4.2714,4.2143,4.17,4.1277,4.0835,4.0489,4.0489,4.0489,4.0489,4.0489,4.0489,3.9719,3.718,3.4622,0.0,0.0,0.0,0.0,0.0,3.2364,3.2027,3.072,3.1728,3.1641,2.931,3.0099,3.1439,3.3109,3.4312,0.0,0.0,0.0,4.0111,0.0,0.0,0.0,4.4849,0.0,0.0,4.3758,4.3563,4.3497,4.3497,4.3497,4.3497,4.3497,4.3497,4.3497,4.3497,4.3497,4.3497,4.3442,4.3057,4.2396,4.1546,4.0799,3.9994,3.9074,3.7025,3.6831,3.7387,4.0341,4.2308,4.4125,4.6173,4.8892,4.9913,4.7677,4.7388,4.712,4.6451,4.8336,4.9413,4.8756,4.8508,4.8392,4.8458,4.7673,4.721,4.724,4.641,4.5928,4.5928,4.5754,4.3419,3.8878,3.8317,3.5804,0.0,0.0,0.0,0.0,0.0,0.0,0.0,0.0,4.2715,4.3418,4.5469,4.6289,4.6247,4.6144,4.6075,4.6014,4.5918,4.5862,4.5841,4.5841,4.5825,4.5796,4.5775,4.5696,4.547,4.4778,4.4586,4.4393,4.3585,4.2854,4.2297,4.2124,4.1412,4.0777,4.0777,4.0623,4.0489,4.0489,4.0489,3.9719,3.718,3.5507,0.0,0.0,0.0,0.0,0.0,0.0,3.4284,3.4064,3.3241,3.2559,3.2192,3.1201,3.1604,3.4137,3.4596,0.0,3.8083,0.0,0.0,0.0,0.0,4.3304,4.3947,0.0,4.3497,4.3497,4.3497,4.3497,4.3497,4.3497,4.3497,4.3497,4.3497,4.3497,4.3497,4.3497,4.3497,4.3497,4.3375,4.279,4.1908,4.1203,4.035,3.9555,3.8803,4.0132,4.1303,4.203,4.4947,4.7051,4.6579,4.8892,5.0606,5.0336,5.0317,5.0279,5.0183,5.0433,5.0585,5.0631,4.9791,4.9377,4.9614,4.8722,4.8225,4.8351,4.7515,4.7048,4.7048,4.628,4.451,4.1707,3.9335,3.7123,0.0,0.0,0.0,0.0,0.0,0.0,0.0,4.2187,4.3769,4.5957,4.6191,4.6225,4.6117,4.6093,4.5998,4.5828,4.5815,4.5733,4.5635,4.5635,4.5688,4.5769,4.5668,4.5603,4.5566,4.549,4.547,4.5278,4.4412,4.4124,4.3893,4.3162,4.2316,4.1681,4.1681,4.1066,4.0489,4.0489,4.0489,3.9719,3.718,3.8392,3.9027,0.0,0.0,0.0,0.0,0.0,3.8172,3.7208,3.6974,3.6321,3.4807,3.5238,3.5734,3.6046,3.4724,0.0,0.0,0.0,0.0,4.1586,4.144,4.1501,4.1885,4.2973,4.3497,4.3497,4.3497,4.3497,4.3497,4.3497,4.3497,4.3497,4.3497,4.3497,4.3497,4.3497,4.3497,4.3444,4.2976,4.2693,4.2559,4.1908,4.1601,4.1472,4.2347,4.2674,4.336,4.5213,4.6339,4.7444,4.8795,4.999,5.0702,5.0702,5.0702,5.0702,5.0702,5.0756,5.0835,5.0908,5.0622,5.0467,5.0568,4.9711,4.9225,4.9283,4.8446,4.7979,4.7979,4.7133,4.5429,0.0,3.9785,3.7117,0.0,0.0,0.0,0.0,0.0,4.0402,4.25,4.4062,4.5332,4.6308,4.6308,4.6223,4.6084,4.6001,4.591,4.5783,4.5708,4.5651,4.5586,4.5586,4.5635,4.5665,4.562,4.5586,4.5586,4.5586,4.5586,4.5509,4.5163,4.4701,4.422,4.3893,4.3201,4.2585,4.2585,4.2316,4.1912,4.1393,4.0854,4.0181,3.9161,3.8565,3.8392,3.8892,0.0,0.0,0.0,0.0,0.0,4.073,3.9651,3.867,3.801,3.6945,3.6303,0.0,0.0,0.0,0.0,0.0,0.0,4.0859,0.0,4.2687,4.3029,4.3347,4.3497,4.3497,4.3497,4.3497,4.3497,4.3497,4.3497,4.3497,4.3497,4.3497,4.3497,4.3142,4.3014,4.3014,4.2788,4.2262,4.1621,4.1768,4.1375,4.0737,4.5323,4.5119,4.5555,4.8133,4.8099,4.8432,5.045,5.0757,5.0773,5.0805,5.0822,5.0789,5.0775,5.0879,5.0966,5.0977,5.1063,5.1122,5.1186,5.0587,5.0236,5.0264,4.9445,0.0,4.9003,4.8158,4.6819,4.5016,4.1557,0.0,0.0,0.0,0.0,0.0,4.1533,4.2789,4.3672,4.5527,4.6308,4.6308,4.6268,4.615,4.6033,4.5909,4.5813,4.5718,4.5635,4.5586,4.5586,4.5586,4.5586,4.5586,4.5586,4.5586,4.5586,4.5586,4.5586,4.5586,4.5586,4.5143,4.4682,4.4682,4.4066,4.3451,4.3451,4.3278,4.2931,4.2316,4.1681,4.1258,4.1258,3.9796,3.9181,4.0969,0.0,0.0,0.0,4.2366,0.0,4.2124,4.0674,3.9804,4.0013,3.8512,3.7515,0.0,0.0,0.0,0.0,0.0,0.0,0.0,0.0,0.0,4.3144,4.3391,4.3497,4.3497,4.3497,4.3497,4.3497,4.3497,4.3497,4.3497,4.3497,4.3497,4.3479,4.3087,4.2864,4.2655,4.2519,4.181,4.0949,4.1196,4.0767,4.007,4.7121,4.7662,4.8286,5.0297,5.0664,5.072,5.0879,5.0908,5.0945,5.1093,5.1103,5.1031,5.0903,5.1027,5.112,5.1196,5.1145,5.1186,5.1386,5.1268,5.1246,0.0,0.0,5.0176,5.0176,4.9336,4.8867,4.8828,0.0,0.0,4.4696,0.0,4.0611,4.2344,4.2383,4.3828,4.625,4.6289,4.6308,4.6289,4.617,4.6027,4.5909,4.5832,4.5723,4.5603,4.5586,4.5586,4.5586,4.5586,4.5586,4.5586,4.5586,4.5586,4.5586,4.5586,4.5586,4.5586,4.5586,4.5586,4.5566,4.5566,4.4932,4.4297,4.4297,4.3662,4.3104,4.3085,4.3085,4.3066,4.3066,4.3047,4.3028,4.3066,0.0,0.0,0.0,4.2815,0.0,4.056,3.9712,3.9525,4.0318,4.0356,4.0337,0.0,0.0,0.0,0.0,0.0,0.0,4.1093,4.113,0.0,4.1148,4.2708,4.3497,4.3497,4.3497,4.3497,4.3497,4.3497,4.3497,4.3497,4.3497,4.3497,4.3497,4.3479,4.3178,4.2655,4.2021,4.1446,4.0827,4.0336,4.0121,4.007,4.9584,4.9738,4.9971,5.0726,5.0835,5.0879,5.1016,5.1039,5.1042,5.1084,5.1145,5.1154,5.1106,5.1147,5.118,0.0,5.1261,5.1338,0.0,5.1365,5.1365,5.1406,5.1152,5.1016,5.1016,5.0215,4.9785,4.9785,0.0,0.0,0.0,4.322,4.369,4.5918,4.5312,4.5527,4.6308,4.6308,4.6247,4.615,4.6117,4.5994,4.5832,4.5803,4.5723,4.5586,4.5586,4.5586,4.5586,4.5586,4.5586,4.5586,4.5586,4.5586,4.5586,4.5586,4.5586,4.5586,4.5586,4.5586,4.5586,4.5586,4.5393,4.5182,4.5182,4.4528,4.3912,4.3912,4.347,4.3104,4.3104,4.3104,4.3104,4.3104,4.3293,0.0,4.3759,0.0,4.3667,4.3299,4.3036,4.298,4.3243,4.3016,0.0,0.0,0.0,0.0,0.0,0.0,0.0,0.0,4.1882,0.0,4.2745,4.3222,4.3497,4.3497,4.3497,4.3497,4.3497,4.3497,4.3497,4.3497,4.3497,4.3497,4.3479,4.3105,4.2864,4.2655,4.248,4.2021,4.149,4.1331,4.103,4.0577,5.0775,5.0793,5.0822,5.094,5.0966,5.1008,5.112,5.1137,5.1152,5.1206,5.1249,5.1271,5.1271,5.1271,0.0,5.1271,5.1344,5.1406,5.1406,5.1406,5.1406,5.1406,5.1406,5.1406,5.1406,5.0918,0.0,5.0644,4.8164,4.6797,4.6445,4.5918,4.6523,4.8047,4.7187,4.6797,4.6777,4.6445,4.6247,4.6173,4.6117,4.5994,4.5825,4.5803,4.5723,4.5586,4.5586,4.5586,4.5586,4.5586,4.5586,4.5586,4.5586,4.5586,4.5586,4.5586,4.5586,4.5586,4.5586,4.5586,4.5586,4.5586,4.5586,4.5586,4.5586,4.5182,4.4778,4.4778,4.4393,4.4028,4.4028,4.4028,4.4028,4.4028,4.4288,4.4479,4.4479,0.0,4.4535,4.3353,0.0,0.0,0.0,4.281,4.2377,0.0,0.0,0.0,0.0,0.0,0.0,4.1277,4.2708,0.0,4.3497,4.3497,4.3497,4.3497,4.3497,4.3497,4.3497,4.3497,4.3497,4.3497,4.3497,4.3497,4.3479,4.3142,4.2902,4.2711,4.2711,4.2342,4.181,4.181,4.1402,4.0856,5.0879,5.0923,5.0953,5.1084,5.1103,5.1128,5.1201,5.121,5.1265,5.1386,5.1406,5.1406,5.1406,5.1406,5.1406,5.1406,0.0,0.0,5.1406,5.1406,5.1406,5.1406,5.1406,5.1406,5.1406,5.1406,5.1406,5.1406,5.0644,4.9863,4.9062,4.9023,4.8984,4.8945,4.8086,4.7695,4.7637,4.6758,4.6386,4.6366,4.6163,4.6021,4.5891,4.5808,4.5708,4.5586,4.5586,4.5586,4.5586,4.5586,4.5586,4.5586,4.5586,4.5586,4.5586,4.5586,4.5586,4.5586,4.5586,4.5586,4.5586,4.5586,4.5586,4.5586,4.5586,4.5586,4.5586,4.5586,4.5586,4.5586,4.5586,4.5586,4.5568,4.5568,4.555,4.5531,4.5531,4.5531,4.4442,0.0,0.0,0.0,4.0718,4.0682,4.1511,0.0,0.0,0.0,0.0,0.0,4.1846,4.3442,4.3497,4.3497,4.3497,4.3497,4.3497,4.3497,4.3497,4.3497,4.3497,4.3497,4.3497,4.3497,4.3497,4.3497,4.3497,4.3497,4.3214,4.275,4.275,4.2422,4.1919,4.1895,4.149,4.0995,0.0,0.0,5.1084,5.1161,5.1174,5.1221,5.1322,5.1344,5.1365,5.1406,5.1406,5.1406,5.1406,5.1406,5.1406,5.1406,5.1406,5.1406,5.1406,5.1406,5.1406,5.1406,5.1406,5.1406,5.1406,5.1406,5.1406,5.1406,5.1211,5.1016,5.0781,5.0176,4.9883,4.9844,4.8984,4.8594,4.8535,4.7656,4.7222,4.7061,4.6268,4.591,4.5808,4.5692,4.5618,4.5586,4.5586,4.5586,4.5586,4.5586,4.5586,4.5586,4.5586,4.5586,4.5586,4.5586,4.5586,4.5586,4.5586,4.5586,4.5586,4.5586,4.5586,4.5586,4.5586,4.5586,4.5586,4.5586,4.5586,4.5586,4.5586,4.54,4.5222,4.5222,4.4988,4.4849,4.4849,4.4849,4.4573,0.0,4.3718,4.3693,4.3615,4.3315,4.26,0.0,0.0,0.0,4.0781,4.0983,4.1846,4.3442,4.3497,4.3497,4.3497,4.3497,4.3497,4.3497,4.3497,4.3497,4.3497,4.3497,4.3497,4.3497,4.3497,4.3497,4.3497,4.3497,4.341,4.3286,4.3286,4.3232,4.3069,4.2637,4.24,4.2121,5.1025,5.1092,5.118,5.1268,5.1294,5.132,5.1386,5.1406,5.1406,5.1406,5.1406,5.1406,5.1406,5.1406,5.1406,5.1406,5.1406,5.1406,5.1406,5.1406,5.1406,5.1406,5.1406,5.1406,5.1406,5.1406,5.1406,5.1406,5.1406,5.1406,5.1387,5.0957,5.0742,5.0703,4.9863,4.9492,4.9414,4.8144,4.7514,4.7318,4.6359,4.592,4.5796,4.5723,4.5648,4.5586,4.5586,4.5586,4.5586,4.5586,4.5586,4.5586,4.5586,4.5586,4.5586,4.5586,4.5586,4.5586,4.5586,4.5586,4.5586,4.5586,4.5586,4.5586,4.5586,4.5586,4.5586,4.5586,4.5586,4.5586,4.5586,4.5438,4.5322,4.5322,4.4206,4.3675,4.4678,4.3839,4.3396,4.4214,4.4337,4.428,4.4125,4.3899,4.3235,4.1903,4.2051,0.0,4.1552,4.1956,4.2598,4.3461,4.3497,4.3497,4.3497,4.3497,4.3497,4.3497,4.3497,4.3497,4.3497,4.3497,4.3497,4.3497,4.3497,4.3497,4.3497,4.3497,4.3497,4.3497,4.3497,4.3497,4.3444,4.3178,4.2902,4.2616,5.1191,5.123,5.1268,5.1386,5.1406,5.1406,5.1406,5.1406,5.1406,5.1406,5.1406,5.1406,5.1406,5.1406,5.1406,5.1406,5.1406,5.1406,5.1406,5.1406,5.1406,5.1406,5.1406,5.1406,5.1406,5.1406,5.1406,5.1406,5.1406,5.1406,5.1406,5.1406,5.1406,5.1367,5.0683,5.0371,5.0253,4.8632,4.7818,4.7479,4.6591,4.6054,4.5796,4.5789,4.5692,4.5586,4.5586,4.5586,4.5586,4.5586,4.5586,4.5586,4.5586,4.5586,4.5586,4.5586,4.5586,4.5586,4.5586,4.5586,4.5586,4.5586,4.5586,4.5586,4.5586,4.5586,4.5586,4.5586,4.5586,4.5586,4.5586,4.5568,4.5398,4.4976,4.3385,4.2737,4.4189,0.0,4.2281,4.3815,4.3955,4.3804,4.3513,4.3497,4.3497,4.3497,4.3497,4.3497,4.3497,4.3497,4.3497,4.3497,4.3497,4.3497,4.3497,4.3497,4.3497,4.3497,4.3497,4.3497,4.3497,4.3497,4.3497,4.3497,4.3497,4.3497,4.3497,4.3497,4.3497,4.3497,4.3497,4.3497,4.3497,4.3497,4.3214,4.2788,5.1201,5.1294,5.1386,5.1406,5.1406,5.1406,5.1406,5.1406,5.1406,5.1406,5.1406,5.1406,5.1406,5.1406,5.1406,5.1406,5.1406,5.1406,5.1406,5.1406,5.1406,5.1406,5.1406,5.1406,5.1406,5.1406,5.1406,5.1406,5.1406,5.1406,5.1406,5.1406,5.1406,5.1387,5.1269,5.1148,5.098,5.0024,4.9126,4.8232,4.7256,4.6435,4.5783,4.568,4.562,4.5586,4.5586,4.5586,4.5586,4.5586,4.5586,4.5586,4.5586,4.5586,4.5586,4.5586,4.5586,4.5586,4.5586,4.5586,4.5586,4.5586,4.5586,4.5586,4.5586,4.5586,4.5586,4.5586,4.5586,4.5586,4.5586,4.5362,4.4391,4.2006,4.3057,4.3441,4.1421,0.0,4.3687,4.396,4.3758,4.3582,4.3532,4.3497,4.3497,4.3497,4.3497,4.3497,4.3497,4.3497,4.3497,4.3497,4.3497,4.3497,4.3497,4.3497,4.3497,4.3497,4.3497,4.3497,4.3497,4.3497,4.3497,4.3497,4.3497,4.3497,4.3497,4.3497,4.3497,4.3497,4.3497,4.3497,4.3497,4.3497,4.3444,4.325,5.1318,5.1365,5.1406,5.1406,5.1406,5.1406,5.1406,5.1406,5.1406,5.1406,5.1406,5.1406,5.1406,5.1406,5.1406,5.1406,5.1406,5.1406,5.1406,5.1406,5.1406,5.1406,5.1406,5.1406,5.1406,5.1406,5.1406,5.1406,5.1406,5.1406,5.1406,5.1406,5.1365,5.1294,5.1294,5.1249,5.1094,5.0256,4.9585,4.8973,4.7566,4.6752,4.6317,4.5811,4.5586,4.5586,4.5586,4.5586,4.5586,4.5586,4.5586,4.5586,4.5586,4.5586,4.5586,4.5586,4.5586,4.5586,4.5586,4.5586,4.5586,4.5586,4.5586,4.5586,4.5586,4.5586,4.5586,4.5586,4.5586,4.5586,4.5586,4.5457,4.494,4.3635,4.3085,0.0,0.0,4.224,4.2396,4.3592,4.3597,4.3497,4.3497,4.3497,4.3497,4.3497,4.3497,4.3497,4.3497,4.3497,4.3497,4.3497,4.3497,4.3497,4.3497,4.3497,4.3497,4.3497,4.3497,4.3497,4.3497,4.3497,4.3497,4.3497,4.3497,4.3497,4.3497,4.3497,4.3497,4.3497,4.3497,4.3497,4.3444,4.3178,4.305,4.2976,5.1406,5.1406,5.1406,5.1406,5.1406,5.1406,5.1406,5.1406,5.1406,5.1406,5.1406,5.1406,5.1406,5.1406,5.1406,5.1406,5.1406,5.1406,5.1406,5.1406,5.1406,5.1406,5.1406,5.1406,5.1406,5.1406,5.1406,5.1406,5.1406,5.1406,5.1406,5.1366,5.1296,5.1201,5.1185,5.1125,5.1003,5.0342,4.986,4.9436,4.7893,4.7108,4.6797,4.5932,4.5586,4.5586,4.5586,4.5586,4.5586,4.5586,4.5586,4.5586,4.5586,4.5586,4.5586,4.5586,4.5586,4.5586,4.5586,4.5586,4.5586,4.5586,4.5586,4.5586,4.5586,4.5586,4.5586,4.5586,4.5586,4.5586,4.5586,4.5586,4.5357,4.4633,0.0,0.0,0.0,4.2165,4.1705,4.3424,4.3548,4.3497,4.3497,4.3497,4.3497,4.3497,4.3497,4.3497,4.3497,4.3497,4.3497,4.3497,4.3497,4.3497,4.3497,4.3497,4.3497,4.3497,4.3497,4.3497,4.3497,4.3497,4.3497,4.3497,4.3497,4.3497,4.3497,4.3497,4.3497,4.3497,4.3497,4.3497,4.3444,4.2902,4.2711,4.2616,5.1406,5.1406,5.1406,5.1406,5.1406,5.1406,5.1406,5.1406,5.1406,5.1406,5.1406,5.1406,5.1406,5.1406,5.1406,5.1406,5.1406,5.1406,5.1406,5.1406,5.1406,5.1406,5.1406,5.1406,5.1406,5.1406,5.1406,5.1406,5.1406,5.1406,5.1406,5.1271,5.1206,5.1201,5.1137,5.105,5.0903,5.0845,5.0275,4.9335,4.8393,4.7585,4.6797,4.5932,4.5586,4.5586,4.5586,4.5586,4.5586,4.5586,4.5586,4.5586,4.5586,4.5586,4.5586,4.5586,4.5586,4.5586,4.5586,4.5586,4.5586,4.5586,4.5586,4.5586,4.5586,4.5586,4.5586,4.5586,4.5586,4.5586,4.5586,4.5586,4.4633,4.1721,0.0,0.0,4.1116,4.2462,4.3781,4.3918,4.3693,4.3497,4.3497,4.3497,4.3497,4.3497,4.3497,4.3497,4.3497,4.3497,4.3497,4.3497,4.3497,4.3497,4.3497,4.3497,4.3497,4.3497,4.3497,4.3497,4.3497,4.3497,4.3497,4.3497,4.3497,4.3497,4.3497,4.3497,4.3497,4.3497,4.3497,4.3497,4.3444,4.2902,4.2711,4.2519,5.1406,5.1406,5.1406,5.1406,5.1406,5.1406,5.1406,5.1406,5.1406,5.1406,5.1406,5.1406,5.1406,5.1406,5.1406,5.1406,5.1406,5.1406,5.1406,5.1406,5.1406,5.1406,5.1406,5.1406,5.1406,5.1406,5.1406,5.1406,5.1406,5.1365,5.1271,5.1215,5.1128,5.1003,5.0984,5.0889,5.0793,5.0793,5.0565,5.0125,4.926,4.8394,4.7548,4.6721,4.6067,4.5586,4.5586,4.5586,4.5586,4.5586,4.5586,4.5586,4.5586,4.5586,4.5586,4.5586,4.5586,4.5586,4.5586,4.5586,4.5586,4.5586,4.5586,4.5586,4.5586,4.5586,4.5586,4.5586,4.5586,4.5586,4.5586,4.5419,4.4897,4.3713,0.0,4.4008,4.2808,4.3243,4.3693,4.3693,4.3563,4.3497,4.3497,4.3497,4.3497,4.3497,4.3497,4.3497,4.3497,4.3497,4.3497,4.3497,4.3497,4.3497,4.3497,4.3497,4.3497,4.3497,4.3497,4.3497,4.3497,4.3497,4.3497,4.3497,4.3497,4.3497,4.3497,4.3497,4.3497,4.3497,4.3497,4.3286,4.2939,4.2324,4.1895,4.149,5.1406,5.1406,5.1406,5.1406,5.1406,5.1406,5.1406,5.1406,5.1406,5.1406,5.1406,5.1406,5.1406,5.1406,5.1406,5.1406,5.1406,5.1406,5.1406,5.1406,5.1406,5.1406,5.1406,5.1406,5.1406,5.1406,5.1386,5.1343,5.1343,5.1288,5.1167,5.114,5.1035,5.0908,5.0867,5.0791,5.0702,5.0702,5.0702,5.0606,4.974,4.9048,4.8394,4.7317,4.6528,4.597,4.5701,4.5586,4.5586,4.5586,4.5586,4.5586,4.5586,4.5586,4.5586,4.5586,4.5586,4.5586,4.5586,4.5586,4.5586,4.5586,4.5586,4.5586,4.5586,4.5586,4.5568,4.5457,4.5438,4.5419,4.5322,4.5096,4.4896,4.4781,4.4327,4.3955,4.3849,4.3646,4.3497,4.3497,4.3497,4.3497,4.3497,4.3497,4.3497,4.3497,4.3497,4.3497,4.3497,4.3497,4.3497,4.3497,4.3497,4.3497,4.3497,4.3497,4.3497,4.3497,4.3497,4.3497,4.3497,4.3497,4.3497,4.3497,4.3497,4.3497,4.3497,4.3497,4.341,4.325,4.325,4.2921,4.2342,4.175,4.1268,4.081,5.1406,5.1406,5.1406,5.1406,5.1406,5.1406,5.1406,5.1406,5.1406,5.1406,5.1406,5.1406,5.1406,5.1406,5.1406,5.1406,5.1406,5.1406,5.1406,5.1406,5.1406,5.1406,5.1406,5.1406,5.1406,5.1406,5.1322,5.1201,5.1201,5.1161,5.1103,5.0953,5.0908,5.0894,5.0757,5.0702,5.0702,5.0702,5.0702,5.0606,4.976,4.9413,4.9221,4.7548,4.6913,4.6797,4.5913,4.5605,4.5586,4.5586,4.5586,4.5586,4.5586,4.5586,4.5586,4.5586,4.5586,4.5586,4.5586,4.5586,4.5586,4.5586,4.5586,4.5586,4.5586,4.5586,4.5513,4.518,4.5096,4.5007,4.4657,4.4599,4.4474,4.4058,4.4016,4.3881,4.3548,4.3497,4.3497,4.3497,4.3497,4.3497,4.3497,4.3497,4.3497,4.3497,4.3497,4.3497,4.3497,4.3497,4.3497,4.3497,4.3497,4.3497,4.3497,4.3497,4.3497,4.3497,4.3497,4.3497,4.3497,4.3497,4.3497,4.3497,4.3497,4.3497,4.3497,4.3497,4.3178,4.2711,4.2711,4.2342,4.1707,4.1133,4.0903,4.081,5.1406,5.1406,5.1406,5.1406,5.1406,5.1406,5.1406,5.1406,5.1406,5.1406,5.1406,5.1406,5.1406,5.1406,5.1406,5.1406,5.1406,5.1406,5.1406,5.1406,5.1406,5.1406,5.1406,5.1406,5.1406,5.1318,5.1238,5.1201,5.1147,5.1064,5.0953,5.0918,5.0851,5.0757,5.0721,5.0702,5.0702,5.0702,5.0702,5.0664,5.0414,4.9952,4.9356,4.8836,4.7913,4.6874,4.6605,4.6124,4.5586,4.5586,4.5586,4.5586,4.5586,4.5586,4.5586,4.5586,4.5586,4.5586,4.5586,4.5586,4.5586,4.5586,4.5586,4.5586,4.5586,4.5586,4.5513,4.518,4.5096,4.5007,4.4657,4.4392,4.4146,4.3998,4.3804,4.3612,4.3513,4.3497,4.3497,4.3497,4.3497,4.3497,4.3497,4.3497,4.3497,4.3497,4.3497,4.3497,4.3497,4.3497,4.3497,4.3497,4.3497,4.3497,4.3497,4.3497,4.3497,4.3497,4.3497,4.3497,4.3497,4.3497,4.3497,4.3497,4.3497,4.3497,4.3497,4.3497,4.341,4.325,4.325,4.2921,4.2342,4.175,4.1251,4.081,5.1406,5.1406,5.1406,5.1406,5.1406,5.1406,5.1406,5.1406,5.1406,5.1406,5.1406,5.1406,5.1406,5.1406,5.1406,5.1406,5.1406,5.1406,5.1406,5.1406,5.1406,5.1406,5.1406,5.1386,5.132,5.1238,5.1154,5.1072,5.1033,5.094,5.0822,5.0822,5.0773,5.0702,5.0702,5.0702,5.0702,5.0702,5.0702,5.0702,5.0702,5.0375,4.9875,4.9529,4.8779,4.7836,4.7509,4.6836,4.6105,4.6105,4.5893,4.5586,4.5586,4.5586,4.5586,4.5586,4.5586,4.5586,4.5586,4.5586,4.5586,4.5586,4.5495,4.54,4.54,4.5302,4.5099,4.4738,4.4663,4.4561,4.4223,4.3974,4.3804,4.3804,4.3612,4.3497,4.3497,4.3497,4.3497,4.3497,4.3497,4.3497,4.3497,4.3497,4.3497,4.3497,4.3497,4.3497,4.3497,4.3497,4.3497,4.3497,4.3497,4.3497,4.3497,4.3497,4.3497,4.3497,4.3497,4.3497,4.3497,4.3497,4.3497,4.3497,4.3497,4.3497,4.3497,4.3497,4.3375,4.3178,4.3178,4.2846,4.2302,4.1937,4.1402,4.0856,5.1406,5.1406,5.1406,5.1406,5.1406,5.1406,5.1406,5.1406,5.1406,5.1406,5.1406,5.1406,5.1406,5.1406,5.1406,5.1406,5.1406,5.1406,5.1406,5.1406,5.1406,5.1406,5.1386,5.132,5.1196,5.1191,5.1109,5.0908,5.0894,5.0822,5.0702,5.0702,5.0702,5.0702,5.0702,5.0702,5.0702,5.0702,5.0702,5.0702,5.0702,5.0702,5.0606,4.9817,4.9471,4.9298,4.8509,4.7702,4.7009,4.7009,4.6471,4.5797,4.574,4.572,4.5701,4.5605,4.5586,4.5586,4.5586,4.5586,4.5586,4.5586,4.5342,4.5096,4.5096,4.4872,4.4527,4.4087,4.4016,4.3912,4.3563,4.3497,4.3497,4.3497,4.3497,4.3497,4.3497,4.3497,4.3497,4.3497,4.3497,4.3497,4.3497,4.3497,4.3497,4.3497,4.3497,4.3497,4.3497,4.3497,4.3497,4.3497,4.3497,4.3497,4.3497,4.3497,4.3497,4.3497,4.3497,4.3497,4.3497,4.3497,4.3497,4.3497,4.3497,4.3497,4.3497,4.3497,4.3214,4.2788,4.2788,4.2422,4.1937,4.1895,4.1534,4.1041,5.1406,5.1406,5.1406,5.1406,5.1406,5.1406,5.1406,5.1406,5.1406,5.1406,5.1406,5.1406,5.1406,5.1406,5.1406,5.1406,5.1406,5.1406,5.1406,5.1406,5.1406,5.1406,5.1296,5.121,5.1111,5.1111,5.1053,5.0908,5.0789,5.0721,5.0702,5.0702,5.0702,5.0702,5.0702,5.0702,5.0702,5.0702,5.0702,5.0702,5.0702,5.0702,5.0664,5.0491,4.999,4.9375,4.9183,4.8567,4.7836,4.7836,4.7721,4.7451,4.6817,4.6624,4.649,4.5797,4.5586,4.5586,4.5586,4.5586,4.5586,4.5586,4.5342,4.5096,4.5096,4.5052,4.4806,4.4146,4.4016,4.3912,4.3563,4.3497,4.3497,4.3497,4.3497,4.3497,4.3497,4.3497,4.3497,4.3497,4.3497,4.3497,4.3497,4.3497,4.3497,4.3497,4.3497,4.3497,4.3497,4.3497,4.3497,4.3497,4.3497,4.3497,4.3497,4.3497,4.3497,4.3497,4.3497,4.3497,4.3497,4.3497,4.3497,4.3497,4.3497,4.3497,4.3497,4.3497,4.3444,4.3339,4.3339,4.325,4.3069,4.2675,4.244,4.2162,5.1406,5.1406,5.1406,5.1406,5.1406,5.1406,5.1406,5.1406,5.1406,5.1406,5.1406,5.1406,5.1406,5.1406,5.1406,5.1406,5.1406,5.1406,5.1406,5.1343,5.1299,5.1299,5.121,5.1111,5.1016,5.1004,5.0945,5.0805,5.074,5.0702,5.0702,5.0702,5.0702,5.0702,5.0702,5.0702,5.0702,5.0702,5.0702,5.0702,5.0702,5.0702,5.0702,5.0702,5.0414,5.001,5.001,4.9452,4.8663,4.824,4.8105,4.8029,4.7605,4.7471,4.7375,4.6932,4.6797,4.6797,4.6797,4.6509,4.622,4.622,4.5783,4.5302,4.5137,4.4985,4.4707,4.4117,4.4016,4.3912,4.3563,4.3497,4.3497,4.3497,4.3497,4.3497,4.3497,4.3497,4.3497,4.3497,4.3497,4.3497,4.3497,4.3497,4.3497,4.3497,4.3497,4.3497,4.3497,4.3497,4.3497,4.3497,4.3497,4.3497,4.3497,4.3497,4.3497,4.3497,4.3497,4.3497,4.3497,4.3497,4.3497,4.3497,4.3497,4.3497,4.3497,4.3497,4.3497,4.3497,4.3497,4.3497,4.3463,4.3178,4.2714,4.2121,5.1406,5.1406,5.1406,5.1406,5.1406,5.1406,5.1406,5.1406,5.1406,5.1406,5.1406,5.1406,5.1406,5.1406,5.1406,5.1406,5.1406,5.1406,5.1406,5.1271,5.1201,5.1201,5.112,5.1016,5.0889,5.0879,5.0805,5.0702,5.0702,5.0702,5.0702,5.0702,5.0702,5.0702,5.0702,5.0702,5.0702,5.0702,5.0702,5.0702,5.0702,5.0702,5.0702,5.0702,5.0702,5.0702,5.0702,5.024,4.951,4.8798,4.8548,4.8529,4.8375,4.8317,4.8298,4.8144,4.8105,4.8105,4.8105,4.7605,4.7105,4.7105,4.6567,4.5955,4.56,4.5038,4.4501,4.4087,4.3955,4.3836,4.3548,4.3497,4.3497,4.3497,4.3497,4.3497,4.3497,4.3497,4.3497,4.3497,4.3497,4.3497,4.3497,4.3497,4.3497,4.3497,4.3497,4.3497,4.3497,4.3497,4.3497,4.3497,4.3497,4.3497,4.3497,4.3497,4.3497,4.3497,4.3497,4.3497,4.3497,4.3497,4.3497,4.3497,4.3497,4.3497,4.3497,4.3497,4.3497,4.3479,4.341,4.3356,4.3375,4.325,4.2562,4.149,5.1406,5.1406,5.1406,5.1406,5.1406,5.1406,5.1406,5.1406,5.1406,5.1406,5.1406,5.1406,5.1406,5.1406,5.1406,5.1406,5.1406,5.1406,5.1406,5.1271,5.1201,5.1201,5.1014,5.0918,5.0908,5.0791,5.0721,5.0702,5.0702,5.0702,5.0702,5.0702,5.0702,5.0702,5.0702,5.0702,5.0702,5.0702,5.0702,5.0702,5.0702,5.0702,5.0702,5.0702,5.0702,5.0702,5.0702,5.0606,5.051,5.0375,5.0337,5.0221,4.9452,4.9221,4.9086,4.8317,4.8105,4.8105,4.8105,4.8029,4.7952,4.7952,4.7855,4.7665,4.7277,4.5829,4.4501,4.4087,4.3772,4.3529,4.3532,4.3497,4.3497,4.3497,4.3497,4.3497,4.3497,4.3497,4.3497,4.3497,4.3497,4.3497,4.3497,4.3497,4.3497,4.3497,4.3497,4.3497,4.3497,4.3497,4.3497,4.3497,4.3497,4.3497,4.3497,4.3497,4.3497,4.3497,4.3497,4.3497,4.3497,4.3497,4.3497,4.3497,4.3497,4.3497,4.3497,4.3497,4.3497,4.3444,4.2976,4.2826,4.2732,4.2226,4.1603,4.0995,5.1406,5.1406,5.1406,5.1406,5.1406,5.1406,5.1406,5.1406,5.1406,5.1406,5.1406,5.1406,5.1406,5.1406,5.1406,5.1406,5.1406,5.1366,5.1296,5.1199,5.1109,5.1035,5.0874,5.0791,5.0791,5.0721,5.0702,5.0702,5.0702,5.0702,5.0702,5.0702,5.0702,5.0702,5.0702,5.0702,5.0702,5.0702,5.0702,5.0702,5.0702,5.0702,5.0702,5.0702,5.0702,5.0702,5.0702,5.0702,5.0702,5.0702,5.0702,5.0625,5.024,5.0125,5.0048,4.9663,4.9548,4.9548,4.9548,4.9202,4.8836,4.8836,4.8471,4.7991,4.7602,4.6683,4.5697,4.4871,4.4196,4.3726,4.3548,4.3497,4.3497,4.3497,4.3497,4.3497,4.3497,4.3497,4.3497,4.3497,4.3497,4.3497,4.3497,4.3497,4.3497,4.3497,4.3497,4.3497,4.3497,4.3497,4.3497,4.3497,4.3497,4.3497,4.3497,4.3497,4.3497,4.3497,4.3497,4.3497,4.3497,4.3497,4.3497,4.3497,4.3497,4.3497,4.3497,4.3497,4.3497,4.3444,4.2902,4.248,4.2121,4.1534,4.1133,4.0874]}]]